     2              OBSERVATION DATA    GPS                 RINEX VERSION / TYPE
teqc 2002Apr3 20060623 22:39:12UTC                          PGM / RUN BY / DATE
                                                            COMMENT
L2: 1 -> 1; 150 -> 5; 250 -> 9                              COMMENT
L2: 1 -> 1; 150 -> 5; 250 -> 9                              COMMENT
L2: 1 -> 1; 150 -> 5; 250 -> 9                              COMMENT
L2: 1 -> 1; 150 -> 5; 250 -> 9                              COMMENT
L2: 1 -> 1; 150 -> 5; 250 -> 9                              COMMENT
Original Marker Name: F17G                                  COMMENT
Campaign Name: UCSD Rose 2005-2006                          COMMENT
4-Character Station Name: F17G                              COMMENT
6-Character Antenna Code: DMRCHT                            COMMENT
Vertical Measurement Point: BPA                             COMMENT
Vertical Offset to Rinex Ref. Point: 0.0000                 COMMENT
Radial Measurement Point: RRP                               COMMENT
Radial Offset to Rinex Ref. Point: 0.0000                   COMMENT
Antenna Height from Field Measurement: 0.8900 m             COMMENT
Additional Antenna Identification Info.:                    COMMENT
Turborogue and Ashtech Choke Ring                           COMMENT
Original XYZ: 0.0000 0.0000 0.0000                          COMMENT
New XYZ position is based on association with SCEC monument COMMENT
E1C8O6L7+0011. Position of that monument is believed to be  COMMENT
valid to within 1 m horizontally; vertical accuracy         COMMENT
should be no worse than 3-times this value.                 COMMENT
                                                            COMMENT
Revised Rinex header created by UCSD GPS archive for        COMMENT
GSAC on 09-Jun-2007 (2007:160) 17:14:08 GMT                 COMMENT
For assistance contact dagnew@ucsd.edu                      COMMENT
or anderson@python.ucsd.edu                                 COMMENT
                                                            COMMENT
F17G 1998                                                   MARKER NAME
-Unknown- SCRIPPS INSTITUTION OF OCEANOGRAPHY               OBSERVER / AGENCY
389 ASHTECH Z-XII3 CC00                                     REC # / TYPE / VERS
738 DORNE-MARGOL. TYPE T                                    ANT # / TYPE
 -2460123.0000 -4775893.0000  3426395.0000                  APPROX POSITION XYZ
        0.8900        0.0000        0.0000                  ANTENNA: DELTA H/E/N
     1     1     0                                          WAVELENGTH FACT L1/2
     7    C1    L1    L2    P1    P2    S1    S2            # / TYPES OF OBSERV
    30                                                      INTERVAL
  2006     5    10     0     0   30.000000                  TIME OF FIRST OBS
  2006     5    10     4    40   30.000000                  TIME OF LAST OBS
                                                            END OF HEADER
 06  5 10  0  0 30.0000000  0  7G 1G16G25G24G20G11G23
  22074930.3034  -16241880.40349 -12640695.27947  22074930.0844   22074935.7984
       234.0004        192.0004
  22567365.4324  -11971356.69749  -9120468.75946  22567365.1884   22567370.7944
       226.0004        175.0004
  21431521.4844  -19498711.56849 -14933621.04947  21431521.6264   21431526.3264
       241.0004        205.0004
  24214105.1924   -4852280.02849  -3590862.85345  24214105.5844   24214112.9934
       214.0004        152.0004
  20905644.7444  -22471934.62649 -17501492.21347  20905644.3744   20905649.1334
       241.0004        209.0004
  22715397.3894  -12924562.66649  -9819635.36346  22715398.0874   22715402.3394
       227.0004        173.0004
  22110598.2344  -19249459.35749 -14791604.95747  22110598.0414   22110600.5154
       231.0004        191.0004
 06  5 10  0  1  0.0000000  0  7G 1G16G25G24G20G11G23
  22083506.7064  -16196811.29149 -12605576.49547  22083506.3674   22083512.5034
       233.0004        191.0004
  22553384.3624  -12044828.10549  -9177719.17046  22553384.8774   22553389.3314
       227.0004        176.0004
  21443746.3694  -19434469.64449 -14883562.40947  21443746.8034   21443751.3834
       241.0004        205.0004
  24203479.0184   -4908121.57649  -3634375.71845  24203478.9004   24203486.5864
       215.0004        154.0004
  20894935.4694  -22528212.12349 -17545344.79647  20894935.2174   20894939.9324
       242.0004        209.0004
  22727921.5684  -12858748.78049  -9768351.85946  22727921.2284   22727927.8894
       226.0004        173.0004
  22100690.7134  -19301523.80049 -14832174.62647  22100690.4404   22100693.1764
       232.0004        190.0004
 06  5 10  0  1 30.0000000  0  7G 1G16G25G24G20G11G23
  22092097.1374  -16151667.99749 -12570399.92347  22092097.1594   22092103.2804
       233.0004        191.0004
  22539459.7784  -12118002.66049  -9234738.24546  22539460.0864   22539465.1774
       226.0004        177.0004
  21456022.4154  -19369958.39749 -14833293.90947  21456022.4354   21456027.4504
       240.0004        205.0004
  24192934.3574   -4963533.85749  -3677554.08445  24192934.1804   24192941.4794
       213.0004        153.0004
  20884294.4674  -22584131.14349 -17588918.04647  20884293.9644   20884299.0884
       241.0004        210.0004
  22740493.0834  -12792684.67349  -9716873.38546  22740493.1444   22740499.5064
       225.0004        173.0004
  22090804.1324  -19353478.10949 -14872658.47647  22090803.6154   22090805.9864
       231.0004        191.0004
 06  5 10  0  2  0.0000000  0  7G 1G16G25G24G20G11G23
  22100701.9674  -16106449.68049 -12535164.88547  22100701.9824   22100707.8164
       234.0004        192.0004
  22525592.4324  -12190875.77649  -9291522.43646  22525592.1674   22525597.3234
       226.0004        176.0004
  21468349.4484  -19305179.26649 -14782816.66447  21468349.3014   21468354.3414
       240.0004        204.0004
  24182471.8254   -5018514.47649  -3720396.09945  24182471.8434   24182479.6664
       212.0004        153.0004
  20873722.3014  -22639688.41449 -17632209.40947  20873721.9334   20873726.4944
       243.0004        210.0004
  22753111.8904  -12726372.33249  -9665201.48446  22753111.6194   22753117.9004
       225.0004        173.0004
  22080938.6284  -19405321.52549 -14913055.92547  22080938.7044   22080940.6114
       232.0004        191.0004
 06  5 10  0  2 30.0000000  0  7G 1G16G25G24G20G11G23
  22109320.9224  -16061156.68949 -12499871.66247  22109320.9564   22109325.9804
       233.0004        191.0004
  22511782.8324  -12263445.30649  -9348070.07746  22511782.4374   22511788.5584
       226.0004        176.0004
  21480726.9964  -19240134.67949 -14732132.57247  21480727.2524   21480732.0614
       239.0004        203.0004
  24172091.8474   -5073062.09949  -3762900.70845  24172092.0094   24172098.8534
       215.0004        153.0004
  20863219.3274  -22694881.90949 -17675217.31247  20863218.7044   20863223.8524
       242.0004        210.0004
  22765777.3554  -12659814.59249  -9613338.35846  22765777.7004   22765784.1064
       226.0004        174.0004
  22071094.1274  -19457054.40049 -14953367.22647  22071093.8204   22071096.4764
       232.0004        192.0004
 06  5 10  0  3  0.0000000  0  7G 1G16G25G24G20G11G23
  22117953.9534  -16015789.74849 -12464520.81747  22117953.3304   22117958.7784
       232.0004        190.0004
  22498031.5534  -12335708.62149  -9404379.09546  22498031.5874   22498037.0554
       227.0004        178.0004
  21493154.5084  -19174827.66649 -14681244.00047  21493154.6394   21493159.5464
       239.0004        203.0004
  24161794.3164   -5127175.76949  -3805067.17645  24161793.9584   24161802.1534
       212.0004        153.0004
  20852785.8164  -22749710.12749 -17717940.58347  20852785.3574   20852790.2434
       241.0004        210.0004
  22778488.9944  -12593014.85049  -9561286.65846  22778489.2304   22778494.4844
       226.0004        174.0004
  22061270.6134  -19508677.33449 -14993592.85947  22061270.2804   22061272.7344
       233.0004        192.0004
 06  5 10  0  3 30.0000000  0  8G13G 1G16G25G24G20G11G23
  24612307.6754   -3490971.09849  -2547071.49545  24612310.1924   24612315.5704
       206.0004        132.0004
  22126599.8654  -15970354.47049 -12429116.71247  22126599.1044   22126605.7634
       231.0004        189.0004
  22484337.9874  -12407668.59849  -9460451.72846  22484338.1174   22484343.0804
       225.0004        178.0004
  21505630.5274  -19109265.95649 -14630156.95547  21505630.4424   21505635.3884
       240.0004        203.0004
  24151578.3634   -5180859.79149  -3846898.84845  24151578.2304   24151586.5024
       212.0004        154.0004
  20842421.1884  -22804176.41449 -17760381.83047  20842420.9624   20842425.8774
       243.0004        210.0004
  22791244.9724  -12525981.52049  -9509052.94646  22791245.0394   22791250.2314
       227.0004        173.0004
  22051466.8744  -19560196.14249 -15033737.36147  22051466.8874   22051469.1994
       232.0004        192.0004
 06  5 10  0  4  0.0000000  0  8G13G 1G16G25G24G20G11G23
  24598896.8044   -3561446.54449  -2601987.35145  24598897.0884   24598904.8154
       207.0004        132.0004
  22135260.3854  -15924842.46149 -12393652.82547  22135260.3484   22135266.2924
       232.0004        189.0004
  22470704.3304  -12479313.49649  -9516278.84246  22470704.0354   22470710.4674
       227.0004        178.0004
  21518156.1254  -19043443.48149 -14578866.71847  21518156.4604   21518161.2974
       240.0004        203.0004
  24141446.1254   -5234104.34849  -3888388.08245  24141446.4444   24141453.5934
       213.0004        154.0004
  20832127.5774  -22858270.08449 -17802532.72547  20832127.3184   20832132.0484
       242.0004        211.0004
  22804046.5194  -12458708.81149  -9456632.69146  22804046.4774   22804052.5784
       225.0004        173.0004
  22041684.6064  -19611602.31749 -15073794.09347  22041684.1804   22041686.8074
       233.0004        192.0004
 06  5 10  0  4 30.0000000  0  8G13G 1G16G25G24G20G11G23
  24585494.0424   -3631877.75849  -2656868.73345  24585495.4064   24585500.8604
       208.0004        134.0004
  22143935.6054  -15879253.78049 -12358129.18947  22143935.2934   22143941.7084
       232.0004        190.0004
  22457131.2774  -12550640.37849  -9571858.18346  22457130.7224   22457136.2744
       227.0004        179.0004
  21530730.9614  -18977362.48849 -14527375.04547  21530731.0454   21530735.7854
       240.0004        203.0004
  24131397.9284   -5286907.80849  -3929533.61645  24131397.6414   24131405.8364
       212.0004        154.0004
  20821905.2264  -22911989.05949 -17844391.65147  20821904.8754   20821909.4714
       242.0004        211.0004
  22816893.1514  -12391199.37449  -9404027.98946  22816893.5134   22816898.5794
       227.0004        173.0004
  22031923.7744  -19662895.84349 -15113763.05347  22031923.6574   22031926.3054
       232.0004        192.0004
 06  5 10  0  5  0.0000000  0  8G13G 1G16G25G24G20G11G23
  24572099.7954   -3702266.88349  -2711717.31445  24572100.1094   24572107.0794
       211.0004        136.0004
  22152625.1394  -15833590.24149 -12322547.23347  22152625.6164   22152631.2404
       234.0004        191.0004
  22443618.8144  -12621648.17749  -9627188.88746  22443618.5664   22443624.2764
       225.0004        178.0004
  21543354.1344  -18911027.20049 -14475685.21347  21543354.0164   21543359.0564
       239.0004        203.0004
  24121433.7344   -5339270.64849  -3970335.79745  24121434.2494   24121441.0564
       209.0004        154.0004
  20811754.1954  -22965332.98449 -17885958.33047  20811753.6634   20811758.4114
       241.0004        211.0004
  22829784.0684  -12323457.87249  -9351242.45746  22829784.6194   22829789.5984
       228.0004        173.0004
  22022183.9354  -19714078.86349 -15153645.89447  22022183.7894   22022185.7654
       232.0004        193.0004
 06  5 10  0  5 30.0000000  0  8G13G 1G16G25G24G20G11G23
  24558713.3594   -3772614.45049  -2766533.47845  24558713.5964   24558719.7074
       204.0004        137.0004
  22161328.9014  -15787852.17549 -12286907.19747  22161328.9814   22161334.5414
       234.0004        191.0004
  22430167.5594  -12692334.27949  -9682268.89746  22430166.6394   22430173.0664
       226.0004        178.0004
  21556025.1914  -18844440.03449 -14423799.11347  21556025.4044   21556030.3624
       240.0004        203.0004
  24111553.3724   -5391191.52349  -4010793.58245  24111553.8094   24111561.6714
       208.0004        153.0004
  20801674.9794  -23018299.65749 -17927231.04647  20801674.5504   20801679.3004
       242.0004        211.0004
  22842718.5254  -12255487.41649  -9298278.50846  22842718.3554   22842724.9314
       226.0004        173.0004
  22012465.1644  -19765151.59849 -15193442.79047  22012464.7284   22012467.2634
       233.0004        192.0004
 06  5 10  0  6  0.0000000  0  8G13G 1G16G25G24G20G11G23
  24545334.0154   -3842920.71649  -2821317.45345  24545332.2704   24545340.7684
       197.0004        136.0004
  22170046.9114  -15742039.06849 -12251208.68247  22170046.8264   22170053.1364
       232.0004        191.0004
  22416778.3304  -12762695.01149  -9737095.39846  22416778.8074   22416783.8864
       226.0004        179.0004
  21568743.9144  -18777602.82549 -14371718.18747  21568744.0994   21568748.8404
       240.0004        203.0004
  24101757.4284   -5442668.68349  -4050905.60445  24101757.4904   24101764.9184
       210.0004        153.0004
  20791667.9934  -23070886.61549 -17968207.87547  20791667.4784   20791672.4344
       242.0004        211.0004
  22855696.0064  -12187290.30549  -9245137.96346  22855696.3714   22855702.4064
       227.0004        171.0004
  22002767.3984  -19816113.45149 -15233153.30047  22002766.8024   22002769.4154
       232.0004        192.0004
 06  5 10  0  6 30.0000000  0  8G13G 1G16G25G24G20G11G23
  24531962.3404   -3913185.03249  -2876068.76945  24531961.4664   24531968.8434
       201.0004        135.0004
  22178779.1144  -15696150.78049 -12215451.59847  22178778.7014   22178785.1524
       232.0004        189.0004
  22403451.5924  -12832727.45449  -9791666.07146  22403450.3944   22403457.1044
       226.0004        178.0004
  21581509.8384  -18710517.76549 -14319444.12647  21581510.0124   21581514.5164
       239.0004        202.0004
  24092046.4704   -5493700.72949  -4090670.78945  24092046.6434   24092054.0224
       212.0004        154.0004
  20781733.6664  -23123091.40349 -18008886.92247  20781733.1954   20781738.0054
       242.0004        211.0004
  22868716.3254  -12118868.89049  -9191822.63146  22868716.7174   22868721.5174
       228.0004        171.0004
  21993090.5824  -19866964.34449 -15272777.34347  21993090.0114   21993092.1804
       232.0004        192.0004
 06  5 10  0  7  0.0000000  0  8G13G 1G16G25G24G20G11G23
  24518598.9764   -3983408.33049  -2930788.11345  24518599.7474   24518606.3294
       202.0004        135.0004
  22187525.5684  -15650187.73049 -12179636.24747  22187525.8954   22187531.1464
       232.0004        189.0004
  22390187.6404  -12902429.01249  -9845978.91646  22390187.0064   22390193.1164
       226.0004        178.0004
  21594322.3834  -18643187.36949 -14266978.88747  21594322.6024   21594327.0734
       239.0004        202.0004
  24082420.2774   -5544286.40449  -4130088.18345  24082419.3184   24082426.9674
       210.0004        154.0004
  20771872.3884  -23174912.27749 -18049266.81147  20771871.8524   20771876.6884
       241.0004        211.0004
  22881778.8434  -12050226.39449  -9138335.03946  22881778.9444   22881784.2154
       227.0004        171.0004
  21983434.9414  -19917704.69149 -15312315.25347  21983435.2244   21983437.0894
       233.0004        193.0004
 06  5 10  0  7 30.0000000  0  8G13G 1G16G25G24G20G11G23
  24505243.5284   -4053591.24549  -2985476.01645  24505245.1624   24505251.7014
       206.0004        137.0004
  22196286.2564  -15604150.23349 -12143762.88847  22196286.4914   22196292.1894
       231.0004        189.0004
  22376987.2944  -12971797.06749  -9900031.89946  22376987.8944   22376992.8624
       228.0004        180.0004
  21607181.1124  -18575614.40149 -14214324.63947  21607181.2404   21607185.5964
       239.0004        201.0004
  24072879.2004   -5594424.76249  -4169157.00445  24072878.7834   24072886.7024
       208.0004        154.0004
  20762084.6104  -23226347.21549 -18089345.97347  20762084.1984   20762088.8544
       241.0004        211.0004
  22894882.6164  -11981366.20549  -9084677.78946  22894882.4834   22894888.4124
       226.0004        170.0004
  21973800.3984  -19968335.07849 -15351767.47247  21973800.4644   21973803.2184
       234.0004        194.0004
 06  5 10  0  8  0.0000000  0  8G13G 1G16G25G24G20G11G23
  24491895.9504   -4123735.24049  -3040133.57745  24491896.1834   24491903.5424
       211.0004        141.0004
  22205061.0034  -15558039.19849 -12107832.23047  22205060.9364   22205066.7484
       231.0004        189.0004
  22363851.0104  -13040829.55149  -9953823.38846  22363850.8084   22363856.5704
       227.0004        181.0004
  21620085.3084  -18507802.03949 -14161483.85047  21620085.4464   21620089.9664
       239.0004        201.0004
  24063423.2044   -5644115.25749  -4207876.82745  24063422.5194   24063430.4224
       207.0004        153.0004
  20752370.3814  -23277395.70849 -18129124.00447  20752370.0534   20752374.8354
       242.0004        211.0004
  22908027.0114  -11912291.82449  -9030853.64946  22908026.7934   22908032.7894
       225.0004        169.0004
  21964186.5274  -20018856.50949 -15391134.78747  21964186.5104   21964188.6994
       233.0004        194.0004
 06  5 10  0  8 30.0000000  0  8G13G 1G16G25G24G20G11G23
  24478555.5624   -4193839.03949  -3094759.85745  24478556.2884   24478562.6904
       215.0004        143.0004
  22213849.8074  -15511853.34849 -12071843.28147  22213850.1324   22213856.0264
       231.0004        188.0004
  22350779.1724  -13109522.49649 -10007350.30446  22350779.2284   22350784.6354
       227.0004        181.0004
  21633034.9564  -18439751.20149 -14108457.23747  21633035.3114   21633039.8504
       239.0004        201.0004
  24054053.0254   -5693355.36349  -4246245.71345  24054053.6454   24054061.1904
       211.0004        154.0004
  20742730.5384  -23328053.44549 -18168597.56347  20742730.2874   20742735.0424
       242.0004        212.0004
  22921211.8094  -11843004.76749  -8976863.80046  22921210.9764   22921217.0724
       224.0004        168.0004
  21954593.7044  -20069267.35349 -15430415.94247  21954593.4514   21954595.5104
       233.0004        194.0004
 06  5 10  0  9  0.0000000  0  8G13G 1G16G25G24G20G11G23
  24465223.0614   -4263903.27349  -3149355.32045  24465223.7084   24465229.9644
       211.0004        143.0004
  22222652.8774  -15465593.03749 -12035796.30247  22222652.5784   22222658.4774
       231.0004        188.0004
  22337772.3994  -13177873.22449 -10060610.55546  22337772.0424   22337778.0114
       226.0004        181.0004
  21646029.4484  -18371464.51049 -14055246.84347  21646029.4264   21646034.5704
       239.0004        201.0004
  24044768.9144   -5742144.42949  -4284263.14545  24044769.3734   24044775.8164
       209.0004        155.0004
  20733165.3514  -23378318.83249 -18207765.38747  20733164.9894   20733169.8484
       241.0004        212.0004
  22934436.4224  -11773508.31349  -8922710.79046  22934435.9904   22934441.4844
       225.0004        168.0004
  21945021.7934  -20119567.84549 -15469611.09847  21945021.2884   21945024.1494
       234.0004        194.0004
 06  5 10  0  9 30.0000000  0  8G13G 1G16G25G24G20G11G23
  24451897.6544   -4333928.36849  -3203920.28245  24451898.4434   24451904.1394
       212.0004        142.0004
  22231470.0274  -15419258.22949 -11999691.27546  22231469.7144   22231475.8754
       232.0004        187.0004
  22324831.2834  -13245878.70449 -10113601.78246  22324831.4414   22324837.2594
       229.0004        182.0004
  21659068.4034  -18302944.22649 -14001854.42547  21659068.5094   21659073.9084
       238.0004        201.0004
  24035570.9854   -5790480.77749  -4321927.80545  24035571.8304   24035578.8394
       213.0004        157.0004
  20723675.1384  -23428190.02349 -18246626.04547  20723674.6094   20723679.6694
       241.0004        212.0004
  22947700.5454  -11703805.02949  -8868396.57946  22947700.9074   22947706.7544
       223.0004        169.0004
  21935470.8134  -20169758.58149 -15508720.73447  21935470.3204   21935472.8384
       233.0004        194.0004
 06  5 10  0 10  0.0000000  0  8G13G 1G16G25G24G20G11G23
  24438579.8344   -4403914.59449  -3258454.94745  24438579.5034   24438586.6454
       210.0004        140.0004
  22240301.4514  -15372848.95849 -11963528.22146  22240301.8094   22240307.0984
       233.0004        187.0004
  22311956.5444  -13313536.28949 -10166321.93746  22311956.7344   22311961.4534
       229.0004        183.0004
  21672151.4074  -18234192.61649 -13948281.76347  21672151.7224   21672156.6624
       238.0004        201.0004
  24026459.4074   -5838363.31749  -4359238.85345  24026460.2684   24026466.1404
       214.0004        157.0004
  20714260.4014  -23477664.62149 -18285177.67447  20714259.9864   20714264.6884
       242.0004        212.0004
  22961003.3104  -11633897.87649  -8813923.53546  22961004.1084   22961009.6004
       225.0004        169.0004
  21925940.6754  -20219839.49749 -15547744.79747  21925940.2174   21925942.6994
       233.0004        194.0004
 06  5 10  0 10 30.0000000  0  8G13G 1G16G25G24G20G11G23
  24425269.3904   -4473862.17149  -3312959.49145  24425269.4384   24425275.1484
       205.0004        138.0004
  22249146.9744  -15326365.30449 -11927307.19346  22249147.1864   22249152.1064
       232.0004        187.0004
  22299148.4064  -13380843.01349 -10218768.67746  22299148.2814   22299154.1434
       227.0004        183.0004
  21685277.9694  -18165212.21449 -13894530.81447  21685278.4644   21685283.3374
       238.0004        201.0004
  24017434.5624   -5885791.02149  -4396195.48845  24017434.1764   24017441.1404
       214.0004        157.0004
  20704921.6034  -23526740.37649 -18323418.51947  20704921.2114   20704926.0694
       242.0004        212.0004
  22974344.6124  -11563789.74449  -8759293.89146  22974344.5424   22974350.6864
       226.0004        169.0004
  21916431.4344  -20269810.17549 -15586682.96647  21916431.0414   21916433.4574
       233.0004        194.0004
 06  5 10  0 11  0.0000000  0  8G13G 1G16G25G24G20G11G23
  24411966.3234   -4543770.91349  -3367433.74145  24411965.0984   24411972.4994
       204.0004        135.0004
  22258006.9134  -15279806.30749 -11891027.46446  22258007.2824   22258012.8354
       232.0004        187.0004
  22286407.7984  -13447795.31949 -10270939.23746  22286407.4914   22286412.3454
       228.0004        181.0004
  21698447.8734  -18096004.27749 -13840602.56347  21698448.4674   21698452.8984
       238.0004        201.0004
  24008496.2004   -5932761.85149  -4432796.11245  24008495.2354   24008504.4784
       211.0004        156.0004
  20695659.1934  -23575414.92349 -18361346.72747  20695658.9134   20695663.6104
       242.0004        212.0004
  22987723.6004  -11493482.51449  -8704509.09046  22987723.4104   22987729.6284
       224.0004        168.0004
  21906943.2694  -20319670.27549 -15625534.96547  21906943.1494   21906945.9214
       232.0004        194.0004
 06  5 10  0 11 30.0000000  0  8G13G 1G16G25G24G20G11G23
  24398670.1404   -4613640.50449  -3421877.46745  24398669.7524   24398675.9914
       200.0004        135.0004
  22266881.2564  -15233171.62849 -11854688.78047  22266880.9294   22266886.6944
       232.0004        188.0004
  22273735.2274  -13514390.02249 -10322831.16846  22273734.8444   22273740.0174
       228.0004        181.0004
  21711660.6934  -18026570.74449 -13786498.53347  21711660.8604   21711665.7564
       238.0004        200.0004
  23999644.9454   -5979274.05249  -4469039.35745  23999644.2524   23999652.8854
       211.0004        155.0004
  20686473.6884  -23623685.38049 -18398960.06347  20686473.4524   20686478.3144
       242.0004        212.0004
  23001140.1514  -11422978.65749  -8649571.07946  23001141.0714   23001146.2004
       225.0004        167.0004
  21897476.3204  -20369419.19449 -15664300.32547  21897476.1834   21897478.9324
       234.0004        194.0004
 06  5 10  0 12  0.0000000  0  8G13G 1G16G25G24G20G11G23
  24385381.6444   -4683471.80149  -3476291.38245  24385382.6214   24385388.2124
       210.0004        137.0004
  22275769.9034  -15186461.82549 -11818291.54146  22275770.4054   22275775.2924
       232.0004        187.0004
  22261131.0944  -13580624.54849 -10374442.43846  22261130.7604   22261137.0204
       227.0004        182.0004
  21724915.9484  -17956914.32049 -13732220.81547  21724916.1244   21724920.6674
       238.0004        200.0004
  23990881.4404   -6025326.81549  -4504924.61545  23990881.6184   23990888.4424
       213.0004        155.0004
  20677365.3234  -23671550.36749 -18436257.44848  20677365.1584   20677369.9284
       242.0004        213.0004
  23014593.4274  -11352281.62849  -8594482.55446  23014594.4984   23014599.5854
       225.0004        167.0004
  21888030.3594  -20419057.72149 -15702979.67447  21888030.1124   21888032.7654
       234.0004        194.0004
 06  5 10  0 12 30.0000000  0  8G13G 1G16G25G24G20G11G23
  24372100.5394   -4753265.44649  -3530675.95145  24372101.2754   24372107.0144
       212.0004        138.0004
  22284672.7034  -15139677.21249 -11781836.01546  22284672.1134   22284679.1074
       230.0004        187.0004
  22248595.8814  -13646496.69449 -10425771.31246  22248595.2984   22248601.4594
       227.0004        181.0004
  21738213.0174  -17887037.86549 -13677771.63947  21738213.1184   21738217.8774
       237.0004        200.0004
  23982205.5684   -6070919.62149  -4540451.45845  23982205.6844   23982212.5764
       214.0004        155.0004
  20668334.4364  -23719008.05149 -18473237.45348  20668333.9704   20668338.6304
       242.0004        213.0004
  23028082.8774  -11281394.43749  -8539245.83646  23028082.8204   23028089.7014
       221.0004        167.0004
  21878605.4464  -20468586.30349 -15741573.35247  21878605.3874   21878607.3814
       235.0004        195.0004
 06  5 10  0 13  0.0000000  0  8G13G 1G16G25G24G20G11G23
  24358826.3404   -4823021.19749  -3585031.02545  24358826.3454   24358831.9804
       210.0004        139.0004
  22293589.8224  -15092817.06149 -11745321.63446  22293590.3994   22293596.1634
       232.0004        187.0004
  22236130.3834  -13712003.02749 -10476815.15446  22236130.6774   22236136.0794
       229.0004        183.0004
  21751551.5564  -17816942.94849 -13623152.24947  21751551.4844   21751556.8734
       236.0004        200.0004
  23973617.4224   -6116050.53049  -4575618.36745  23973617.5904   23973623.4644
       214.0004        155.0004
  20659381.5554  -23766055.59449 -18509897.87248  20659381.2984   20659386.0554
       242.0004        213.0004
  23041607.8684  -11210319.54749  -8483862.88346  23041608.1074   23041613.6294
       223.0004        167.0004
  21869201.5734  -20518004.41049 -15780080.94747  21869201.6174   21869203.6784
       234.0004        195.0004
 06  5 10  0 13 30.0000000  0  8G13G 1G16G25G24G20G11G23
  24345559.2754   -4892739.71049  -3639357.08545  24345559.9904   24345565.1344
       213.0004        137.0004
  22302521.3474  -15045881.79349 -11708748.70446  22302521.2464   22302527.3214
       231.0004        187.0004
  22223735.0664  -13777141.24249 -10527572.14946  22223735.1884   22223740.5974
       229.0004        184.0004
  21764931.2684  -17746632.21849 -13568364.67647  21764931.2524   21764936.3874
       236.0004        200.0004
  23965117.2164   -6160719.00849  -4610424.96045  23965116.8554   23965123.8464
       213.0004        155.0004
  20650507.0344  -23812691.69349 -18546237.67848  20650506.5724   20650511.2674
       242.0004        213.0004
  23055168.2334  -11139059.88249  -8428335.92346  23055168.6794   23055174.7414
       223.0004        167.0004
  21859818.5934  -20567312.29449 -15818502.65047  21859818.1134   21859820.8714
       234.0004        195.0004
 06  5 10  0 14  0.0000000  0  8G13G 1G16G25G24G20G11G23
  24332299.3094   -4962421.03449  -3693654.17245  24332299.0904   24332304.1614
       211.0004        136.0004
  22311467.1744  -14998871.23049 -11672117.11246  22311466.3934   22311473.2594
       229.0004        186.0004
  22211410.2974  -13841908.29249 -10578039.92346  22211410.3914   22211415.6974
       230.0004        185.0004
  21778351.5034  -17676107.74349 -13513410.55547  21778351.5814   21778356.7724
       236.0004        199.0004
  23956705.2894   -6204923.58049  -4644870.07445  23956704.8284   23956712.8154
       213.0004        155.0004
  20641711.2214  -23858913.84049 -18582254.92948  20641710.7814   20641715.5904
       242.0004        213.0004
  23068763.0014  -11067618.75649  -8372667.57246  23068764.4474   23068769.0104
       225.0004        167.0004
  21850456.6444  -20616509.31749 -15856837.97747  21850456.6144   21850459.3074
       233.0004        195.0004
 06  5 10  0 14 30.0000000  0  8G13G 1G16G25G24G20G11G23
  24319046.3964   -5032065.32749  -3747922.40945  24319045.4754   24319053.0884
       213.0004        137.0004
  22320427.2654  -14951784.91149 -11635426.50246  22320427.4604   22320433.5734
       229.0004        186.0004
  22199156.7534  -13906301.19549 -10628216.15446  22199156.1044   22199161.6384
       229.0004        184.0004
  21791812.0794  -17605371.55349 -13458291.46247  21791812.0524   21791817.1584
       235.0004        198.0004
  23948381.8994   -6248663.05549  -4678952.75145  23948381.3914   23948388.2664
       213.0004        155.0004
  20632994.5394  -23904720.18649 -18617948.17948  20632994.3154   20632999.0254
       242.0004        213.0004
  23082392.1284  -10995998.12749  -8316859.35046  23082392.5924   23082397.9194
       224.0004        167.0004
  21841115.7674  -20665595.56849 -15895086.97947  21841115.5604   21841117.9324
       234.0004        196.0004
 06  5 10  0 15  0.0000000  0  8G13G 1G16G25G24G20G11G23
  24305800.3064   -5101672.97649  -3802162.08245  24305801.3944   24305806.1864
       212.0004        140.0004
  22329401.9294  -14904622.92949 -11598676.93046  22329402.0174   22329408.5064
       228.0004        185.0004
  22186974.7784  -13970317.10449 -10678098.63146  22186974.2774   22186979.9484
       228.0004        183.0004
  21805312.5234  -17534425.90649 -13403009.15147  21805312.7264   21805317.5884
       236.0004        198.0004
  23940147.0024   -6291936.53249  -4712672.34945  23940147.3814   23940155.0114
       216.0004        155.0004
  20624357.5184  -23950108.17649 -18653315.43648  20624357.2654   20624361.8214
       242.0004        213.0004
  23096054.7124  -10924201.02949  -8260913.63046  23096053.8354   23096061.8064
       225.0004        167.0004
  21831796.0624  -20714571.15049 -15933249.75047  21831796.0024   21831798.6714
       234.0004        197.0004
 06  5 10  0 15 30.0000000  0  8G13G 1G16G25G24G20G11G23
  24292561.3074   -5171243.94849  -3856373.13945  24292561.1204   24292566.8834
       211.0004        142.0004
  22338391.0634  -14857384.88249 -11561868.08146  22338391.3534   22338397.2904
       230.0004        186.0004
  22174865.1804  -14033953.24749 -10727685.18546  22174864.4014   22174869.9874
       229.0004        184.0004
  21818852.5054  -17463272.86949 -13347565.23947  21818853.3024   21818857.9944
       237.0004        199.0004
  23932001.6204   -6334742.46549  -4746027.61045  23932002.3204   23932008.7444
       217.0004        156.0004
  20615800.5244  -23995075.49349 -18688354.89748  20615800.1994   20615805.2244
       241.0004        213.0004
  23109750.3004  -10852230.19649  -8204832.52846  23109751.1424   23109756.4274
       225.0004        166.0004
  21822497.4714  -20763435.78349 -15971326.06847  21822497.2504   21822499.7364
       234.0004        197.0004
 06  5 10  0 16  0.0000000  0  8G13G 1G16G25G24G20G11G23
  24279328.9554   -5240779.24449  -3910556.38545  24279329.2704   24279335.5594
       210.0004        142.0004
  22347394.5244  -14810071.32349 -11525000.39746  22347394.7214   22347400.3854
       229.0004        186.0004
  22162828.2634  -14097207.26449 -10776973.97446  22162828.0634   22162833.1694
       229.0004        183.0004
  21832431.5774  -17391915.20549 -13291961.87247  21832432.0124   21832436.8944
       238.0004        200.0004
  23923944.9544   -6377080.50449  -4779018.28345  23923944.9784   23923951.3154
       214.0004        156.0004
  20607323.8554  -24039620.71949 -18723065.45348  20607323.3274   20607328.1354
       241.0004        213.0004
  23123478.6214  -10780088.76449  -8148618.49446  23123479.8984   23123485.3994
       224.0004        166.0004
  21813219.8194  -20812190.05249 -16009316.38247  21813219.7824   21813222.0914
       235.0004        197.0004
 06  5 10  0 16 30.0000000  0  8G13G 1G16G25G24G20G11G23
  24266103.6904   -5310277.78849  -3964711.00745  24266104.5554   24266109.5484
       210.0004        143.0004
  22356412.5104  -14762681.37849 -11488073.18946  22356412.1484   22356418.5334
       230.0004        186.0004
  22150864.8734  -14160075.55549 -10825962.20146  22150864.7854   22150870.1964
       230.0004        184.0004
  21846049.3484  -17320354.22249 -13236200.07847  21846049.4854   21846054.4674
       237.0004        199.0004
  23915977.5554   -6418948.57149  -4811642.72245  23915977.1844   23915984.4624
       214.0004        156.0004
  20598927.9524  -24083741.27249 -18757445.09648  20598927.6394   20598932.2194
       242.0004        213.0004
  23137238.9594  -10707778.24849  -8092272.72246  23137239.7424   23137245.2444
       223.0004        166.0004
  21803963.5224  -20860832.79849 -16047219.79847  21803963.1504   21803965.5404
       234.0004        196.0004
 06  5 10  0 17  0.0000000  0  8G13G 1G16G25G24G20G11G23
  24252885.5704   -5379740.50049  -4018837.71245  24252885.5974   24252892.5184
       210.0004        144.0004
  22365445.0374  -14715215.29849 -11451086.64546  22365444.8354   22365450.8314
       230.0004        186.0004
  22138975.2254  -14222555.89649 -10874648.12146  22138975.1664   22138980.3154
       229.0004        185.0004
  21859705.2244  -17248592.57649 -13180281.91947  21859705.4214   21859710.5594
       237.0004        198.0004
  23908099.7484   -6460346.30049  -4843900.68045  23908099.4774   23908106.4324
       215.0004        156.0004
  20590613.3234  -24127435.30449 -18791492.39148  20590613.0754   20590617.6664
       242.0004        214.0004
  23151030.6984  -10635302.58749  -8035798.23146  23151030.1354   23151036.5494
       222.0004        166.0004
  21794728.2524  -20909364.65549 -16085036.80947  21794727.5344   21794730.0494
       235.0004        196.0004
 06  5 10  0 17 30.0000000  0  8G13G 1G16G25G24G20G11G23
  24239674.0374   -5449167.64949  -4072936.69445  24239674.0734   24239681.4794
       207.0004        144.0004
  22374492.0734  -14667672.77749 -11414040.54846  22374492.3914   22374497.9184
       231.0004        186.0004
  22127159.9104  -14284645.22949 -10923029.37046  22127160.1064   22127165.2834
       230.0004        185.0004
  21873398.7434  -17176632.41449 -13124209.08547  21873398.8914   21873403.6964
       236.0004        198.0004
  23900311.7564   -6501272.51249  -4875791.22045  23900311.4994   23900318.9444
       217.0004        157.0004
  20582380.1674  -24170700.78749 -18825205.75148  20582379.6654   20582384.3954
       242.0004        214.0004
  23164853.1914  -10562664.41549  -7979197.13946  23164853.0864   23164858.3124
       222.0004        166.0004
  21785514.0624  -20957785.33049 -16122767.18947  21785513.6534   21785515.6384
       235.0004        197.0004
 06  5 10  0 18  0.0000000  0  8G13G 1G16G25G24G20G11G23
  24226468.9024   -5518559.58949  -4127008.23145  24226467.6454   24226476.9244
       203.0004        143.0004
  22383553.8224  -14620053.80649 -11376934.86646  22383554.2784   22383559.4214
       232.0004        186.0004
  22115419.5564  -14346340.98949 -10971103.94246  22115419.3944   22115424.4764
       231.0004        184.0004
  21887129.6044  -17104475.89649 -13067983.24147  21887129.7454   21887134.5684
       236.0004        198.0004
  23892613.5834   -6541726.16449  -4907313.54145  23892613.9684   23892620.1244
       217.0004        158.0004
  20574228.9314  -24213535.70949 -18858583.61048  20574228.4284   20574233.3884
       242.0004        214.0004
  23178706.2584  -10489866.73849  -7922471.74946  23178706.2264   23178712.0704
       221.0004        165.0004
  21776321.0674  -21006094.89449 -16160410.97747  21776320.5774   21776323.0534
       235.0004        197.0004
 06  5 10  0 18 30.0000000  0  8G13G 1G16G25G24G20G11G23
  24213270.4514   -5587916.27549  -4181052.30045  24213270.3624   24213277.7484
       199.0004        141.0004
  22392630.0964  -14572358.21749 -11339769.49146  22392629.4154   22392635.6454
       230.0004        186.0004
  22103754.7144  -14407640.60149 -11018869.83046  22103755.2494   22103759.9534
       233.0004        187.0004
  21900897.4874  -17032125.24249 -13011606.11647  21900897.6544   21900902.5664
       236.0004        197.0004
  23885005.7204   -6581706.30749  -4938466.89545  23885006.5844   23885013.1014
       218.0004        159.0004
  20566160.0454  -24255937.88749 -18891624.25848  20566159.6044   20566164.4814
       242.0004        214.0004
  23192589.1824  -10416912.04549  -7865623.99946  23192588.8354   23192595.4234
       222.0004        164.0004
  21767149.1284  -21054293.13449 -16197968.02347  21767148.8464   21767151.2444
       235.0004        197.0004
 06  5 10  0 19  0.0000000  0  8G13G 1G16G25G24G20G11G23
  24200078.5964   -5657238.06449  -4235069.15745  24200077.5754   24200085.5704
       200.0004        139.0004
  22401720.8604  -14524585.80149 -11302544.26346  22401720.8314   22401726.3994
       230.0004        185.0004
  22092165.7994  -14468541.13149 -11066324.74246  22092165.7524   22092170.4664
       231.0004        187.0004
  21914701.8984  -16959582.48149 -12955079.29647  21914702.2874   21914706.8494
       235.0004        196.0004
  23877488.2274   -6621211.86549  -4969250.44145  23877488.0294   23877494.6684
       217.0004        160.0004
  20558173.7854  -24297905.50449 -18924326.29348  20558173.3734   20558178.0084
       241.0004        213.0004
  23206501.3864  -10343803.23949  -7808656.17446  23206501.8734   23206508.0904
       222.0004        164.0004
  21757998.5094  -21102379.68649 -16235438.04047  21757998.4914   21758000.4284
       235.0004        198.0004
 06  5 10  0 19 30.0000000  0  8G13G 1G16G25G24G20G11G23
  24186893.2394   -5726524.79549  -4289058.68445  24186892.6134   24186901.1064
       201.0004        138.0004
  22410826.3944  -14476736.17049 -11265258.85346  22410826.2184   22410832.0104
       230.0004        184.0004
  22080653.2874  -14529039.60849 -11113466.36646  22080653.1524   22080657.7294
       231.0004        186.0004
  21928542.4494  -16886849.61349 -12898404.34447  21928542.4464   21928547.3484
       236.0004        197.0004
  23870060.9434   -6660241.66649  -4999663.25145  23870061.0614   23870068.5434
       219.0004        161.0004
  20550270.7604  -24339435.95349 -18956687.67548  20550270.0944   20550274.9624
       241.0004        213.0004
  23220442.4084  -10270542.60349  -7751570.03346  23220442.0724   23220448.3264
       219.0004        164.0004
  21748869.1934  -21150354.62849 -16272821.08547  21748869.0014   21748871.0634
       235.0004        198.0004
 06  5 10  0 20  0.0000000  0  8G13G 1G16G25G24G20G11G23
  24173715.0404   -5795777.16149  -4343021.46645  24173715.5054   24173723.5694
       208.0004        140.0004
  22419946.6734  -14428809.24649 -11227913.21246  22419946.3244   22419951.8584
       229.0004        183.0004
  22069217.7524  -14589133.47349 -11160292.72146  22069217.6894   22069222.7334
       233.0004        186.0004
  21942418.8334  -16813928.91949 -12841583.04347  21942419.3894   21942424.0024
       236.0004        197.0004
  23862724.5194   -6698794.88049  -5029704.70145  23862724.7494   23862732.2354
       219.0004        161.0004
  20542451.2424  -24380527.70249 -18988707.21448  20542450.5474   20542455.6284
       241.0004        213.0004
  23234411.7364  -10197133.07149  -7694367.86946  23234412.0714   23234418.0404
       222.0004        164.0004
  21739761.0334  -21198217.60749 -16310116.88547  21739760.5574   21739763.3494
       234.0004        198.0004
 06  5 10  0 20 30.0000000  0  8G13G 1G16G25G24G20G11G23
  24160543.3894   -5864995.61649  -4396957.85345  24160544.6334   24160550.3804
       211.0004        143.0004
  22429081.3544  -14380805.53649 -11190507.75446  22429081.2404   22429086.8594
       228.0004        183.0004
  22057859.6474  -14648820.91149 -11206802.36046  22057859.6024   22057865.1744
       232.0004        187.0004
  21956330.4324  -16740823.19849 -12784617.56547  21956330.6294   21956335.4834
       236.0004        197.0004
  23855478.9774   -6736871.08049  -5059374.44845  23855478.8564   23855486.7844
       219.0004        161.0004
  20534715.3674  -24421179.15449 -19020383.68048  20534715.0034   20534719.9254
       241.0004        213.0004
  23248408.8004  -10123578.66149  -7637052.82646  23248407.9724   23248414.5914
       220.0004        163.0004
  21730674.1304  -21245969.30349 -16347325.96947  21730673.5184   21730676.5174
       234.0004        197.0004
 06  5 10  0 21  0.0000000  0  8G13G 1G16G25G24G20G11G23
  24147378.1904   -5934179.87049  -4450867.57745  24147379.0974   24147384.6844
       211.0004        144.0004
  22438230.8844  -14332724.24349 -11153041.83746  22438230.2764   22438236.4944
       228.0004        182.0004
  22046579.4074  -14708098.17949 -11252992.40947  22046578.8914   22046585.0064
       231.0004        188.0004
  21970276.9184  -16667533.81149 -12727508.97447  21970277.0044   21970282.1714
       235.0004        196.0004
  23848324.3454   -6774469.08749  -5088671.60845  23848323.3794   23848331.3464
       218.0004        161.0004
  20527063.9654  -24461387.77449 -19051715.05948  20527063.7004   20527068.2254
       241.0004        213.0004
  23262433.0284  -10049881.08549  -7579626.22145  23262433.5524   23262439.6974
       221.0004        162.0004
  21721608.4434  -21293608.95549 -16384447.74547  21721608.1544   21721611.4264
       233.0004        197.0004
 06  5 10  0 21 30.0000000  0  8G13G 1G16G25G24G20G11G23
  24134219.4114   -6003329.72049  -4504750.48745  24134220.6674   24134226.0964
       211.0004        143.0004
  22447395.3744  -14284564.73649 -11115514.95446  22447395.4124   22447401.1284
       229.0004        181.0004
  22035377.7174  -14766962.63949 -11298860.76246  22035376.9964   22035382.4644
       231.0004        187.0004
  21984257.9554  -16594062.79249 -12670258.84847  21984258.1254   21984263.2014
       234.0004        196.0004
  23841260.8574   -6811587.45649  -5117595.00245  23841261.1384   23841267.6354
       216.0004        161.0004
  20519497.3144  -24501151.11549 -19082699.47348  20519496.8784   20519501.6284
       241.0004        213.0004
  23276484.0624   -9976042.48449  -7522089.72345  23276484.6754   23276490.6654
       219.0004        162.0004
  21712564.3184  -21341136.10249 -16421481.86347  21712564.3154   21712566.6244
       234.0004        198.0004
 06  5 10  0 22  0.0000000  0  8G13G 1G16G25G24G20G11G23
  24121067.0874   -6072446.60049  -4558607.72745  24121067.3634   24121073.4284
       209.0004        143.0004
  22456574.6084  -14236327.80449 -11077927.75846  22456574.2174   22456581.1994
       227.0004        181.0004
  22024255.0884  -14825412.53149 -11344406.10646  22024255.0264   22024259.5974
       232.0004        187.0004
  21998272.9934  -16520413.13949 -12612869.52847  21998272.8234   21998278.3694
       234.0004        195.0004
  23834288.5544   -6848226.34649  -5146144.76845  23834287.7564   23834295.4154
       215.0004        161.0004
  20512015.4584  -24540468.27649 -19113336.21848  20512015.1974   20512019.8754
       241.0004        213.0004
  23290561.2884   -9902066.81849  -7464446.42245  23290560.5904   23290567.8704
       220.0004        162.0004
  21703541.4904  -21388551.48549 -16458428.89547  21703541.3714   21703543.8314
       234.0004        198.0004
 06  5 10  0 22 30.0000000  0  8G13G 1G16G25G24G20G11G23
  24107921.1924   -6141528.28649  -4612437.52045  24107921.9134   24107927.5374
       209.0004        143.0004
  22465768.9324  -14188011.06149 -11040278.38646  22465768.7924   22465774.5344
       227.0004        181.0004
  22013212.3044  -14883442.90049 -11389624.52547  22013212.0804   22013217.7494
       232.0004        188.0004
  22012322.0754  -16446584.80949 -12555340.97947  22012322.1164   22012327.0584
       235.0004        194.0004
  23827407.9854   -6884382.55049  -5174318.41145  23827408.4784   23827415.5344
       216.0004        161.0004
  20504619.3824  -24579335.02949 -19143621.99348  20504618.7784   20504623.7824
       240.0004        213.0004
  23304664.4144   -9827954.78749  -7406696.88345  23304665.1064   23304670.4024
       221.0004        162.0004
  21694540.3194  -21435852.92049 -16495287.12947  21694540.3424   21694542.4884
       235.0004        198.0004
 06  5 10  0 23  0.0000000  0  8G13G 1G16G25G24G20G11G23
  24094781.5224   -6210577.77849  -4666242.24645  24094782.2194   24094788.6054
       211.0004        143.0004
  22474978.0644  -14139617.05649 -11002568.79746  22474977.4574   22474983.8704
       228.0004        180.0004
  22002249.3034  -14941054.03949 -11434516.29047  22002249.4204   22002253.5894
       232.0004        188.0004
  22026404.3064  -16372582.42449 -12497676.79547  22026404.5374   22026409.6254
       235.0004        194.0004
  23820619.2054   -6920057.94349  -5202117.40445  23820619.9484   23820626.9104
       217.0004        161.0004
  20497308.7874  -24617752.16149 -19173557.41348  20497308.4894   20497313.2054
       241.0004        213.0004
  23318792.5784   -9753711.67449  -7348845.19245  23318792.8564   23318798.9134
       220.0004        162.0004
  21685560.5234  -21483042.59449 -16532058.28047  21685560.6594   21685562.6974
       236.0004        198.0004
 06  5 10  0 23 30.0000000  0  8G13G 1G16G25G24G20G11G23
  24081648.1784   -6279593.77749  -4720020.86945  24081648.3724   24081655.2594
       210.0004        143.0004
  22484202.2164  -14091144.08549 -10964797.67046  22484202.1614   22484208.2834
       228.0004        181.0004
  21991366.9294  -14998241.46049 -11479077.88646  21991366.1144   21991371.4244
       231.0004        187.0004
  22040519.5164  -16298406.77149 -12439877.60047  22040519.9064   22040524.7924
       235.0004        194.0004
  23813922.3664   -6955250.39249  -5229540.08545  23813922.2254   23813929.6224
       216.0004        160.0004
  20490084.4934  -24655716.16749 -19203139.74548  20490084.3004   20490088.7034
       241.0004        213.0004
  23332945.3394   -9679338.99549  -7290892.54145  23332945.3684   23332952.0834
       220.0004        161.0004
  21676602.2434  -21530119.19149 -16568741.31247  21676601.7514   21676604.0854
       236.0004        199.0004
 06  5 10  0 24  0.0000000  0  8G13G 1G16G25G24G20G11G23
  24068520.9464   -6348576.71749  -4773773.76845  24068520.8204   24068525.7674
       208.0004        142.0004
  22493441.3474  -14042592.24549 -10926965.09346  22493441.3154   22493447.4234
       230.0004        182.0004
  21980565.3184  -15055003.31549 -11523307.84946  21980564.9524   21980570.2444
       232.0004        187.0004
  22054667.2824  -16224060.22549 -12381945.24247  22054667.6814   22054672.6884
       235.0004        194.0004
  23807317.4054   -6989959.41649  -5256586.07545  23807317.3774   23807324.9704
       218.0004        160.0004
  20482946.6674  -24693225.68349 -19232367.93548  20482946.2714   20482951.1214
       241.0004        214.0004
  23347121.9974   -9604839.88449  -7232841.37545  23347122.2844   23347128.2474
       220.0004        161.0004
  21667665.3184  -21577082.74049 -16605336.26747  21667665.1484   21667667.5384
       235.0004        198.0004
 06  5 10  0 24 30.0000000  0  8G13G 1G16G25G24G20G11G23
  24055400.2624   -6417526.98249  -4827501.16845  24055400.7034   24055405.5264
       208.0004        140.0004
  22502695.5364  -13993961.41449 -10889070.96146  22502695.2484   22502701.4594
       230.0004        183.0004
  21969845.3124  -15111337.25349 -11567204.39947  21969845.0334   21969849.5584
       232.0004        188.0004
  22068847.1424  -16149545.21249 -12323881.61847  22068847.3554   22068852.5164
       235.0004        195.0004
  23800804.6944   -7024184.38449  -5283254.86545  23800804.5364   23800812.2394
       218.0004        160.0004
  20475895.7504  -24730278.81949 -19261240.50048  20475895.6624   20475900.2534
       242.0004        214.0004
  23361322.2294   -9530217.31849  -7174694.00745  23361321.5644   23361328.3584
       218.0004        160.0004
  21658749.8774  -21623933.12149 -16641843.03947  21658749.6504   21658752.0314
       235.0004        198.0004
 06  5 10  0 25  0.0000000  0  8G13G 1G16G25G24G20G11G23
  24042285.7684   -6486444.40449  -4881202.95945  24042285.5324   24042290.5044
       207.0004        140.0004
  22511964.9174  -13945251.22949 -10851114.98846  22511964.8014   22511970.4784
       229.0004        182.0004
  21959207.3054  -15167240.06549 -11610764.98847  21959207.2274   21959212.5124
       232.0004        188.0004
  22083058.6634  -16074863.41849 -12265688.02947  22083059.0164   22083063.6904
       235.0004        195.0004
  23794384.2194   -7057924.30449  -5309545.69645  23794384.0914   23794391.4604
       217.0004        160.0004
  20468932.0894  -24766873.40349 -19289755.75948  20468931.8734   20468936.3994
       242.0004        215.0004
  23375545.4004   -9455473.54449  -7116452.20745  23375545.6964   23375553.4424
       219.0004        160.0004
  21649856.1744  -21670670.16749 -16678261.48547  21649856.0074   21649858.3314
       236.0004        199.0004
 06  5 10  0 25 30.0000000  0  8G13G 1G16G25G24G20G11G23
  24029177.4764   -6555329.12549  -4934879.28545  24029177.2874   24029183.4294
       209.0004        143.0004
  22521249.3094  -13896461.26649 -10813096.86146  22521249.2544   22521255.6864
       230.0004        183.0004
  21948651.9074  -15222709.07949 -11653987.56747  21948652.2844   21948656.4454
       232.0004        189.0004
  22097301.4984  -16000016.82649 -12207366.02647  22097301.8864   22097306.5424
       235.0004        194.0004
  23788055.9104   -7091178.28849  -5335457.89445  23788055.8924   23788062.9174
       216.0004        159.0004
  20462056.0164  -24803007.46549 -19317912.16848  20462055.6544   20462060.3764
       241.0004        215.0004
  23389791.4634   -9380611.53249  -7058118.26845  23389791.4744   23389797.7344
       221.0004        160.0004
  21640984.0274  -21717293.50149 -16714591.33347  21640983.6194   21640986.1424
       235.0004        199.0004
 06  5 10  0 26  0.0000000  0  8G13G 1G16G25G24G20G11G23
  24016075.2074   -6624181.83149  -4988530.62845  24016075.2774   24016080.8794
       209.0004        145.0004
  22530548.8604  -13847591.82049 -10775016.79146  22530547.7964   22530554.1764
       227.0004        183.0004
  21938179.3554  -15277742.48349 -11696870.70747  21938178.6454   21938184.0124
       231.0004        188.0004
  22111575.2794  -15925007.95249 -12148917.57447  22111575.3654   22111580.4914
       235.0004        194.0004
  23781820.4074   -7123946.08149  -5360991.23945  23781820.2684   23781827.9844
       217.0004        159.0004
  20455267.8764  -24838679.27449 -19345708.37748  20455267.5134   20455272.3184
       241.0004        215.0004
  23404059.3444   -9305634.24049  -6999694.50745  23404059.6474   23404064.9944
       219.0004        159.0004
  21632133.4194  -21763803.18349 -16750832.62847  21632133.0564   21632135.2864
       235.0004        199.0004
 06  5 10  0 26 30.0000000  0  8G13G 1G16G25G24G20G11G23
  24002979.2224   -6693002.17749  -5042156.78245  24002979.0834   24002984.6714
       212.0004        147.0004
  22539863.5484  -13798642.07649 -10736874.16646  22539863.1874   22539869.5394
       229.0004        182.0004
  21927790.2254  -15332337.13149 -11739411.95547  21927790.2974   21927795.3634
       233.0004        189.0004
  22125879.5784  -15849838.27649 -12090343.82447  22125879.5124   22125884.5544
       234.0004        194.0004
  23775677.7214   -7156226.53249  -5386144.82445  23775677.3714   23775684.5534
       217.0004        159.0004
  20448568.1114  -24873886.70449 -19373142.73248  20448567.8414   20448572.4814
       241.0004        214.0004
  23418348.6314   -9230543.87849  -6941182.63245  23418348.1754   23418354.5454
       218.0004        158.0004
  21623304.6154  -21810198.51549 -16786984.81347  21623304.4084   21623307.5154
       236.0004        199.0004
 06  5 10  0 27  0.0000000  0  8G13G 1G16G25G24G20G11G23
  23989889.1054   -6761790.76549  -5095758.20245  23989888.8264   23989895.5974
       210.0004        148.0004
  22549193.7144  -13749612.18049 -10698669.05946  22549194.2284   22549199.2984
       230.0004        182.0004
  21917485.1194  -15386490.99549 -11781609.73047  21917484.4214   21917490.4224
       231.0004        190.0004
  22140213.9734  -15774510.49749 -12031646.86147  22140214.2094   22140219.0404
       235.0004        193.0004
  23769627.7164   -7188019.57149  -5410918.62845  23769627.4394   23769634.5634
       218.0004        159.0004
  20441957.0594  -24908628.23549 -19400214.04848  20441956.6084   20441961.4214
       241.0004        214.0004
  23432658.7844   -9155343.91349  -6882585.34245  23432658.5284   23432665.4274
       218.0004        158.0004
  21614497.6774  -21856479.63649 -16823048.00647  21614497.5254   21614499.8354
       237.0004        200.0004
 06  5 10  0 27 30.0000000  0  8G13G 1G16G25G24G20G11G23
  23976805.1074   -6830546.98149  -5149334.38845  23976805.1934   23976811.1574
       213.0004        148.0004
  22558539.2114  -13700501.50749 -10660401.02146  22558539.0584   22558544.8034
       227.0004        182.0004
  21907264.3574  -15440200.94249 -11823461.61547  21907263.5374   21907269.2014
       231.0004        189.0004
  22154578.2414  -15699026.05349 -11972827.82447  22154578.4944   22154583.4234
       235.0004        193.0004
  23763670.9584   -7219323.79849  -5435311.53445  23763670.9534   23763677.7174
       218.0004        160.0004
  20435434.9894  -24942901.64649 -19426920.60348  20435434.5034   20435439.2884
       241.0004        214.0004
  23446989.3044   -9080036.28149  -6823904.17045  23446989.1174   23446994.7034
       219.0004        158.0004
  21605712.4774  -21902646.09949 -16859021.85947  21605712.1374   21605714.7574
       237.0004        200.0004
 06  5 10  0 28  0.0000000  0  8G13G 1G16G25G24G20G11G23
  23963727.3094   -6899271.66749  -5202886.02545  23963726.5674   23963732.6794
       211.0004        148.0004
  22567899.9074  -13651310.06849 -10622070.06046  22567899.9284   22567905.6564
       227.0004        181.0004
  21897128.4234  -15493465.00549 -11864966.03647  21897128.5134   21897133.6164
       233.0004        189.0004
  22168971.7784  -15623387.39149 -11913888.62247  22168971.8604   22168977.0444
       234.0004        193.0004
  23757807.0424   -7250138.75449  -5459323.19045  23757806.1434   23757814.1984
       219.0004        161.0004
  20429002.3514  -24976705.46549 -19453261.23348  20429002.1564   20429006.6844
       241.0004        215.0004
  23461339.8644   -9004624.29549  -6765141.67745  23461339.9724   23461346.8344
       218.0004        158.0004
  21596949.0674  -21948698.07649 -16894906.49747  21596948.7834   21596951.1764
       237.0004        200.0004
 06  5 10  0 28 30.0000000  0  8G13G 1G16G25G24G20G11G23
  23950654.9114   -6967964.61649  -5256412.94045  23950654.1774   23950660.6144
       209.0004        147.0004
  22577276.2884  -13602037.18849 -10583675.63246  22577276.2074   22577282.0064
       229.0004        182.0004
  21887078.0634  -15546280.30849 -11906120.79447  21887077.7614   21887082.8534
       233.0004        190.0004
  22183394.3864  -15547596.21649 -11854830.59347  22183394.3664   22183399.6724
       233.0004        192.0004
  23752036.3184   -7280463.61149  -5482952.93945  23752037.1774   23752042.9784
       222.0004        161.0004
  20422659.5214  -25010037.50949 -19479234.25048  20422659.2974   20422663.8974
       241.0004        215.0004
  23475709.7614   -8929110.55149  -6706299.90345  23475709.8044   23475716.3474
       218.0004        159.0004
  21588207.5724  -21994634.70649 -16930701.25547  21588207.3754   21588209.9994
       236.0004        200.0004
 06  5 10  0 29  0.0000000  0  8G13G 1G16G25G24G20G11G23
  23937588.8754   -7036626.12749  -5309915.35245  23937588.6524   23937595.2004
       210.0004        146.0004
  22586668.1824  -13552682.76949 -10545217.65546  22586667.7754   22586673.5924
       227.0004        181.0004
  21877113.4924  -15598644.48149 -11946924.00447  21877113.3204   21877118.4724
       234.0004        191.0004
  22197845.5304  -15471654.63649 -11795655.35147  22197845.6814   22197850.9214
       233.0004        192.0004
  23746359.2924   -7310298.16649  -5506200.64645  23746359.5874   23746365.7964
       221.0004        162.0004
  20416406.7794  -25042896.06749 -19504838.31448  20416406.3764   20416411.1164
       241.0004        215.0004
  23490098.3964   -8853497.64449  -6647380.84245  23490098.5234   23490104.4424
       218.0004        159.0004
  21579487.9704  -22040456.07549 -16966406.21047  21579487.5224   21579490.2474
       236.0004        200.0004
 06  5 10  0 29 30.0000000  0  8G13G 1G16G25G24G20G11G23
  23924528.9434   -7105256.77449  -5363393.71645  23924528.9434   23924533.1814
       209.0004        145.0004
  22596075.4354  -13503247.13349 -10506696.41046  22596074.6034   22596081.0174
       226.0004        181.0004
  21867235.0484  -15650555.79449 -11987374.33547  21867234.6484   21867240.3654
       232.0004        191.0004
  22212324.6504  -15395565.41749 -11736365.07447  22212324.6084   22212330.3784
       233.0004        192.0004
  23740775.2704   -7339642.41049  -5529066.30545  23740774.9344   23740781.9754
       218.0004        161.0004
  20410244.3114  -25075279.80949 -19530072.39548  20410243.7224   20410248.7114
       241.0004        215.0004
  23504505.2694   -8777789.07549  -6588387.24445  23504505.5594   23504512.2314
       217.0004        158.0004
  21570790.3054  -22086162.54649 -17002021.62547  21570790.3034   21570792.4464
       238.0004        200.0004
 06  5 10  0 30  0.0000000  0  8G13G 1G16G25G24G20G11G23
  23911474.8834   -7173855.91949  -5416847.51845  23911475.2904   23911480.8394
       209.0004        146.0004
  22605498.3304  -13453729.17449 -10468111.03046  22605498.3394   22605504.2284
       227.0004        180.0004
  21857443.3854  -15702010.92749 -12027469.22347  21857443.2474   21857447.7574
       234.0004        190.0004
  22226831.7854  -15319329.56249 -11676960.53347  22226831.9544   22226837.1834
       233.0004        191.0004
  23735284.5554   -7368494.70249  -5551548.60745  23735284.7444   23735290.9084
       216.0004        161.0004
  20404172.7164  -25107186.14249 -19554934.46648  20404172.2064   20404177.0594
       240.0004        215.0004
  23518929.9684   -8701986.73749  -6529320.58445  23518929.3544   23518937.0864
       217.0004        157.0004
  21562114.6694  -22131753.09749 -17037546.71647  21562114.8194   21562116.9434
       237.0004        201.0004
 06  5 10  0 30 30.0000000  0  8G13G 1G16G25G24G20G11G23
  23898426.8674   -7242424.21449  -5470277.28245  23898426.7334   23898432.7544
       211.0004        146.0004
  22614936.8834  -13404129.19549 -10429461.71346  22614936.9154   22614942.8794
       225.0004        179.0004
  21847739.0744  -15753007.80749 -12067207.02047  21847738.8154   21847743.6724
       233.0004        190.0004
  22241366.4184  -15242949.76749 -11617443.82847  22241366.8524   22241371.7324
       233.0004        191.0004
  23729887.5684   -7396855.26049  -5573647.74045  23729887.3114   23729894.6444
       218.0004        161.0004
  20398192.1974  -25138613.95849 -19579423.66648  20398191.9764   20398196.6024
       241.0004        215.0004
  23533372.0514   -8626093.92949  -6470183.42645  23533372.9054   23533379.1364
       218.0004        158.0004
  21553461.1544  -22177227.77549 -17072981.51947  21553460.9794   21553463.7754
       237.0004        201.0004
 06  5 10  0 31  0.0000000  0  8G13G 1G16G25G24G20G11G23
  23885384.5574   -7310961.67949  -5523683.02945  23885384.2334   23885390.3354
       209.0004        146.0004
  22624391.1444  -13354446.71249 -10390748.12446  22624390.6004   22624397.3594
       226.0004        178.0004
  21838122.2654  -15803544.27249 -12106586.04247  21838122.2834   21838126.6504
       234.0004        190.0004
  22255928.0864  -15166427.74149 -11557816.28747  22255927.9824   22255933.4344
       233.0004        191.0004
  23724584.5744   -7424723.40049  -5595363.16445  23724584.7324   23724592.4214
       218.0004        162.0004
  20392303.1724  -25169561.00449 -19603538.24048  20392302.8234   20392307.3104
       241.0004        215.0004
  23547830.7994   -8550113.15849  -6410977.74045  23547830.7264   23547838.2374
       216.0004        157.0004
  21544829.7084  -22222586.11649 -17108325.67047  21544829.3554   21544832.0694
       238.0004        201.0004
 06  5 10  0 31 30.0000000  0  8G13G 1G16G25G24G20G11G23
  23872347.7744   -7379468.19749  -5577064.66445  23872348.5074   23872354.5914
       211.0004        147.0004
  22633861.1854  -13304681.16849 -10351969.80746  22633860.3854   22633867.5614
       225.0004        179.0004
  21828593.6334  -15853617.51149 -12145604.12147  21828593.4394   21828598.2664
       234.0004        190.0004
  22270516.4324  -15089765.27249 -11498079.31347  22270516.4824   22270521.5744
       231.0004        190.0004
  23719375.5014   -7452098.13049  -5616694.11445  23719376.2284   23719382.5524
       220.0004        162.0004
  20386506.0244  -25200025.36949 -19627276.69948  20386505.4064   20386510.3244
       242.0004        215.0004
  23562305.6874   -8474046.84049  -6351705.38145  23562305.6954   23562311.6284
       215.0004        156.0004
  21536220.6194  -22267827.63149 -17143578.77747  21536220.4254   21536222.6664
       238.0004        201.0004
 06  5 10  0 32  0.0000000  0  8G13G 1G16G25G24G20G11G23
  23859317.3314   -7447944.08149  -5630422.42645  23859317.6384   23859322.4254
       215.0004        148.0004
  22643347.0054  -13254832.64849 -10313126.84346  22643347.9464   22643352.9874
       228.0004        179.0004
  21819153.5284  -15903225.50349 -12184259.66847  21819153.3944   21819158.5064
       233.0004        190.0004
  22285131.0484  -15012964.75349 -11438234.76947  22285131.5144   22285136.2074
       232.0004        189.0004
  23714260.2764   -7478979.50049  -5637640.63345  23714260.2394   23714266.7234
       219.0004        162.0004
  20380800.8684  -25230005.83749 -19650638.10548  20380800.5654   20380805.4784
       241.0004        215.0004
  23576796.2764   -8397898.33449  -6292368.99845  23576796.1644   23576803.3274
       215.0004        156.0004
  21527633.6084  -22312952.52649 -17178741.01847  21527633.6794   21527635.6274
       237.0004        201.0004
 06  5 10  0 32 30.0000000  0  8G13G 1G16G25G24G20G11G23
  23846292.7304   -7516389.70949  -5683756.64245  23846293.2754   23846297.4744
       213.0004        149.0004
  22652848.8984  -13204900.94149 -10274219.03546  22652849.5094   22652854.8694
       229.0004        180.0004
  21809802.3214  -15952366.09149 -12222551.00347  21809801.7884   21809807.0604
       233.0004        191.0004
  22299771.5284  -14936028.26949 -11378284.27747  22299771.7294   22299777.4174
       231.0004        188.0004
  23709238.8614   -7505367.37549  -5658202.63245  23709238.3264   23709244.7774
       218.0004        162.0004
  20375188.1984  -25259500.85549 -19673621.23348  20375188.0014   20375192.5554
       242.0004        216.0004
  23591301.9954   -8321670.30849  -6232970.62845  23591301.8924   23591308.3994
       217.0004        156.0004
  21519068.8044  -22357960.65249 -17213812.26747  21519068.4594   21519070.8894
       239.0004        202.0004
 06  5 10  0 33  0.0000000  0  8G13G 1G16G25G24G20G11G23
  23833273.7094   -7584805.21149  -5737067.35445  23833274.0684   23833279.4494
       210.0004        148.0004
  22662366.5284  -13154885.83449 -10235246.25346  22662366.2104   22662372.7284
       229.0004        180.0004
  21800540.5174  -16001036.85849 -12260476.25147  21800540.3304   21800545.2164
       234.0004        191.0004
  22314437.4424  -14858957.82549 -11318229.41346  22314437.5464   22314443.1574
       229.0004        187.0004
  23704311.5344   -7531260.94049  -5678379.43245  23704312.0764   23704318.0804
       220.0004        162.0004
  20369668.3164  -25288508.58749 -19696224.65648  20369667.9824   20369672.6804
       241.0004        216.0004
  23605822.3564   -8245365.50449  -6173512.44645  23605823.4194   23605829.6234
       217.0004        155.0004
  21510526.4964  -22402851.44949 -17248792.09047  21510526.2634   21510529.0374
       238.0004        202.0004
 06  5 10  0 33 30.0000000  0  8G13G 1G16G25G24G20G11G23
  23820260.0564   -7653190.40549  -5790354.44045  23820259.8374   23820265.7644
       210.0004        147.0004
  22671900.1534  -13104786.39149 -10196207.75546  22671900.3604   22671906.6674
       228.0004        181.0004
  21791368.7044  -16049235.06749 -12298033.25547  21791368.2404   21791373.3194
       234.0004        191.0004
  22329128.7114  -14781754.78849 -11258071.23046  22329128.8764   22329134.5174
       231.0004        187.0004
  23699478.6244   -7556659.44149  -5698170.46445  23699478.1334   23699484.8574
       219.0004        161.0004
  20364241.4774  -25317026.74249 -19718446.59648  20364241.1394   20364245.7104
       242.0004        216.0004
  23620357.0194   -8168986.25849  -6113996.24445  23620356.6374   23620364.6174
       217.0004        156.0004
  21502006.5114  -22447624.31149 -17283680.02047  21502006.7604   21502008.3904
       239.0004        202.0004
 06  5 10  0 34  0.0000000  0  8G13G 1G16G25G24G20G11G23
  23807252.5964   -7721544.81849  -5843617.54145  23807253.5214   23807259.6514
       213.0004        148.0004
  22681449.9224  -13054602.09349 -10157103.13246  22681449.8294   22681455.7464
       227.0004        180.0004
  21782287.2844  -16096958.28849 -12335220.14747  21782287.3764   21782291.4944
       234.0004        190.0004
  22343844.9604  -14704420.97349 -11197811.13547  22343845.5684   22343850.6154
       232.0004        189.0004
  23694739.5554   -7581562.18649  -5717575.17745  23694738.1444   23694745.2894
       215.0004        160.0004
  20358908.1284  -25345053.58849 -19740285.69348  20358907.6224   20358912.2374
       241.0004        216.0004
  23634905.0934   -8092534.78449  -6054423.79545  23634905.3554   23634911.9634
       216.0004        155.0004
  21493509.0984  -22492279.04149 -17318475.88247  21493509.2034   21493510.8104
       238.0004        202.0004
 06  5 10  0 34 30.0000000  0  8G13G 1G16G25G24G20G11G23
  23794250.8194   -7789869.62749  -5896857.59545  23794251.6124   23794256.1194
       214.0004        150.0004
  22691015.7414  -13004333.66449 -10117932.96446  22691015.2774   22691022.0474
       226.0004        179.0004
  21773296.5734  -16144205.08249 -12372035.80947  21773296.1214   21773301.3874
       233.0004        191.0004
  22358585.3884  -14626959.37049 -11137451.45847  22358585.9734   22358591.4374
       233.0004        189.0004
  23690094.5784   -7605969.92449  -5736594.20145  23690093.6094   23690100.6434
       215.0004        159.0004
  20353668.3824  -25372588.52349 -19761741.48248  20353667.8794   20353672.7224
       241.0004        216.0004
  23649466.5514   -8016014.94849  -5994798.04445  23649467.2644   23649473.4684
       217.0004        155.0004
  21485034.0494  -22536815.84949 -17353179.85947  21485033.4714   21485035.6844
       237.0004        201.0004
 06  5 10  0 35  0.0000000  0  8G13G 1G16G25G24G20G11G23
  23781254.7024   -7858164.62149  -5950074.39445  23781255.4594   23781260.8154
       213.0004        150.0004
  22700597.5194  -12953980.41349 -10078696.69146  22700597.2144   22700604.4294
       226.0004        178.0004
  21764396.8924  -16190972.61249 -12408477.99547  21764396.3324   21764401.7644
       233.0004        191.0004
  22373350.0254  -14549371.47349 -11076993.37047  22373350.3624   22373355.8124
       233.0004        189.0004
  23685543.9954   -7629881.84249  -5755226.85645  23685544.6494   23685551.8514
       216.0004        160.0004
  20348522.7194  -25399629.12549 -19782812.07648  20348522.3614   20348527.1124
       241.0004        216.0004
  23664040.4844   -7939429.09549  -5935120.85545  23664040.6264   23664047.8034
       216.0004        155.0004
  21476581.4014  -22581233.98349 -17387791.38447  21476581.2724   21476583.3434
       237.0004        201.0004
 06  5 10  0 35 30.0000000  0  8G13G 1G16G25G24G20G11G23
  23768264.4264   -7926429.40349  -6003267.66845  23768265.0624   23768269.3934
       213.0004        149.0004
  22710195.6694  -12903541.53049 -10039393.69046  22710195.4594   22710201.7394
       227.0004        177.0004
  21755588.9274  -16237258.49749 -12444544.88847  21755589.0594   21755593.4724
       235.0004        192.0004
  22388138.2154  -14471658.78349 -11016438.03647  22388138.4044   22388143.6434
       230.0004        188.0004
  23681088.3224   -7653296.98549  -5773472.41845  23681087.9644   23681096.4134
       217.0004        161.0004
  20343471.5044  -25426173.57549 -19803496.05848  20343471.2784   20343475.5734
       241.0004        216.0004
  23678626.7254   -7862779.54849  -5875394.07745  23678627.4174   23678635.1434
       219.0004        157.0004
  21468151.5724  -22625532.71149 -17422309.84747  21468151.1384   21468153.5524
       237.0004        202.0004
 06  5 10  0 36  0.0000000  0  8G13G 1G16G25G24G20G11G23
  23755279.3884   -7994664.73249  -6056437.97445  23755279.2524   23755285.3994
       209.0004        147.0004
  22719810.1714  -12853017.42649 -10000024.28546  22719809.9234   22719815.9024
       224.0004        175.0004
  21746872.9834  -16283061.26549 -12480235.32247  21746872.4434   21746878.0324
       233.0004        193.0004
  22402949.6314  -14393823.84149 -10955787.46346  22402949.7414   22402955.7134
       230.0004        187.0004
  23676727.0144   -7676216.01949  -5791331.39145  23676727.2134   23676734.0364
       218.0004        161.0004
  20338514.7994  -25452221.07749 -19823792.81448  20338514.6294   20338519.0944
       242.0004        216.0004
  23693224.1444   -7786069.93649  -5815620.47245  23693225.0324   23693230.7984
       216.0004        156.0004
  21459744.4164  -22669712.40049 -17456735.55847  21459744.2384   21459746.3984
       237.0004        202.0004
 06  5 10  0 36 30.0000000  0  8G13G 1G16G25G24G20G11G23
  23742300.1294   -8062870.20649  -6109585.03245  23742300.6374   23742307.0694
       213.0004        148.0004
  22729440.9494  -12802407.05049  -9960587.65146  22729440.0964   22729447.0814
       224.0004        173.0004
  21738249.3524  -16328378.06649 -12515547.07947  21738248.9134   21738253.7154
       234.0004        192.0004
  22417784.2324  -14315868.11649 -10895042.77346  22417784.9404   22417789.9464
       230.0004        186.0004
  23672460.3084   -7698637.89949  -5808802.97945  23672459.7874   23672467.5734
       216.0004        161.0004
  20333653.2194  -25477769.13549 -19843700.39348  20333652.8354   20333657.6024
       241.0004        216.0004
  23707832.6204   -7709302.08149  -5755801.46845  23707833.3484   23707841.9434
       217.0004        155.0004
  21451360.0454  -22713772.30349 -17491067.92947  21451359.8234   21451362.1484
       237.0004        202.0004
 06  5 10  0 37  0.0000000  0  8G13G 1G16G25G24G20G11G23
  23729326.9554   -8131045.76249  -6162708.77545  23729327.5384   23729331.8954
       214.0004        150.0004
  22739088.1614  -12751710.43249  -9921083.82246  22739088.4974   22739094.7634
       225.0004        174.0004
  21729718.5844  -16373207.09649 -12550478.76747  21729718.0794   21729723.4754
       234.0004        192.0004
  22432641.3854  -14237793.77649 -10834205.64746  22432641.5754   22432646.6234
       230.0004        185.0004
  23668287.9884   -7720562.78649  -5825887.29045  23668288.6554   23668295.4804
       217.0004        160.0004
  20328886.8714  -25502816.38749 -19863217.73248  20328886.3754   20328891.1584
       240.0004        216.0004
  23722451.5864   -7632478.91749  -5695939.39145  23722451.7684   23722459.5204
       217.0004        155.0004
  21442998.4424  -22757712.26649 -17525306.83847  21442998.1314   21443000.1684
       238.0004        201.0004
 06  5 10  0 37 30.0000000  0  8G13G 1G16G25G24G20G11G23
  23716359.0594   -8199192.16049  -6215809.81445  23716359.3264   23716364.2664
       214.0004        150.0004
  22748751.9684  -12700927.47049  -9881512.69846  22748751.9774   22748758.2204
       226.0004        177.0004
  21721281.0424  -16417546.38649 -12585028.83647  21721280.8404   21721286.0924
       234.0004        193.0004
  22447520.6484  -14159603.00349 -10773277.79146  22447521.1154   22447526.0894
       230.0004        186.0004
  23664210.5524   -7741990.62949  -5842584.30245  23664211.0884   23664217.6834
       218.0004        161.0004
  20324215.9544  -25527361.73649 -19882343.97448  20324215.3984   20324220.1294
       240.0004        215.0004
  23737080.7184   -7555603.38049  -5636036.49645  23737081.2214   23737087.8784
       215.0004        154.0004
  21434659.8454  -22801532.15349 -17559452.17947  21434659.6444   21434662.0184
       237.0004        201.0004
 06  5 10  0 38  0.0000000  0  8G13G 1G16G25G24G20G11G23
  23703396.7174   -8267309.59649  -6268888.28445  23703396.3904   23703402.3754
       213.0004        149.0004
  22758432.1664  -12650057.89049  -9841874.09146  22758432.6654   22758438.6094
       225.0004        176.0004
  21712937.1554  -16461393.65849 -12619195.52647  21712936.8974   21712942.5144
       234.0004        194.0004
  22462421.6474  -14081297.74149 -10712260.72246  22462422.0594   22462427.0374
       231.0004        187.0004
  23660227.8274   -7762921.12949  -5858893.76845  23660228.2554   23660234.6114
       217.0004        161.0004
  20319640.8744  -25551403.73649 -19901077.99648  20319640.3864   20319645.2724
       241.0004        215.0004
  23751719.1964   -7478678.33149  -5576095.02245  23751719.9064   23751726.2814
       216.0004        153.0004
  21426343.9884  -22845231.78849 -17593503.81547  21426343.7314   21426346.0084
       237.0004        202.0004
 06  5 10  0 38 30.0000000  0  8G13G 1G16G25G24G20G11G23
  23690439.9164   -8335397.79349  -6321943.92545  23690439.3604   23690445.6234
       213.0004        149.0004
  22768129.0214  -12599101.05249  -9802167.47246  22768130.4414   22768135.9294
       225.0004        174.0004
  21704687.4144  -16504746.41749 -12652976.85247  21704687.3284   21704692.1464
       234.0004        194.0004
  22477344.1174  -14002879.55149 -10651155.66647  22477343.7794   22477349.5644
       231.0004        188.0004
  23656339.5674   -7783354.01549  -5874815.47845  23656340.0974   23656345.8804
       218.0004        161.0004
  20315161.9844  -25574940.17249 -19919418.07448  20315161.6664   20315166.5684
       240.0004        216.0004
  23766366.4394   -7401706.31449  -5516116.95545  23766366.2974   23766374.2774
       214.0004        152.0004
  21418051.0754  -22888810.37049 -17627461.13547  21418050.9024   21418053.2704
       237.0004        201.0004
 06  5 10  0 39  0.0000000  0  8G13G 1G16G25G24G20G11G23
  23677488.5694   -8403456.43249  -6374976.55245  23677488.2664   23677494.5934
       212.0004        150.0004
  22777842.6684  -12548056.22849  -9762392.30646  22777842.8484   22777848.7094
       225.0004        174.0004
  21696532.1744  -16547602.55149 -12686371.21247  21696532.1034   21696536.4124
       236.0004        194.0004
  22492287.7894  -13924350.01649 -10589963.84347  22492288.2834   22492293.2834
       230.0004        188.0004
  23652546.1594   -7803288.70049  -5890348.97845  23652546.4934   23652553.1754
       218.0004        162.0004
  20310779.6444  -25597969.58349 -19937363.06348  20310779.3604   20310784.1414
       241.0004        216.0004
  23781022.0234   -7324689.68449  -5456104.11745  23781021.2024   23781028.5654
       211.0004        152.0004
  21409781.4544  -22932267.32849 -17661323.67447  21409781.3674   21409783.9914
       237.0004        202.0004
 06  5 10  0 39 30.0000000  0  8G13G 1G16G25G24G20G11G23
  23664543.1334   -8471485.19549  -6427985.91845  23664543.1684   23664549.2444
       215.0004        152.0004
  22787573.0374  -12496922.93949  -9722548.22146  22787572.7024   22787579.2494
       226.0004        175.0004
  21688471.9004  -16589959.73549 -12719376.79047  21688472.1234   21688476.3494
       235.0004        194.0004
  22507252.2634  -13845710.86649 -10528686.61547  22507252.3934   22507258.1244
       230.0004        188.0004
  23648847.6354   -7822724.94049  -5905494.09345  23648847.2044   23648854.2194
       219.0004        162.0004
  20306494.1494  -25620490.20149 -19954911.59048  20306493.7674   20306498.5874
       241.0004        216.0004
  23795685.7794   -7247630.57549  -5396058.17745  23795686.0894   23795693.7034
       214.0004        151.0004
  21401535.1894  -22975601.84149 -17695090.81647  21401535.0664   21401537.7224
       238.0004        202.0004
 06  5 10  0 40  0.0000000  0  8G13G 1G16G25G24G20G11G23
  23651603.3724   -8539484.75049  -6480972.50545  23651603.6754   23651609.3314
       215.0004        153.0004
  22797320.2214  -12445701.32449  -9682635.30446  22797319.4344   22797326.5844
       225.0004        178.0004
  21680506.8514  -16631816.44049 -12751992.37047  21680506.6684   21680511.7784
       235.0004        194.0004
  22522237.3134  -13766964.38849 -10467325.74146  22522237.6094   22522243.3594
       228.0004        186.0004
  23645243.8124   -7841662.78949  -5920250.85845  23645243.3394   23645251.5044
       218.0004        162.0004
  20302305.7004  -25642500.86549 -19972062.75348  20302305.3364   20302310.0854
       240.0004        216.0004
  23810357.0274   -7170532.38249  -5335981.77745  23810357.5424   23810365.6324
       212.0004        150.0004
  21393312.1724  -23018814.09349 -17728762.68047  21393312.0284   21393314.7704
       237.0004        203.0004
 06  5 10  0 40 30.0000000  0  8G13G 1G16G25G24G20G11G23
  23638668.8124   -8607455.29149  -6533936.51945  23638668.9804   23638675.4544
       214.0004        153.0004
  22807084.2114  -12394390.94849  -9642653.22346  22807083.5854   22807090.6684
       224.0004        177.0004
  21672637.4394  -16673170.58149 -12784216.35247  21672637.5954   21672642.4474
       235.0004        195.0004
  22537242.2054  -13688112.47549 -10405882.72746  22537242.3724   22537248.1874
       226.0004        185.0004
  23641734.9404   -7860102.32149  -5934619.32946  23641735.4374   23641741.7724
       218.0004        163.0004
  20298214.5464  -25663999.97349 -19988815.30248  20298214.1594   20298218.8264
       241.0004        216.0004
  23825035.4604   -7093397.72849  -5275876.97045  23825036.1014   23825044.1344
       214.0004        150.0004
  21385112.5154  -23061903.72549 -17762338.99947  21385112.5254   21385114.7954
       238.0004        203.0004
 06  5 10  0 41  0.0000000  0  8G13G 1G16G25G24G20G11G23
  23625739.9964   -8675396.86249  -6586877.93045  23625740.6104   23625746.4274
       216.0004        153.0004
  22816865.1584  -12342991.78449  -9602601.96046  22816865.2734   22816870.9654
       226.0004        175.0004
  21664863.9314  -16714020.15849 -12816047.16247  21664863.4074   21664868.5454
       234.0004        194.0004
  22552266.8664  -13609157.10549 -10344359.08446  22552266.8614   22552272.3614
       226.0004        183.0004
  23638320.7784   -7878043.75549  -5948599.66446  23638320.9814   23638328.2604
       219.0004        164.0004
  20294220.9074  -25684986.60349 -20005168.51748  20294220.4144   20294225.2124
       240.0004        216.0004
  23839720.4084   -7016229.64349  -5215746.13845  23839720.4454   23839728.7384
       214.0004        151.0004
  21376936.1614  -23104870.54349 -17795819.62447  21376936.3454   21376938.6584
       238.0004        203.0004
 06  5 10  0 41 30.0000000  0  8G13G 1G16G25G24G20G11G23
  23612816.7164   -8743309.62049  -6639796.89745  23612816.1984   23612822.6694
       216.0004        152.0004
  22826663.1194  -12291503.41849  -9562481.20746  22826662.6104   22826669.4384
       227.0004        176.0004
  21657186.8324  -16754363.50749 -12847483.51347  21657187.1014   21657191.4534
       236.0004        195.0004
  22567310.7734  -13530100.32949 -10282756.44246  22567311.4654   22567316.6764
       226.0004        182.0004
  23635001.5484   -7895486.66749  -5962191.52846  23635001.5894   23635008.2264
       219.0004        163.0004
  20290325.0104  -25705459.40849 -20021121.35048  20290324.5214   20290329.3744
       240.0004        216.0004
  23854411.1274   -6939030.73549  -5155591.25245  23854411.5354   23854419.0204
       214.0004        151.0004
  21368783.3244  -23147714.32649 -17829204.38147  21368783.1294   21368785.7274
       238.0004        204.0004
 06  5 10  0 42  0.0000000  0  8G13G 1G16G25G24G20G11G23
  23599898.7504   -8811193.61149  -6692693.45245  23599898.3804   23599904.0984
       215.0004        152.0004
  22836478.0894  -12239925.32249  -9522290.49746  22836477.5164   22836484.0764
       229.0004        177.0004
  21649606.5824  -16794198.30249 -12878523.58847  21649606.4294   21649611.0764
       235.0004        195.0004
  22582373.8004  -13450943.80849 -10221076.05146  22582374.2384   22582380.2044
       229.0004        182.0004
  23631777.1304   -7912431.28449  -5975395.12546  23631776.6314   23631784.5254
       219.0004        163.0004
  20286527.2644  -25725416.63249 -20036672.42848  20286526.6904   20286531.6154
       240.0004        216.0004
  23869107.0874   -6861803.75949  -5095414.51045  23869107.8704   23869114.0794
       216.0004        151.0004
  21360653.9984  -23190434.34649 -17862492.69847  21360653.6874   21360656.1614
       238.0004        204.0004
 06  5 10  0 42 30.0000000  0  8G13G 1G16G25G24G20G11G23
  23586986.1064   -8879048.34849  -6745567.20345  23586986.2594   23586992.1614
       214.0004        153.0004
  22846310.3164  -12188256.74149  -9482029.29246  22846310.1394   22846316.7174
       228.0004        178.0004
  21642123.3924  -16833522.32849 -12909165.64847  21642122.8004   21642127.8554
       235.0004        194.0004
  22597455.6794  -13371688.96849 -10159319.04846  22597456.1074   22597462.1954
       229.0004        183.0004
  23628647.5864   -7928877.16249  -5988210.11546  23628647.1884   23628654.2054
       218.0004        163.0004
  20282827.9904  -25744856.39549 -20051820.29448  20282827.7014   20282832.4004
       240.0004        215.0004
  23883808.1604   -6784550.79449  -5035217.51445  23883809.0034   23883816.9704
       216.0004        151.0004
  21352548.2534  -23233029.83049 -17895683.97847  21352548.1984   21352550.3424
       238.0004        204.0004
 06  5 10  0 43  0.0000000  0  8G13G 1G16G25G24G20G11G23
  23574079.2754   -8946874.23149  -6798418.45845  23574080.4344   23574084.8364
       216.0004        153.0004
  22856159.7444  -12136497.65849  -9441697.59746  22856159.5504   22856166.3994
       225.0004        176.0004
  21634737.6964  -16872334.06149 -12939408.52647  21634737.7734   21634742.1724
       236.0004        195.0004
  22612555.6664  -13292337.99049 -10097487.12946  22612556.0234   22612561.5974
       230.0004        184.0004
  23625612.7644   -7944824.70149  -6000636.76545  23625612.1494   23625619.6274
       217.0004        162.0004
  20279227.4434  -25763777.71449 -20066564.17148  20279226.7734   20279232.0084
       239.0004        215.0004
  23898513.4544   -6707275.11949  -4975002.84145  23898513.5234   23898520.4274
       215.0004        151.0004
  21344466.3704  -23275500.69249 -17928778.14647  21344466.4834   21344468.5624
       239.0004        204.0004
 06  5 10  0 43 30.0000000  0  8G13G 1G16G25G24G20G11G23
  23561178.2564   -9014670.09649  -6851246.34945  23561179.1354   23561183.7234
       218.0004        155.0004
  22866026.7034  -12084646.67849  -9401294.26046  22866026.3494   22866033.0694
       224.0004        174.0004
  21627450.3204  -16910630.27449 -12969249.71547  21627450.0284   21627454.8974
       235.0004        195.0004
  22627673.8244  -13212891.74349 -10035580.97846  22627674.3774   22627680.1464
       230.0004        185.0004
  23622672.8584   -7960272.70749  -6012674.18045  23622672.4444   23622680.9264
       216.0004        162.0004
  20275725.8504  -25782178.25549 -20080902.25548  20275725.3474   20275730.2654
       239.0004        215.0004
  23913222.6704   -6629977.96249  -4914771.40345  23913223.2904   23913229.1014
       214.0004        150.0004
  21336408.4474  -23317845.66349 -17961774.21847  21336408.1524   21336410.5644
       238.0004        204.0004
 06  5 10  0 44  0.0000000  0  8G13G 1G16G25G24G20G11G23
  23548282.5334   -9082437.68249  -6904052.20445  23548282.3034   23548288.5694
       217.0004        155.0004
  22875910.8174  -12032705.02649  -9360820.30646  22875911.4364   22875916.7264
       225.0004        172.0004
  21620260.7744  -16948410.79449 -12998689.04647  21620260.6154   21620265.9664
       236.0004        195.0004
  22642809.5514  -13133353.51149  -9973603.15646  22642809.9694   22642815.4674
       229.0004        185.0004
  23619827.9424   -7975222.75349  -6024323.56646  23619828.7934   23619835.3024
       221.0004        163.0004
  20272323.4494  -25800057.82149 -20094834.38048  20272323.3634   20272327.6154
       240.0004        215.0004
  23927935.1274   -6552663.76749  -4854526.69145  23927934.5864   23927942.4694
       213.0004        149.0004
  21328374.2034  -23360065.58249 -17994672.85047  21328374.3444   21328376.1784
       238.0004        204.0004
 06  5 10  0 44 30.0000000  0  8G13G 1G16G25G24G20G11G23
  23535392.2994   -9150176.04049  -6956835.27245  23535392.2474   23535398.2804
       216.0004        155.0004
  22885812.5544  -11980671.45849  -9320274.68746  22885812.5624   22885819.2614
       226.0004        173.0004
  21613170.0484  -16985672.76249 -13027724.32247  21613169.7144   21613174.3844
       235.0004        195.0004
  22657962.5894  -13053724.14149  -9911554.33146  22657963.2184   22657968.5734
       228.0004        184.0004
  23617078.2914   -7989673.83549  -6035584.15346  23617078.4974   23617084.8864
       220.0004        164.0004
  20269020.5664  -25817414.88949 -20108359.36448  20269020.1894   20269024.7064
       240.0004        215.0004
  23942650.5654   -6475333.89649  -4794269.77845  23942650.0484   23942657.7134
       213.0004        148.0004
  21320364.1524  -23402159.18649 -18027473.04547  21320363.8894   21320366.1404
       239.0004        204.0004
 06  5 10  0 45  0.0000000  0  8G13G 1G16G25G24G20G11G23
  23522507.4414   -9217885.68149  -7009595.94145  23522507.5574   23522514.1444
       215.0004        156.0004
  22895731.7254  -11928546.07249  -9279657.49246  22895731.9754   22895738.2864
       224.0004        171.0004
  21606178.1254  -17022415.13449 -13056354.71847  21606177.8044   21606182.9714
       236.0004        195.0004
  22673132.5114  -12974006.09449  -9849436.41346  22673132.5674   22673138.4544
       228.0004        185.0004
  23614423.3304   -8003626.79649  -6046456.61146  23614423.0554   23614430.2854
       219.0004        164.0004
  20265817.2074  -25834248.62049 -20121476.55748  20265816.7874   20265821.4364
       239.0004        215.0004
  23957368.2204   -6397992.07149  -4734003.54745  23957368.9594   23957376.2544
       211.0004        148.0004
  21312378.0324  -23444126.32849 -18060174.70447  21312377.6884   21312380.1614
       239.0004        204.0004
 06  5 10  0 45 30.0000000  0  8G13G 1G16G25G24G20G11G23
  23509628.0834   -9285565.99349  -7062333.78545  23509627.9334   23509633.5754
       217.0004        156.0004
  22905668.5894  -11876327.78249  -9238967.94446  22905667.5764   22905674.2644
       223.0004        170.0004
  21599285.6104  -17058634.97049 -13084577.94247  21599284.8864   21599290.6214
       236.0004        195.0004
  22688319.0314  -12894200.31649  -9787250.12346  22688319.0644   22688324.3684
       228.0004        185.0004
  23611862.9814   -8017081.13049  -6056940.50846  23611862.4684   23611869.6244
       219.0004        164.0004
  20262713.9744  -25850556.42649 -20134183.93848  20262713.6054   20262718.2784
       240.0004        216.0004
  23972087.8524   -6320640.08549  -4673729.38745  23972087.3294   23972095.2524
       211.0004        148.0004
  21304416.0074  -23485966.35249 -18092777.30947  21304415.5004   21304417.9874
       237.0004        204.0004
 06  5 10  0 46  0.0000000  0  8G13G 1G16G25G24G20G11G23
  23496754.4434   -9353217.18949  -7115048.94245  23496753.8864   23496759.3884
       218.0004        155.0004
  22915623.0204  -11824016.47749  -9198205.92546  22915622.6654   22915630.1474
       222.0004        169.0004
  21592492.7644  -17094331.03649 -13112393.03047  21592492.9684   21592497.5094
       236.0004        195.0004
  22703521.8904  -12814309.02049  -9724997.19646  22703522.2594   22703527.7094
       228.0004        184.0004
  23609397.3694   -8030037.16749  -6067036.13046  23609397.9044   23609405.1014
       219.0004        164.0004
  20259710.8854  -25866337.64349 -20146480.99148  20259710.4644   20259715.3404
       239.0004        216.0004
  23986808.8074   -6243280.66749  -4613449.44945  23986809.3874   23986816.7464
       211.0004        148.0004
  21296478.3384  -23527678.85149 -18125280.54247  21296478.0754   21296480.1894
       237.0004        204.0004
 06  5 10  0 46 30.0000000  0  8G13G 1G16G25G24G20G11G23
  23483886.2274   -9420839.26849  -7167741.41045  23483885.4444   23483891.6944
       215.0004        156.0004
  22925595.3494  -11771611.61649  -9157371.00246  22925595.6504   22925601.4764
       224.0004        170.0004
  21585800.1674  -17129501.24249 -13139798.36447  21585800.1324   21585804.0464
       237.0004        194.0004
  22718740.6754  -12734333.74049  -9662678.81446  22718740.7734   22718746.5344
       229.0004        184.0004
  23607026.6974   -8042494.88549  -6076743.45546  23607025.8564   23607033.5144
       216.0004        163.0004
  20256808.2384  -25881590.96949 -20158366.69648  20256807.9944   20256812.8764
       239.0004        216.0004
  24001530.7554   -6165916.47149  -4553165.76545  24001530.4264   24001538.9654
       213.0004        148.0004
  21288565.1814  -23569262.96649 -18157683.72647  21288565.2334   21288567.4254
       238.0004        204.0004
 06  5 10  0 47  0.0000000  0  8G13G 1G16G25G24G20G11G23
  23471023.6414   -9488432.54049  -7220411.42745  23471024.3784   23471030.2374
       221.0004        157.0004
  22935585.5924  -11719113.28249  -9116463.25846  22935585.7244   22935591.7244
       226.0004        174.0004
  21579207.7594  -17164144.39849 -13166792.99547  21579207.3964   21579212.4354
       236.0004        195.0004
  22733975.0114  -12654276.62649  -9600296.66546  22733975.4164   22733980.4034
       230.0004        183.0004
  23604750.5304   -8054454.87749  -6086062.94145  23604750.5214   23604757.5154
       217.0004        162.0004
  20254006.2614  -25896315.27349 -20169840.18148  20254005.8644   20254010.9794
       239.0004        216.0004
  24016252.9494   -6088550.34149  -4492880.61045  24016253.5944   24016260.7304
       213.0004        148.0004
  21280676.4294  -23610718.87249 -18189987.00747  21280676.3144   21280678.6074
       238.0004        205.0004
 06  5 10  0 47 30.0000000  0  8G13G 1G16G25G24G20G11G23
  23458166.8474   -9555996.55549  -7273058.65445  23458166.6994   23458172.3004
       217.0004        158.0004
  22945593.6424  -11666520.65049  -9075482.04546  22945593.8464   22945601.0274
       226.0004        176.0004
  21572716.0364  -17198258.25549 -13193375.20347  21572715.5404   21572721.1364
       235.0004        195.0004
  22749224.7364  -12574139.09049  -9537851.85746  22749224.7494   22749230.6604
       228.0004        183.0004
  23602569.4214   -8065917.05249  -6094994.50445  23602569.5314   23602576.3384
       218.0004        162.0004
  20251305.1884  -25910509.30649 -20180900.47248  20251304.8534   20251309.6734
       239.0004        216.0004
  24030975.2514   -6011184.73749  -4432595.84645  24030975.7724   24030983.4954
       209.0004        147.0004
  21272812.0914  -23652045.95949 -18222189.92047  21272811.8294   21272814.3824
       237.0004        205.0004
 06  5 10  0 48  0.0000000  0  8G13G 1G16G25G24G20G11G23
  23445315.1494   -9623531.55049  -7325683.25945  23445314.6864   23445320.2594
       215.0004        157.0004
  22955619.7054  -11613833.56349  -9034427.19646  22955619.8954   22955625.5614
       228.0004        176.0004
  21566325.3214  -17231841.51349 -13219543.95347  21566325.8234   21566330.3294
       237.0004        196.0004
  22764489.1214  -12493923.18349  -9475345.98446  22764489.4324   22764495.1004
       228.0004        182.0004
  23600482.8304   -8076881.70949  -6103538.40046  23600482.7364   23600490.9904
       219.0004        163.0004
  20248705.3194  -25924171.99549 -20191546.72748  20248705.2634   20248709.7854
       240.0004        216.0004
  24045696.7534   -5933822.31749  -4372313.58645  24045698.4894   24045705.8104
       213.0004        147.0004
  21264972.3744  -23693243.59249 -18254291.95847  21264972.2864   21264974.6554
       239.0004        205.0004
 06  5 10  0 48 30.0000000  0  8G13G 1G16G25G24G20G11G23
  23432469.0924   -9691037.45349  -7378285.20545  23432469.6594   23432473.8314
       216.0004        156.0004
  22965663.8414  -11561051.88149  -8993298.63746  22965662.9724   22965669.9504
       228.0004        176.0004
  21560035.9804  -17264892.52249 -13245297.94447  21560036.0884   21560040.9784
       237.0004        197.0004
  22779768.2344  -12413630.70749  -9412780.43246  22779769.2244   22779774.0924
       227.0004        180.0004
  23598490.9324   -8087349.26649  -6111694.94446  23598491.3344   23598498.3864
       221.0004        163.0004
  20246206.7234  -25937302.08949 -20201777.97048  20246206.1334   20246211.0014
       238.0004        215.0004
  24060417.4984   -5856466.06549  -4312036.11345  24060417.8794   24060426.1334
       211.0004        149.0004
  21257157.5204  -23734311.25149 -18286292.70747  21257157.6564   21257159.6674
       239.0004        205.0004
 06  5 10  0 49  0.0000000  0  8G13G 1G16G25G24G20G11G23
  23419628.5384   -9758514.80149  -7430864.90345  23419628.4094   23419633.6834
       218.0004        156.0004
  22975726.0254  -11508175.34849  -8952096.15946  22975725.7464   22975731.7034
       227.0004        174.0004
  21553848.1954  -17297409.83649 -13270636.09047  21553847.8924   21553853.0654
       236.0004        197.0004
  22795061.6014  -12333263.70149  -9350156.80646  22795062.8064   22795066.3944
       227.0004        179.0004
  23596593.6154   -8097320.17249  -6119464.51246  23596595.1774   23596601.3924
       220.0004        164.0004
  20243809.5434  -25949898.84549 -20211593.61948  20243809.0834   20243813.9814
       239.0004        215.0004
  24075136.3194   -5779118.81649  -4251765.66845  24075136.6104   24075144.3654
       212.0004        147.0004
  21249367.4094  -23775248.95049 -18318192.19447  21249367.1594   21249369.4034
       239.0004        205.0004
 06  5 10  0 49 30.0000000  0  8G13G 1G16G25G24G20G11G23
  23406793.6084   -9825963.29449  -7483422.10645  23406793.7844   23406798.8894
       219.0004        156.0004
  22985806.2564  -11455203.36649  -8910819.30146  22985805.9984   22985811.7784
       225.0004        170.0004
  21547762.1564  -17329391.71749 -13295557.00947  21547761.7454   21547766.9414
       236.0004        196.0004
  22810368.9624  -12252823.69749  -9287476.31846  22810369.7304   22810374.3664
       228.0004        178.0004
  23594790.7654   -8106794.71849  -6126847.28246  23594791.3564   23594798.2024
       219.0004        163.0004
  20241514.2084  -25961960.97149 -20220992.68248  20241514.0814   20241518.8154
       240.0004        216.0004
  24089853.0044   -5701782.92049  -4191504.06845  24089853.9914   24089861.3344
       212.0004        146.0004
  21241602.0844  -23816055.97449 -18349989.86147  21241601.9354   21241604.2014
       238.0004        205.0004
 06  5 10  0 50  0.0000000  0  8G13G 1G16G25G24G20G11G23
  23393964.3174   -9893382.21449  -7535956.28345  23393964.7054   23393968.9184
       219.0004        158.0004
  22995904.8684  -11402135.05749  -8869467.41746  22995905.1064   22995910.5044
       222.0004        169.0004
  21541778.5254  -17360835.75649 -13320058.83547  21541778.6374   21541783.5784
       237.0004        197.0004
  22825689.9044  -12172311.77449  -9224739.77446  22825690.1444   22825695.6564
       229.0004        180.0004
  23593082.5324   -8115772.64649  -6133843.08445  23593082.5994   23593089.3864
       220.0004        162.0004
  20239321.0504  -25973486.67849 -20229973.75548  20239320.8304   20239325.7384
       239.0004        216.0004
  24104567.2054   -5624460.29949  -4131252.80845  24104568.1054   24104574.9394
       212.0004        146.0004
  21233861.7424  -23856731.40049 -18381684.98847  21233861.7134   21233864.0434
       238.0004        205.0004
 06  5 10  0 50 30.0000000  0  8G13G 1G16G25G24G20G11G23
  23381140.4264   -9960771.94249  -7588467.69845  23381141.5034   23381146.1284
       217.0004        158.0004
  23006021.8434  -11348970.25149  -8828040.33246  23006022.3224   23006027.3414
       226.0004        172.0004
  21535897.5084  -17391740.75949 -13344140.62347  21535897.4584   21535902.2914
       236.0004        197.0004
  22841024.1414  -12091730.02449  -9161948.84246  22841025.3674   22841030.1574
       229.0004        182.0004
  23591468.4914   -8124254.50349  -6140452.33645  23591469.0564   23591474.7644
       220.0004        162.0004
  20237230.0134  -25984475.21349 -20238536.24748  20237229.7474   20237234.3914
       240.0004        216.0004
  24119278.3944   -5547153.72549  -4071014.06645  24119278.5914   24119285.8874
       210.0004        145.0004
  21226146.5824  -23897274.80449 -18413277.23847  21226146.3454   21226148.7064
       238.0004        205.0004
 06  5 10  0 51  0.0000000  0  8G13G 1G16G25G24G20G11G23
  23368322.3004  -10028132.20449  -7640956.15645  23368322.0474   23368327.2144
       218.0004        158.0004
  23016157.2734  -11295708.54949  -8786537.74546  23016157.1964   23016163.2414
       228.0004        177.0004
  21530119.2954  -17422105.12649 -13367801.15647  21530119.3194   21530123.7854
       237.0004        196.0004
  22856371.4684  -12011080.07049  -9099104.75646  22856372.2234   22856376.9904
       228.0004        182.0004
  23589948.7764   -8132240.55849  -6146675.26546  23589948.6884   23589956.0374
       220.0004        163.0004
  20235241.4414  -25994925.35349 -20246679.21448  20235241.3444   20235245.7964
       240.0004        216.0004
  24133985.9984   -5469866.01349  -4010790.00645  24133986.1394   24133994.2274
       213.0004        146.0004
  21218456.7244  -23937685.58849 -18444766.15147  21218456.5784   21218458.6304
       238.0004        205.0004
 06  5 10  0 51 30.0000000  0  8G13G 1G16G25G24G20G11G23
  23355509.4194  -10095463.46649  -7693422.01545  23355509.1274   23355515.0834
       218.0004        158.0004
  23026311.1134  -11242349.77349  -8744959.51846  23026311.3464   23026317.2814
       229.0004        179.0004
  21524444.3194  -17451927.65549 -13391039.46747  21524444.0374   21524449.1114
       238.0004        197.0004
  22871731.4234  -11930363.83949  -9036209.03146  22871731.7304   22871737.9574
       226.0004        181.0004
  23588523.4564   -8139731.28749  -6152512.18946  23588522.9354   23588531.0694
       217.0004        163.0004
  20233355.4244  -26004836.52449 -20254402.20848  20233355.1404   20233359.7814
       239.0004        216.0004
  24148689.7554   -5392600.05949  -3950582.90845  24148689.3104   24148698.0264
       214.0004        146.0004
  21210792.0774  -23977963.52649 -18476151.54347  21210791.9044   21210793.9334
       238.0004        204.0004
 06  5 10  0 52  0.0000000  0  8G13G 1G16G25G24G20G11G23
  23342702.0694  -10162764.79049  -7745864.55945  23342701.4844   23342708.3574
       218.0004        158.0004
  23036483.6774  -11188892.90549  -8703304.84946  23036483.6044   23036490.0534
       228.0004        180.0004
  21518872.7564  -17481206.00049 -13413853.73047  21518872.7244   21518876.6864
       238.0004        197.0004
  22887103.7074  -11849582.35149  -8973262.46846  22887104.3074   22887109.2264
       228.0004        180.0004
  23587192.0824   -8146726.62149  -6157963.09545  23587192.3074   23587198.9904
       220.0004        162.0004
  20231572.2424  -26014207.01849 -20261703.89548  20231571.9744   20231576.5014
       239.0004        216.0004
  24163388.5994   -5315357.91349  -3890394.35045  24163389.3044   24163396.6084
       211.0004        145.0004
  21203152.9254  -24018107.17049 -18507432.30047  21203152.7734   21203154.7844
       238.0004        204.0004
 06  5 10  0 52 30.0000000  0  8G13G 1G16G25G24G20G11G23
  23329900.6584  -10230036.07749  -7798283.68045  23329900.8264   23329906.0554
       219.0004        159.0004
  23046674.9624  -11135337.42349  -8661573.32846  23046675.3794   23046681.2584
       226.0004        179.0004
  21513405.2094  -17509938.62049 -13436242.76347  21513405.4994   21513409.5384
       238.0004        197.0004
  22902488.0294  -11768737.26249  -8910266.32246  22902488.0074   22902493.5734
       227.0004        181.0004
  23585955.2534   -8153227.07849  -6163028.39545  23585955.7534   23585961.5464
       218.0004        162.0004
  20229892.2344  -26023035.53349 -20268583.25448  20229891.9674   20229896.4534
       239.0004        215.0004
  24178082.3084   -5238141.78049  -3830226.05645  24178083.0314   24178090.0094
       211.0004        144.0004
  21195539.5384  -24058116.04749 -18538608.03447  21195539.5734   21195541.2284
       239.0004        204.0004
 06  5 10  0 53  0.0000000  0  8G13G 1G16G25G24G20G11G23
  23317105.0444  -10297277.60249  -7850679.62345  23317106.1034   23317110.1824
       219.0004        159.0004
  23056884.9014  -11081683.34749  -8619764.99746  23056884.5114   23056891.4724
       222.0004        175.0004
  21508041.6334  -17538124.44949 -13458205.72447  21508041.3434   21508046.4484
       238.0004        197.0004
  22917884.1574  -11687830.44549  -8847222.09246  22917884.3594   22917889.9554
       228.0004        180.0004
  23584812.2314   -8159233.38849  -6167708.64945  23584812.1944   23584820.0824
       219.0004        162.0004
  20228315.5004  -26031321.22849 -20275039.64048  20228315.1194   20228320.0374
       239.0004        215.0004
  24192770.4944   -5160954.29149  -3770080.09845  24192770.4344   24192779.1954
       211.0004        143.0004
  21187951.7314  -24097990.10449 -18569678.72347  21187951.3474   21187953.6084
       238.0004        205.0004
 06  5 10  0 53 30.0000000  0  8G13G 1G16G25G24G20G11G23
  23304315.1654  -10364489.32649  -7903052.34345  23304315.5184   23304321.3144
       220.0004        160.0004
  23067113.6284  -11027930.18149  -8577879.46746  23067112.3204   23067120.0304
       218.0004        170.0004
  21502782.3254  -17565761.97349 -13479741.43047  21502782.2044   21502787.1714
       237.0004        197.0004
  22933291.8214  -11606863.74249  -8784131.17946  22933292.3424   22933297.7384
       230.0004        181.0004
  23583763.4344   -8164745.82649  -6172004.05945  23583763.5804   23583770.1964
       217.0004        162.0004
  20226842.2234  -26039063.42749 -20281072.52348  20226841.9394   20226846.7304
       239.0004        215.0004
  24207452.9304   -5083798.44849  -3709958.77645  24207451.9304   24207460.4374
       210.0004        143.0004
  21180389.6954  -24137728.77449 -18600643.91247  21180389.4424   21180391.4804
       239.0004        205.0004
 06  5 10  0 54  0.0000000  0  8G13G 1G16G25G24G20G11G23
  23291530.8994  -10431670.64049  -7955401.38045  23291530.9294   23291536.6924
       219.0004        160.0004
  23077361.2864  -10974077.01249  -8535916.00746  23077361.0254   23077367.9974
       217.0004        163.0004
  21497627.7364  -17592849.34949 -13500848.45247  21497627.5124   21497632.8714
       237.0004        198.0004
  22948710.5524  -11525838.19149  -8720994.42346  22948710.3384   22948716.1924
       229.0004        180.0004
  23582808.2894   -8169764.28049  -6175914.54245  23582807.3624   23582815.0164
       216.0004        162.0004
  20225472.6514  -26046260.50949 -20286680.64948  20225472.2774   20225477.1494
       239.0004        216.0004
  24222128.7674   -5006676.13549  -3649863.62145  24222128.8394   24222136.8074
       209.0004        143.0004
  21172853.6904  -24177330.97549 -18631502.76947  21172853.6484   21172855.4874
       239.0004        205.0004
 06  5 10  0 54 30.0000000  0  8G13G 1G16G25G24G20G11G23
  23278752.4344  -10498821.83249  -8007726.91345  23278754.2544   23278756.8684
       219.0004        160.0004
  23087628.2194  -10920123.94349  -8493874.69046  23087628.4074   23087635.4254
       221.0004        163.0004
  21492578.1444  -17619385.26749 -13521525.75947  21492578.1384   21492582.6064
       238.0004        198.0004
  22964140.0584  -11444755.78249  -8657813.33846  22964139.8774   22964145.2534
       229.0004        177.0004
  23581946.9824   -8174289.70749  -6179440.85445  23581946.5084   23581953.2554
       218.0004        162.0004
  20224206.8634  -26052912.36349 -20291863.91648  20224206.6434   20224211.3544
       239.0004        216.0004
  24236797.8404   -4929590.46149  -3589796.98445  24236797.5344   24236806.1744
       211.0004        144.0004
  21165343.7664  -24216796.35049 -18662254.99347  21165343.6084   21165345.3374
       239.0004        205.0004
 06  5 10  0 55  0.0000000  0  8G13G 1G16G25G24G20G11G23
  23265979.7674  -10565943.04449  -8060029.11345  23265980.3074   23265984.2834
       219.0004        160.0004
  23097914.3134  -10866070.83049  -8451755.39546  23097914.9764   23097921.0014
       224.0004        166.0004
  21487633.6814  -17645368.77149 -13541772.64047  21487633.9614   21487637.8824
       239.0004        198.0004
  22979579.9064  -11363618.61749  -8594589.58146  22979579.7884   22979584.7784
       228.0004        177.0004
  23581179.4584   -8178323.18649  -6182583.82845  23581179.9694   23581186.0314
       219.0004        162.0004
  20223045.0484  -26059017.99249 -20296621.55448  20223044.7374   20223049.4524
       239.0004        215.0004
  24251459.3124   -4852544.27849  -3529761.13245  24251458.4354   24251467.1054
       208.0004        143.0004
  21157859.7104  -24256124.71649 -18692900.46747  21157859.2894   21157861.3824
       238.0004        205.0004
 06  5 10  0 55 30.0000000  0  8G13G 1G16G25G24G20G11G23
  23253212.6224  -10633034.31449  -8112307.96845  23253212.3564   23253218.0194
       218.0004        159.0004
  23108219.5474  -10811917.45849  -8409557.99746  23108219.9224   23108225.9984
       225.0004        170.0004
  21482794.5544  -17670798.73249 -13561588.16947  21482794.2014   21482799.0684
       238.0004        198.0004
  22995029.8464  -11282428.39849  -8531324.51046  22995030.1924   22995034.4014
       227.0004        176.0004
  23580505.4614   -8181865.48849  -6185344.08045  23580505.9154   23580512.0974
       220.0004        162.0004
  20221987.2434  -26064576.70849 -20300953.02248  20221986.5304   20221991.6074
       238.0004        215.0004
  24266112.5414   -4775540.08849  -3469757.99545  24266112.5304   24266120.5834
       209.0004        143.0004
  21150401.7214  -24295315.92449 -18723439.05947  21150401.5924   21150403.9604
       239.0004        206.0004
 06  5 10  0 56  0.0000000  0  8G13G 1G16G25G24G20G11G23
  23240451.1694  -10700094.82549  -8164562.86745  23240450.9714   23240456.9464
       216.0004        158.0004
  23118544.1354  -10757662.42849  -8367281.36546  23118543.9054   23118550.6594
       223.0004        172.0004
  21478061.0104  -17695673.25349 -13580970.89647  21478060.8984   21478065.2674
       237.0004        198.0004
  23010489.8744  -11201185.88149  -8468018.67946  23010489.5904   23010495.0044
       228.0004        176.0004
  23579925.1684   -8184915.88249  -6187721.03046  23579925.1284   23579932.6294
       219.0004        163.0004
  20221033.7934  -26069586.86549 -20304857.04648  20221033.4904   20221038.2474
       238.0004        215.0004
  24280757.6254   -4698579.54149  -3409788.86145  24280757.2424   24280765.7634
       209.0004        142.0004
  21142970.4454  -24334367.93549 -18753869.18047  21142970.3664   21142972.4614
       239.0004        206.0004
 06  5 10  0 56 30.0000000  0  8G13G 1G16G25G24G20G11G23
  23227695.6774  -10767124.89849  -8216794.04945  23227696.3004   23227701.0824
       219.0004        159.0004
  23128887.8034  -10703305.82249  -8324925.61246  23128887.4944   23128894.8684
       222.0004        173.0004
  21473433.3714  -17719991.20549 -13599919.92947  21473432.9424   21473437.9424
       237.0004        197.0004
  23025959.4104  -11119893.08449  -8404673.67246  23025960.1104   23025964.1374
       226.0004        176.0004
  23579438.0894   -8187475.56549  -6189715.59846  23579438.4144   23579444.3894
       218.0004        163.0004
  20220184.8324  -26074048.07049 -20308333.31748  20220184.5974   20220189.2964
       238.0004        215.0004
  24295393.8814   -4621665.99949  -3349856.35445  24295393.4094   24295402.0554
       210.0004        141.0004
  21135565.4924  -24373281.21749 -18784191.20947  21135565.5224   21135567.3834
       239.0004        207.0004
 06  5 10  0 57  0.0000000  0  8G13G 1G16G25G24G20G11G23
  23214946.2574  -10834124.24749  -8269001.27945  23214946.9374   23214952.5744
       220.0004        160.0004
  23139250.8904  -10648847.33249  -8282490.46646  23139250.5704   23139257.5924
       221.0004        172.0004
  21468911.8794  -17743751.23749 -13618434.21747  21468911.8024   21468916.6274
       238.0004        198.0004
  23041438.1944  -11038551.65649  -8341290.76846  23041438.4244   23041442.9804
       225.0004        175.0004
  23579044.1954   -8189545.25449  -6191328.36045  23579043.3784   23579051.7314
       217.0004        161.0004
  20219440.5554  -26077959.58149 -20311381.25348  20219440.1534   20219445.0064
       238.0004        215.0004
  24310020.5944   -4544801.87249  -3289962.35745  24310020.4334   24310029.6364
       208.0004        141.0004
  21128187.1764  -24412054.70849 -18814404.30147  21128187.0904   21128189.0724
       239.0004        207.0004
 06  5 10  0 57 30.0000000  0  8G13G 1G16G25G24G20G11G23
  23202202.6434  -10901092.82849  -8321184.54745  23202202.6994   23202208.8144
       219.0004        160.0004
  23149633.5434  -10594286.43149  -8239975.50646  23149633.5824   23149639.5744
       221.0004        171.0004
  21464496.9154  -17766952.07649 -13636512.77047  21464497.1184   21464501.1304
       238.0004        198.0004
  23056925.8314  -10957163.10449  -8277871.15146  23056925.6134   23056930.4494
       227.0004        176.0004
  23578743.3544   -8191125.43149  -6192559.68845  23578743.1664   23578750.2954
       219.0004        161.0004
  20218800.9774  -26081320.29949 -20314000.00148  20218800.6664   20218805.4034
       238.0004        215.0004
  24324637.5674   -4467989.33349  -3230108.59345  24324638.0734   24324646.6594
       210.0004        140.0004
  21120835.5524  -24450687.60649 -18844507.84447  21120835.3104   21120837.4514
       239.0004        206.0004
 06  5 10  0 58  0.0000000  0  8G13G 1G16G25G24G20G11G23
  23189464.7444  -10968030.51549  -8373343.73345  23189465.3874   23189470.1394
       218.0004        160.0004
  23160035.7234  -10539622.60049  -8197380.36146  23160035.6014   23160042.1294
       218.0004        169.0004
  21460188.7094  -17789592.51949 -13654154.67047  21460188.8604   21460192.8634
       239.0004        198.0004
  23072422.2844  -10875729.03249  -8214416.04146  23072421.8854   23072427.1324
       226.0004        176.0004
  23578535.5174   -8192216.81249  -6193410.11245  23578535.3504   23578542.5434
       216.0004        161.0004
  20218266.3954  -26084129.29349 -20316188.83248  20218265.8964   20218270.8834
       238.0004        215.0004
  24339244.4854   -4391230.98549  -3170297.02845  24339244.6524   24339253.7264
       210.0004        140.0004
  21113510.7874  -24489179.49649 -18874501.51647  21113510.6314   21113512.6174
       239.0004        206.0004
 06  5 10  0 58 30.0000000  0  8G13G 1G16G25G24G20G11G23
  23176732.7844  -11034937.32549  -8425478.84645  23176732.7524   23176737.9614
       219.0004        160.0004
  23170457.5694  -10484855.39749  -8154704.65746  23170457.8264   23170464.4924
       220.0004        168.0004
  21455987.3884  -17811670.94049 -13671358.60847  21455987.3894   21455992.3464
       238.0004        199.0004
  23087926.9554  -10794250.92049  -8150926.63246  23087927.0314   23087932.5924
       225.0004        175.0004
  23578420.5124   -8192820.09049  -6193880.21845  23578420.7094   23578427.9924
       217.0004        162.0004
  20217836.9504  -26086385.95649 -20317947.27148  20217836.5034   20217841.4634
       238.0004        215.0004
  24353840.5074   -4314528.95149  -3110529.34845  24353839.8674   24353848.7734
       209.0004        140.0004
  21106213.0444  -24527529.83349 -18904384.88347  21106212.6334   21106214.6144
       239.0004        206.0004
 06  5 10  0 59  0.0000000  0  8G13G 1G16G25G24G20G11G23
  23164006.7274  -11101812.11249  -8477589.02345  23164006.3224   23164011.9564
       218.0004        159.0004
  23180899.3514  -10429983.93049  -8111947.72546  23180899.8674   23180905.1744
       222.0004        167.0004
  21451893.1124  -17833186.14549 -13688123.67247  21451892.8844   21451897.7084
       238.0004        199.0004
  23103439.7994  -10712729.89649  -8087403.77846  23103440.0314   23103445.5824
       224.0004        175.0004
  23578398.4814   -8192935.41149  -6193970.09345  23578399.0044   23578406.3424
       217.0004        161.0004
  20217512.8184  -26088089.21649 -20319274.48648  20217512.4274   20217517.3814
       239.0004        215.0004
  24368425.2754   -4237885.65949  -3050807.44645  24368425.9404   24368434.4494
       208.0004        140.0004
  21098942.3084  -24565737.58449 -18934157.13747  21098942.1264   21098944.1524
       239.0004        206.0004
 06  5 10  0 59 30.0000000  0  8G13G 1G16G25G24G20G11G23
  23151286.7134  -11168655.55149  -8529674.76145  23151287.4174   23151292.9374
       220.0004        160.0004
  23191360.8624  -10375008.45549  -8069109.74046  23191359.9564   23191366.7564
       221.0004        166.0004
  21447906.1604  -17854137.48249 -13704449.37647  21447905.5844   21447910.4694
       237.0004        198.0004
  23118960.3474  -10631168.08549  -8023849.15046  23118960.4974   23118966.8054
       223.0004        175.0004
  23578469.3244   -8192564.25849  -6193680.91045  23578469.7854   23578476.6594
       215.0004        162.0004
  20217294.0784  -26089238.77149 -20320170.24848  20217293.8494   20217298.6414
       238.0004        215.0004
  24382998.1474   -4161304.31349  -2991133.82345  24382999.8404   24383006.5564
       208.0004        140.0004
  21091698.8074  -24603802.40349 -18963818.02147  21091698.8414   21091700.7944
       240.0004        207.0004
 06  5 10  1  0  0.0000000  0  8G13G 1G16G25G24G20G11G23
  23138572.9874  -11235466.92549  -8581735.53545  23138573.4294   23138578.6174
       220.0004        161.0004
  23201842.3544  -10319927.76849  -8026189.76146  23201842.3494   23201848.5814
       221.0004        166.0004
  21444026.8474  -17874522.96649 -13720334.15347  21444026.5094   21444031.6394
       237.0004        198.0004
  23134488.5484  -10549566.26049  -7960263.33346  23134488.3674   23134494.0944
       223.0004        173.0004
  23578632.4544   -8191706.67349  -6193012.69045  23578632.6324   23578639.9064
       218.0004        162.0004
  20217180.9844  -26089833.36849 -20320633.57748  20217180.7074   20217185.4434
       238.0004        215.0004
  24397559.1514   -4084786.49649  -2931509.70745  24397559.9814   24397567.8284
       208.0004        139.0004
  21084482.7974  -24641722.94549 -18993366.48047  21084482.5364   21084484.8184
       239.0004        207.0004
 06  5 10  1  0 30.0000000  0  8G13G 1G16G25G24G20G11G23
  23125865.1774  -11302247.15149  -8633772.01546  23125865.6764   23125870.3134
       222.0004        163.0004
  23212343.6524  -10264742.61049  -7983188.37446  23212343.5394   23212350.3344
       220.0004        166.0004
  21440255.2294  -17894342.85649 -13735778.19647  21440255.1804   21440259.9684
       239.0004        199.0004
  23150023.8634  -10467927.24549  -7896648.52746  23150023.8524   23150030.6154
       226.0004        173.0004
  23578887.9344   -8190364.44949  -6191966.82545  23578887.7864   23578895.5094
       219.0004        162.0004
  20217173.3344  -26089873.64949 -20320664.97148  20217173.1524   20217177.8534
       238.0004        215.0004
  24412107.3334   -4008336.12549  -2871938.14545  24412107.2604   24412116.1384
       210.0004        138.0004
  21077294.0154  -24679499.93849 -19022803.08447  21077293.7534   21077295.9564
       240.0004        207.0004
 06  5 10  1  1  0.0000000  0  8G13G 1G16G25G24G20G11G23
  23113163.5604  -11368995.10749  -8685783.35046  23113163.4404   23113168.6794
       220.0004        163.0004
  23222865.1454  -10209451.87449  -7940104.72546  23222865.2954   23222872.4264
       221.0004        166.0004
  21436591.6594  -17913595.10749 -13750779.94347  21436590.8774   21436596.4074
       237.0004        199.0004
  23165566.2164  -10386251.70149  -7833005.26146  23165565.7534   23165572.0784
       224.0004        173.0004
  23579235.3734   -8188537.65049  -6190543.37045  23579235.3654   23579243.5114
       218.0004        162.0004
  20217271.5524  -26089357.69349 -20320262.93548  20217271.1244   20217276.1554
       238.0004        215.0004
  24426642.3944   -3931954.63349  -2812420.25445  24426642.5774   24426652.4904
       210.0004        138.0004
  21070132.8504  -24717131.79949 -19052126.59647  21070132.5514   21070134.6324
       239.0004        207.0004
 06  5 10  1  1 30.0000000  0  8G13G 1G16G25G24G20G11G23
  23100468.0614  -11435710.80349  -8737769.56146  23100468.9684   23100473.1814
       223.0004        163.0004
  23233406.8484  -10154055.13249  -7896938.46646  23233407.3174   23233413.9124
       224.0004        166.0004
  21433036.1134  -17932278.80649 -13765338.64847  21433036.0284   21433040.9264
       238.0004        198.0004
  23181115.1404  -10304541.12349  -7769334.70346  23181115.5984   23181121.5504
       224.0004        173.0004
  23579675.0484   -8186226.92949  -6188742.83345  23579675.6704   23579682.6114
       218.0004        161.0004
  20217475.7354  -26088284.82749 -20319426.94348  20217475.4634   20217480.0904
       238.0004        215.0004
  24441163.9904   -3855644.39649  -2752957.91345  24441164.7044   24441171.5514
       208.0004        138.0004
  21062999.5294  -24754617.60149 -19081336.29447  21062999.3794   21063001.4134
       240.0004        207.0004
 06  5 10  1  2  0.0000000  0  8G13G 1G16G25G24G20G11G23
  23087778.8534  -11502394.36249  -8789730.71246  23087778.5444   23087782.9794
       223.0004        163.0004
  23243968.8134  -10098552.47849  -7853689.65946  23243969.9344   23243975.2734
       223.0004        165.0004
  21429589.1134  -17950393.21449 -13779453.75647  21429589.0444   21429594.2844
       239.0004        199.0004
  23196670.5294  -10222797.57649  -7705638.46646  23196671.3794   23196676.6714
       223.0004        172.0004
  23580206.8954   -8183433.85749  -6186566.42945  23580208.1624   23580214.4864
       219.0004        162.0004
  20217785.8454  -26086655.59749 -20318157.41948  20217785.2984   20217790.2564
       238.0004        215.0004
  24455671.6144   -3779408.45049  -2693553.42445  24455671.6914   24455681.1964
       209.0004        138.0004
  21055893.9004  -24791957.73049 -19110432.49247  21055893.6684   21055895.9534
       239.0004        207.0004
 06  5 10  1  2 30.0000000  0  8G13G 1G16G25G24G20G11G23
  23075095.2654  -11569045.67249  -8841666.75946  23075094.8944   23075099.5924
       221.0004        163.0004
  23254550.9804  -10042943.19649  -7810357.78546  23254551.1694   23254557.7004
       225.0004        165.0004
  21426250.6444  -17967937.23549 -13793124.39947  21426250.6454   21426255.2564
       239.0004        200.0004
  23212232.0214  -10141022.34549  -7641917.51546  23212231.7164   23212237.9194
       222.0004        171.0004
  23580830.2584   -8180159.07849  -6184014.68345  23580831.3104   23580838.2574
       219.0004        162.0004
  20218201.8874  -26084468.87949 -20316453.49148  20218201.2914   20218206.3274
       238.0004        215.0004
  24470164.2364   -3703249.19649  -2634208.74345  24470163.8984   24470174.0524
       206.0004        138.0004
  21048816.2514  -24829151.12649 -19139414.34447  21048816.2884   21048818.1614
       240.0004        208.0004
 06  5 10  1  3  0.0000000  0  8G13G 1G16G25G24G20G11G23
  23062417.8724  -11635664.90649  -8893577.79646  23062417.8404   23062422.0194
       221.0004        163.0004
  23265153.4494   -9987227.23949  -7766942.78546  23265152.8804   23265159.6634
       224.0004        164.0004
  21423020.7304  -17984910.21749 -13806350.07347  21423020.2924   21423024.8964
       238.0004        199.0004
  23227799.0644  -10059217.27149  -7578173.32546  23227799.3094   23227804.5724
       223.0004        171.0004
  23581544.8684   -8176403.81349  -6181088.53945  23581545.3564   23581551.4854
       218.0004        162.0004
  20218724.1174  -26081724.43449 -20314314.96948  20218723.7694   20218728.4694
       239.0004        215.0004
  24484641.4974   -3627169.23149  -2574925.86245  24484643.2144   24484650.8594
       205.0004        137.0004
  21041766.6454  -24866197.18649 -19168281.38747  21041766.2184   21041768.8254
       240.0004        208.0004
 06  5 10  1  3 30.0000000  0  8G13G 1G16G25G24G20G11G23
  23049747.0544  -11702249.15549  -8945461.58446  23049747.0824   23049752.4484
       220.0004        164.0004
  23275776.7884   -9931401.81749  -7723442.48146  23275776.1754   23275783.5924
       223.0004        165.0004
  21419900.1684  -18001308.85549 -13819128.22047  21419900.2624   21419904.5904
       239.0004        199.0004
  23243371.9994   -9977381.43249  -7514405.17746  23243371.8194   23243378.3304
       220.0004        171.0004
  23582351.4114   -8172166.31349  -6177786.61445  23582351.2884   23582358.1564
       218.0004        161.0004
  20219353.0574  -26078419.16749 -20311739.44948  20219352.8534   20219357.7334
       238.0004        215.0004
  24499104.1724   -3551168.61249  -2515704.77745  24499105.7124   24499113.4854
       209.0004        137.0004
  21034745.6424  -24903092.65649 -19197031.09247  21034745.4394   21034747.4824
       240.0004        208.0004
 06  5 10  1  4  0.0000000  0  8G13G 1G16G25G24G20G11G23
  23037082.6324  -11768800.20049  -8997319.50846  23037082.7694   23037088.0554
       221.0004        163.0004
  23286420.6004   -9875468.69749  -7679858.26446  23286420.8764   23286427.6214
       224.0004        165.0004
  21416888.8014  -18017134.26949 -13831459.69647  21416888.0974   21416893.3074
       238.0004        199.0004
  23258950.1814   -9895518.38149  -7450615.82846  23258950.6834   23258955.6924
       221.0004        171.0004
  23583248.8884   -8167449.74749  -6174111.39245  23583248.4174   23583256.2204
       217.0004        161.0004
  20220088.4124  -26074554.81849 -20308728.27748  20220088.2144   20220092.8934
       238.0004        215.0004
  24513550.9164   -3475251.95249  -2456549.12145  24513552.5014   24513560.2704
       209.0004        137.0004
  21027752.9984  -24939839.29649 -19225664.82947  21027752.8704   21027754.6544
       240.0004        208.0004
 06  5 10  1  4 30.0000000  0  8G13G 1G16G25G24G20G11G23
  23024424.6674  -11835317.70849  -9049151.28946  23024425.5924   23024429.4394
       221.0004        164.0004
  23297085.1374   -9819426.82449  -7636189.32446  23297084.7644   23297091.2414
       223.0004        166.0004
  21413986.4984  -18032385.20149 -13843343.51047  21413986.1364   21413991.2984
       237.0004        199.0004
  23274533.1924   -9813629.13049  -7386806.06546  23274533.2964   23274539.1104
       221.0004        171.0004
  23584237.4184   -8162254.52449  -6170063.19145  23584237.5224   23584245.3634
       216.0004        162.0004
  20220930.3844  -26070130.38849 -20305280.68048  20220930.0014   20220934.8224
       239.0004        215.0004
  24527981.2964   -3399421.32849  -2397460.52945  24527982.0214   24527989.1014
       210.0004        138.0004
  21020788.8364  -24976436.00849 -19254181.74547  21020788.6614   21020790.9634
       240.0004        208.0004
 06  5 10  1  5  0.0000000  0  8G13G 1G16G25G24G20G11G23
  23011773.3984  -11901801.78349  -9100957.01746  23011773.9604   23011778.6004
       224.0004        165.0004
  23307770.3124   -9763276.13749  -7592435.58046  23307769.7874   23307776.6004
       224.0004        166.0004
  21411193.7964  -18047060.83949 -13854779.06747  21411193.5994   21411197.6464
       239.0004        198.0004
  23290120.7894   -9731715.46049  -7322977.24346  23290121.3644   23290126.0604
       222.0004        170.0004
  23585316.7434   -8156582.00249  -6165643.06545  23585316.5954   23585325.3234
       216.0004        162.0004
  20221879.0114  -26065145.65349 -20301396.48148  20221878.8754   20221883.2864
       240.0004        215.0004
  24542394.9564   -3323679.20749  -2338440.87245  24542396.3434   24542403.7374
       211.0004        139.0004
  21013853.3594  -25012882.12149 -19282581.30847  21013853.0224   21013855.5584
       240.0004        208.0004
 06  5 10  1  5 30.0000000  0  8G13G 1G16G25G24G20G11G23
  22999128.4194  -11968251.42849  -9152735.92046  22999129.4344   22999132.4174
       223.0004        165.0004
  23318476.3854   -9707015.74449  -7548596.35246  23318476.1254   23318482.6744
       223.0004        166.0004
  21408510.8554  -18061159.81449 -13865765.27447  21408510.5474   21408515.5484
       238.0004        198.0004
  23305712.8834   -9649778.18949  -7259130.04546  23305713.0614   23305718.7414
       220.0004        168.0004
  23586486.9114   -8150432.45149  -6160851.22345  23586487.1054   23586494.1954
       216.0004        161.0004
  20222934.3934  -26059599.74749 -20297075.00848  20222933.9944   20222938.8854
       238.0004        215.0004
  24556791.0644   -3248027.62049  -2279491.78145  24556792.2864   24556800.2904
       209.0004        139.0004
  21006946.6934  -25049176.45349 -19310862.60447  21006946.4944   21006948.6674
       240.0004        208.0004
 06  5 10  1  6  0.0000000  0  8G13G 1G16G25G24G20G11G23
  22986489.8864  -12034666.59049  -9204487.93546  22986490.7844   22986495.0594
       223.0004        166.0004
  23329203.3104   -9650645.21749  -7504671.30946  23329203.0894   23329209.6944
       220.0004        165.0004
  21405937.6664  -18074681.52749 -13876301.64047  21405937.8484   21405942.5184
       239.0004        199.0004
  23321309.1504   -9567818.96149  -7195265.74346  23321308.5944   23321314.3694
       218.0004        167.0004
  23587747.7164   -8143807.16449  -6155688.68145  23587747.8224   23587754.8514
       217.0004        160.0004
  20224096.5354  -26053492.42749 -20292316.07348  20224096.3194   20224101.1234
       239.0004        215.0004
  24571169.3774   -3172469.06049  -2220615.19045  24571170.2134   24571178.0144
       209.0004        139.0004
  21000069.1044  -25085318.32649 -19339025.09047  21000069.1054   21000070.9684
       239.0004        208.0004
 06  5 10  1  6 30.0000000  0  8G13G 1G16G25G24G20G11G23
  22973858.1934  -12101046.92249  -9256212.81346  22973858.7294   22973863.4944
       224.0004        167.0004
  23339951.1834   -9594164.00149  -7460660.01846  23339951.6384   23339958.0924
       220.0004        165.0004
  21403474.7294  -18087625.09649 -13886387.53147  21403474.8734   21403478.6214
       239.0004        200.0004
  23336909.3314   -9485839.06549  -7131385.34446  23336909.5844   23336914.8754
       221.0004        168.0004
  23589098.8044   -8136706.87049  -6150156.03045  23589098.7474   23589106.3254
       216.0004        160.0004
  20225365.7144  -26046823.08649 -20287119.19548  20225365.4314   20225370.1794
       239.0004        215.0004
  24585529.8884   -3097005.87749  -2161812.89045  24585528.8934   24585538.3744
       208.0004        139.0004
  20993220.7354  -25121307.05849 -19367068.24947  20993220.4664   20993222.5414
       239.0004        208.0004
 06  5 10  1  7  0.0000000  0  8G13G 1G16G25G24G20G11G23
  22961232.9514  -12167392.39749  -9307910.53646  22961233.5694   22961238.3084
       224.0004        168.0004
  23350720.3844   -9537572.11549  -7416562.50246  23350719.8534   23350727.3624
       218.0004        166.0004
  21401121.6604  -18099990.09849 -13896022.57747  21401120.8724   21401126.3844
       236.0004        198.0004
  23352513.3874   -9403840.16349  -7067490.11946  23352514.0214   23352519.1774
       220.0004        168.0004
  23590540.1224   -8129132.81049  -6144254.17945  23590539.6694   23590547.2874
       217.0004        160.0004
  20226741.7904  -26039591.61749 -20281484.29448  20226741.5084   20226746.2364
       238.0004        215.0004
  24599871.5834   -3021640.40149  -2103086.74045  24599871.8334   24599881.0664
       207.0004        137.0004
  20986401.4654  -25157142.00949 -19394991.58147  20986401.1474   20986403.4534
       239.0004        208.0004
 06  5 10  1  7 30.0000000  0  8G13G 1G16G25G24G20G11G23
  22948614.3614  -12233702.89449  -9359581.00446  22948615.0344   22948619.8404
       224.0004        168.0004
  23361510.5274   -9480869.22749  -7372378.48846  23361510.9724   23361517.6294
       216.0004        164.0004
  21398878.8204  -18111775.51949 -13905206.00547  21398879.5044   21398883.4194
       240.0004        200.0004
  23368120.5874   -9321823.65949  -7003581.20146  23368120.6174   23368126.6604
       219.0004        167.0004
  23592071.5684   -8121086.22249  -6137984.13545  23592072.8384   23592078.7174
       218.0004        160.0004
  20228224.9724  -26031797.47549 -20275410.94248  20228224.7314   20228229.6524
       239.0004        215.0004
  24614193.9494   -2946375.33249  -2044438.83945  24614193.5484   24614202.9734
       203.0004        134.0004
  20979611.6574  -25192822.32149 -19422794.41447  20979611.6574   20979613.6984
       239.0004        208.0004
 06  5 10  1  8  0.0000000  0  8G13G 1G16G25G24G20G11G23
  22936002.6994  -12299977.46149  -9411223.47546  22936003.8754   22936007.5284
       224.0004        169.0004
  23372322.0524   -9424054.39349  -7328107.25546  23372321.9084   23372329.3484
       218.0004        166.0004
  21396746.7324  -18122980.45449 -13913937.11947  21396746.5114   21396751.0974
       238.0004        199.0004
  23383730.8814   -9239790.53849  -6939659.33346  23383731.0504   23383736.6764
       219.0004        165.0004
  23593692.6044   -8112568.06949  -6131346.64245  23593692.4974   23593699.5024
       218.0004        161.0004
  20229815.3904  -26023440.11749 -20268898.72448  20229815.1604   20229820.0154
       239.0004        216.0004
  24628496.7574   -2871212.46349  -1985870.56845  24628496.7664   24628505.6314
       203.0004        133.0004
  20972851.5144  -25228347.05049 -19450476.01947  20972851.4874   20972853.5614
       240.0004        209.0004
 06  5 10  1  8 30.0000000  0  8G13G 1G16G25G24G20G11G23
  22923398.0834  -12366215.53049  -9462837.52446  22923398.1424   22923402.3174
       224.0004        169.0004
  23383155.1904   -9367126.81349  -7283748.15146  23383154.9994   23383162.2804
       219.0004        166.0004
  21394725.1514  -18133603.71849 -13922214.96347  21394724.8604   21394729.5594
       238.0004        199.0004
  23399344.3154   -9157741.81449  -6875725.27746  23399344.6614   23399349.3454
       221.0004        164.0004
  23595403.2744   -8103578.62749  -6124341.93145  23595403.0524   23595410.6964
       219.0004        161.0004
  20231513.0694  -26014518.75649 -20261947.02448  20231512.5854   20231517.2734
       238.0004        215.0004
  24642779.9054   -2796153.66349  -1927383.36545  24642781.0384   24642788.1084
       201.0004        133.0004
  20966121.2704  -25263714.98249 -19478035.43447  20966120.9664   20966123.4974
       240.0004        209.0004
 06  5 10  1  9  0.0000000  0  8G13G 1G16G25G24G20G11G23
  22910800.1944  -12432418.35549  -9514424.09946  22910800.2634   22910805.0174
       224.0004        169.0004
  23394009.5694   -9310087.42649  -7239301.91846  23394010.1544   23394015.5854
       216.0004        165.0004
  21392814.1184  -18143645.81049 -13930039.94847  21392813.6534   21392818.2094
       238.0004        198.0004
  23414960.1004   -9075680.15249  -6811781.13346  23414960.8504   23414966.0454
       222.0004        164.0004
  23597203.2234   -8094120.40449  -6116971.92145  23597203.1564   23597208.9104
       219.0004        161.0004
  20233317.8494  -26005034.44449 -20254556.66148  20233317.3664   20233322.3674
       238.0004        215.0004
  24657042.4954   -2721203.01349  -1868980.47745  24657042.1354   24657051.2784
       202.0004        133.0004
  20959420.6254  -25298926.69649 -19505473.13247  20959420.4554   20959422.7514
       239.0004        209.0004
 06  5 10  1  9 30.0000000  0  8G13G 1G16G25G24G20G11G23
  22898208.9634  -12498584.63149  -9565982.19846  22898209.6694   22898214.9504
       225.0004        169.0004
  23404885.2064   -9252935.01149  -7194767.63746  23404884.6464   23404891.3074
       215.0004        164.0004
  21391014.0464  -18153105.43249 -13937411.07247  21391013.9694   21391018.6304
       237.0004        199.0004
  23430578.3404   -8993606.23749  -6747827.46946  23430577.4294   23430584.0994
       219.0004        164.0004
  23599092.2774   -8084193.86149  -6109236.96545  23599091.6394   23599099.2434
       218.0004        161.0004
  20235229.9234  -25994986.17149 -20246726.84448  20235229.5624   20235234.3364
       239.0004        215.0004
  24671284.2164   -2646361.89249  -1810662.91945  24671284.4654   24671294.6554
       203.0004        134.0004
  20952750.1454  -25333980.48749 -19532787.76747  20952750.2234   20952752.1804
       240.0004        209.0004
 06  5 10  1 10  0.0000000  0  8G13G 1G16G25G24G20G11G23
  22885624.9594  -12564713.59849  -9617511.22546  22885625.4614   22885629.6674
       224.0004        169.0004
  23415782.7054   -9195668.71749  -7150144.60546  23415783.3314   23415788.8234
       217.0004        164.0004
  21389324.7944  -18161981.63349 -13944327.56947  21389324.3694   21389329.3264
       238.0004        199.0004
  23446198.5264   -8911520.89049  -6683864.90346  23446198.7144   23446204.7994
       219.0004        164.0004
  23601069.9354   -8073799.81749  -6101137.73245  23601069.8494   23601077.9844
       217.0004        161.0004
  20237249.5204  -25984373.18749 -20238456.99648  20237249.2344   20237253.9374
       238.0004        215.0004
  24685504.8774   -2571632.28249  -1752432.25445  24685504.9714   24685515.6294
       203.0004        134.0004
  20946109.9194  -25368875.38449 -19559978.58447  20946109.7004   20946111.9374
       240.0004        209.0004
 06  5 10  1 10 30.0000000  0  8G13G 1G16G25G24G20G11G23
  22873048.0394  -12630805.20149  -9669011.12546  22873049.7674   22873053.6724
       226.0004        169.0004
  23426701.8664   -9138288.30849  -7105432.65346  23426701.6824   23426708.0264
       214.0004        163.0004
  21387746.9134  -18170273.92149 -13950789.08947  21387747.2214   21387751.2024
       240.0004        200.0004
  23461820.7794   -8829425.67749  -6619894.65246  23461821.4094   23461826.9634
       217.0004        163.0004
  23603136.6804   -8062939.27349  -6092674.99345  23603136.9184   23603143.7804
       217.0004        160.0004
  20239376.5434  -25973195.33749 -20229746.98848  20239376.2014   20239381.1854
       238.0004        215.0004
  24699703.9364   -2497016.47149  -1694290.27545  24699705.8994   24699714.3424
       202.0004        132.0004
  20939499.9734  -25403610.39449 -19587044.81347  20939499.3364   20939502.0124
       239.0004        208.0004
 06  5 10  1 11  0.0000000  0  8G13G 1G16G25G24G20G11G23
  22860478.3454  -12696859.55649  -9720482.00846  22860478.8104   22860483.7874
       226.0004        170.0004
  23437642.6864   -9080793.80249  -7060631.78046  23437641.9784   23437649.6024
       216.0004        164.0004
  21386280.1554  -18177981.98349 -13956795.35647  21386279.2874   21386284.8054
       237.0004        200.0004
  23477444.5234   -8747322.31749  -6555918.05245  23477444.7334   23477450.2484
       215.0004        162.0004
  23605291.8174   -8051614.05849  -6083850.17845  23605291.6474   23605299.0014
       216.0004        160.0004
  20241610.9434  -25961453.22049 -20220597.29448  20241610.6454   20241615.4584
       239.0004        215.0004
  24713880.7654   -2422517.30349  -1636239.19945  24713882.6954   24713891.2574
       202.0004        133.0004
  20932920.4754  -25438185.40849 -19613986.37947  20932920.2114   20932922.4454
       240.0004        208.0004
 06  5 10  1 11 30.0000000  0  8G13G 1G16G25G24G20G11G23
  22847915.7124  -12762876.57749  -9771923.81346  22847917.0264   22847920.8974
       226.0004        171.0004
  23448605.3384   -9023184.84449  -7015741.74046  23448605.9284   23448611.9484
       214.0004        163.0004
  21384924.5164  -18185105.50249 -13962346.13747  21384924.8254   21384929.0664
       240.0004        201.0004
  23493069.6124   -8665212.31449  -6491936.26945  23493069.4964   23493075.8894
       218.0004        161.0004
  23607535.1274   -8039825.67549  -6074664.44945  23607535.0544   23607541.8944
       217.0004        160.0004
  20243952.7574  -25949146.64749 -20211007.76648  20243952.7434   20243957.4294
       238.0004        215.0004
  24728035.2644   -2348137.35349  -1578281.01445  24728035.5074   24728045.8034
       204.0004        133.0004
  20926371.7044  -25472599.57049 -19640802.60247  20926371.3654   20926373.7624
       240.0004        209.0004
 06  5 10  1 12  0.0000000  0  8G13G 1G16G25G24G20G11G23
  22835360.5244  -12828855.64249  -9823336.03446  22835361.9884   22835366.4004
       228.0004        172.0004
  23459589.8164   -8965460.89149  -6970762.08446  23459589.8144   23459597.2254
       216.0004        163.0004
  21383680.3204  -18191644.07249 -13967441.11147  21383679.6674   21383685.0384
       238.0004        200.0004
  23508695.6914   -8583096.88349  -6427950.25246  23508696.5384   23508701.9504
       218.0004        163.0004
  23609866.4034   -8027575.23549  -6065118.68545  23609866.5994   23609873.2244
       219.0004        160.0004
  20246402.1744  -25936275.26349 -20200978.12848  20246402.0484   20246406.8284
       238.0004        215.0004
  24742166.6774   -2273878.41649  -1520417.11145  24742168.0834   24742176.0444
       206.0004        134.0004
  20919853.6864  -25506852.10749 -19667492.87647  20919853.5174   20919855.8514
       240.0004        209.0004
 06  5 10  1 12 30.0000000  0  7G13G 1G16G25G24G20G23
  22822813.2044  -12894792.52349  -9874715.37046  22822812.5564   22822818.1844
       227.0004        172.0004
  23470597.0704   -8907617.44549  -6925689.30946  23470596.2144   23470603.0194
       218.0004        163.0004
  21382548.1204  -18197593.03349 -13972076.64047  21382548.0404   21382552.6024
       239.0004        200.0004
  23524323.3374   -8500973.18949  -6363957.79546  23524323.6404   23524329.1524
       217.0004        164.0004
  23612286.2284   -8014859.75249  -6055210.53745  23612285.7154   23612292.7494
       218.0004        160.0004
  20248959.8394  -25922834.94349 -20190505.15348  20248959.7574   20248964.3684
       239.0004        215.0004
  20913367.2744  -25540938.15549 -19694053.42447  20913367.1174   20913369.5564
       239.0004        209.0004
 06  5 10  1 13  0.0000000  0  7G13G 1G16G25G24G20G23
  22810273.2364  -12960690.29149  -9926064.25146  22810272.7174   22810276.5314
       227.0004        171.0004
  23481626.3964   -8849657.71049  -6880525.94046  23481626.5984   23481633.4904
       217.0004        164.0004
  21381527.7964  -18202955.39349 -13976255.09847  21381527.5764   21381532.3254
       238.0004        200.0004
  23539951.7094   -8418846.10549  -6299962.71146  23539951.9704   23539957.7834
       217.0004        165.0004
  23614793.3304   -8001684.24649  -6044943.94245  23614794.2284   23614799.3214
       218.0004        161.0004
  20251625.1234  -25908828.96649 -20179591.41448  20251624.9424   20251629.6784
       239.0004        215.0004
  20906912.0744  -25574860.39049 -19720486.32847  20906912.0764   20906914.1314
       240.0004        209.0004
 06  5 10  1 13 30.0000000  0  8G13G 1G16G25G24G20G27G23
  22797739.5314  -13026554.51649  -9977386.99646  22797739.5934   22797744.1574
       226.0004        170.0004
  23492676.8964   -8791587.20349  -6835276.23946  23492676.7984   23492683.7194
       219.0004        163.0004
  21380617.8804  -18207736.72349 -13979980.79147  21380617.6764   21380621.8854
       237.0004        198.0004
  23555579.3094   -8336722.97149  -6235970.69546  23555579.4924   23555585.5014
       218.0004        166.0004
  23617386.6564   -7988055.80249  -6034324.40545  23617387.1034   23617394.2864
       218.0004        161.0004
  20254396.9214  -25894263.14149 -20168241.42648  20254396.4634   20254401.4114
       239.0004        215.0004
  24761347.4874    -761138.31649   -583975.62045  24761347.0664   24761357.1834
       207.0004        139.0004
  20900487.1424  -25608623.89849 -19746795.54147  20900487.2844   20900489.2924
       240.0004        210.0004
 06  5 10  1 14  0.0000000  0  8G13G 1G16G25G24G20G27G23
  22785212.9764  -13092381.47649 -10028680.67846  22785213.6954   22785218.2474
       226.0004        170.0004
  23503749.3274   -8733401.99349  -6789937.16646  23503748.5834   23503756.1414
       218.0004        163.0004
  21379819.2424  -18211933.21649 -13983250.76647  21379819.2094   21379824.3494
       238.0004        199.0004
  23571206.5124   -8254601.57549  -6171980.04646  23571206.7134   23571212.3114
       219.0004        167.0004
  23620066.8214   -7973972.40749  -6023350.34545  23620065.7494   23620073.3754
       217.0004        160.0004
  20257275.8944  -25879134.17549 -20156452.62348  20257275.4904   20257280.3694
       239.0004        215.0004
  24747193.5234    -835517.83149   -641933.47245  24747193.1754   24747202.2144
       204.0004        138.0004
  20894093.2664  -25642224.15349 -19772977.55247  20894093.1904   20894095.6884
       240.0004        210.0004
 06  5 10  1 14 30.0000000  0  8G13G 1G16G25G24G20G27G23
  22772694.5574  -13158165.84849 -10079941.19346  22772695.2914   22772699.3264
       226.0004        170.0004
  23514844.2714   -8675096.89949  -6744504.67445  23514844.6224   23514850.6174
       217.0004        160.0004
  21379133.1054  -18215539.33249 -13986060.71547  21379133.0144   21379137.2054
       239.0004        199.0004
  23586833.9964   -8172478.27549  -6107987.90946  23586834.5344   23586840.3764
       220.0004        169.0004
  23622833.9184   -7959430.51849  -6012019.05045  23622833.4334   23622842.3794
       217.0004        160.0004
  20260262.8834  -25863437.24249 -20144221.25248  20260262.4124   20260267.2064
       238.0004        215.0004
  24733073.8144    -909715.87349   -699749.93545  24733073.8494   24733084.0604
       203.0004        139.0004
  20887731.4514  -25675655.62749 -19799028.04947  20887731.5344   20887733.6814
       240.0004        210.0004
 06  5 10  1 15  0.0000000  0  8G13G 1G16G25G24G20G27G23
  22760184.2054  -13223907.80949 -10131168.66346  22760184.2624   22760189.4244
       225.0004        171.0004
  23525962.2284   -8616671.98349  -6698978.81945  23525962.3354   23525967.4604
       219.0004        158.0004
  21378559.1914  -18218555.39749 -13988410.89147  21378558.7624   21378563.7524
       238.0004        199.0004
  23602461.6084   -8090354.81949  -6043995.64846  23602461.9964   23602467.6944
       221.0004        169.0004
  23625688.0014   -7944431.90349  -6000331.85145  23625689.0464   23625696.1054
       219.0004        160.0004
  20263357.8754  -25847172.83249 -20131547.69448  20263357.8594   20263362.5204
       239.0004        215.0004
  24718988.8114    -983732.55549   -757425.07345  24718988.6404   24718997.7354
       205.0004        139.0004
  20881401.8614  -25708918.01549 -19824946.78447  20881401.7464   20881403.7754
       240.0004        210.0004
 06  5 10  1 15 30.0000000  0  8G13G 1G16G25G24G20G27G23
  22747681.6504  -13289609.11249 -10182364.44646  22747681.8384   22747686.3504
       226.0004        171.0004
  23537102.6164   -8558128.94449  -6653360.91745  23537101.6044   23537108.6674
       216.0004        157.0004
  21378097.1994  -18220982.75649 -13990302.32547  21378097.2014   21378102.0884
       238.0004        199.0004
  23618088.6244   -8008234.57849  -5980005.88346  23618089.2174   23618094.1204
       222.0004        169.0004
  23628628.6944   -7928979.92049  -5988291.38645  23628629.8004   23628635.3034
       220.0004        160.0004
  20266560.5094  -25830342.97949 -20118433.52848  20266560.1524   20266564.9394
       238.0004        215.0004
  24704937.8834   -1057569.87949   -814960.43045  24704936.8884   24704946.4604
       204.0004        138.0004
  20875104.0954  -25742012.72049 -19850734.85247  20875103.9764   20875106.2454
       239.0004        210.0004
 06  5 10  1 16  0.0000000  0  8G13G 1G16G25G24G20G27G23
  22735187.1814  -13355268.73849 -10233527.75146  22735187.5974   22735191.7454
       226.0004        172.0004
  23548265.5654   -8499466.77349  -6607650.18845  23548265.4554   23548272.2454
       216.0004        156.0004
  21377747.3404  -18222821.34449 -13991734.97947  21377747.0144   21377751.5404
       238.0004        199.0004
  23633715.0484   -7926118.11649  -5916019.07246  23633715.9594   23633720.5544
       223.0004        168.0004
  23631655.3464   -7913075.56049  -5975898.39845  23631655.4254   23631661.8574
       218.0004        160.0004
  20269870.8704  -25812947.04049 -20104878.26348  20269870.7304   20269875.2664
       238.0004        215.0004
  24690921.3034   -1131226.69649   -872355.09245  24690920.8114   24690930.1544
       205.0004        138.0004
  20868838.6154  -25774937.94849 -19876390.86747  20868838.5844   20868840.8734
       240.0004        210.0004
 06  5 10  1 16 30.0000000  0  8G13G 1G16G25G24G20G27G23
  22722700.4504  -13420886.39149 -10284658.36246  22722701.5114   22722706.3604
       226.0004        173.0004
  23559451.2784   -8440685.39349  -6561846.56145  23559450.9514   23559459.9324
       217.0004        155.0004
  21377509.5564  -18224070.93949 -13992708.67947  21377509.8784   21377514.2694
       240.0004        200.0004
  23649340.4464   -7844007.09449  -5852036.47346  23649341.3824   23649345.8694
       222.0004        167.0004
  23634767.6674   -7896720.18949  -5963153.97645  23634768.1404   23634774.4974
       219.0004        160.0004
  20273288.8614  -25794985.34949 -20090882.14748  20273288.3944   20273293.0904
       238.0004        215.0004
  24676939.2944   -1204702.81249   -929608.99145  24676939.5404   24676947.7104
       204.0004        138.0004
  20862605.5234  -25807693.17149 -19901914.40647  20862605.3894   20862607.3364
       240.0004        210.0004
 06  5 10  1 17  0.0000000  0  8G13G 1G16G25G24G20G27G23
  22710222.0144  -13486461.99749 -10335756.20146  22710222.4104   22710227.7414
       228.0004        174.0004
  23570659.8394   -8381784.63849  -6515949.93445  23570659.6524   23570666.6004
       219.0004        157.0004
  21377384.0294  -18224731.23449 -13993223.18447  21377384.2354   21377388.3114
       239.0004        200.0004
  23664964.5394   -7761902.81849  -5788059.15246  23664964.8264   23664969.4994
       220.0004        165.0004
  23637965.6364   -7879915.55149  -5950059.47445  23637965.7274   23637973.0964
       219.0004        160.0004
  20276814.4654  -25776458.21349 -20076445.43448  20276814.1344   20276818.9154
       239.0004        215.0004
  24662991.8154   -1277998.51849   -986722.30945  24662991.0974   24663000.0694
       206.0004        140.0004
  20856404.8914  -25840277.69149 -19927304.94147  20856404.9614   20856406.9614
       241.0004        210.0004
 06  5 10  1 17 30.0000000  0  8G13G 1G16G25G24G20G27G23
  22697751.7354  -13551994.51349 -10386820.46246  22697751.3444   22697756.4234
       226.0004        174.0004
  23581891.1624   -8322763.67249  -6469959.64745  23581890.9574   23581898.2084
       217.0004        158.0004
  21377370.6884  -18224801.49549 -13993277.91547  21377371.0144   21377374.8254
       240.0004        200.0004
  23680587.2424   -7679806.05949  -5724087.67146  23680587.4604   23680593.2194
       220.0004        165.0004
  23641248.6524   -7862663.07349  -5936616.01445  23641249.2344   23641256.1104
       218.0004        160.0004
  20280447.7424  -25757365.30449 -20061567.85348  20280447.6184   20280452.1774
       239.0004        215.0004
  24649078.5284   -1351112.54949  -1043694.07245  24649076.8294   24649087.0054
       204.0004        140.0004
  20850237.1204  -25872690.18849 -19952561.41847  20850237.0014   20850238.8294
       241.0004        210.0004
 06  5 10  1 18  0.0000000  0  8G13G 1G16G25G24G20G27G23
  22685289.3154  -13617483.94549 -10437851.14946  22685289.7814   22685294.5744
       227.0004        173.0004
  23593145.4724   -8263622.19249  -6423875.39845  23593145.4654   23593153.1584
       218.0004        156.0004
  21377469.6894  -18224281.75749 -13992872.91047  21377469.1064   21377474.3784
       237.0004        200.0004
  23696208.0224   -7597718.21749  -5660123.16246  23696208.3264   23696213.1584
       217.0004        165.0004
  23644616.5214   -7844964.18149  -5922824.69845  23644616.4734   23644623.6994
       218.0004        161.0004
  20284188.6774  -25737706.84749 -20046249.59048  20284188.3994   20284193.1674
       239.0004        215.0004
  24635199.7084   -1424045.01249  -1100524.34845  24635199.1674   24635207.7864
       205.0004        141.0004
  20844102.0634  -25904930.00349 -19977683.34447  20844101.6594   20844103.8964
       240.0004        210.0004
 06  5 10  1 18 30.0000000  0  8G13G 1G16G25G24G20G27G23
  22672835.3774  -13682929.58349 -10488847.71946  22672834.8434   22672840.2074
       227.0004        173.0004
  23604422.8184   -8204359.57549  -6377696.78945  23604422.5484   23604429.2144
       219.0004        153.0004
  21377680.6994  -18223171.98249 -13992008.13447  21377680.4004   21377685.2904
       238.0004        200.0004
  23711826.8234   -7515640.29049  -5596166.37846  23711827.0344   23711832.5164
       219.0004        165.0004
  23648069.1314   -7826820.15149  -5908686.50945  23648068.0734   23648075.3834
       219.0004        161.0004
  20288037.1944  -25717482.81349 -20030490.61648  20288036.9544   20288041.6094
       239.0004        215.0004
  24621355.6114   -1496795.40949  -1157212.76445  24621354.6914   24621364.1544
       207.0004        142.0004
  20838000.0014  -25936996.11949 -20002669.91747  20837999.5334   20838002.0894
       239.0004        210.0004
 06  5 10  1 19  0.0000000  0  8G13G 1G16G25G24G20G27G23
  22660389.8834  -13748330.73149 -10539809.61346  22660389.7994   22660394.7804
       228.0004        173.0004
  23615723.4524   -8144975.16049  -6331423.25245  23615723.8854   23615730.2634
       219.0004        155.0004
  21378004.3224  -18221471.72549 -13990683.25247  21378004.1464   21378008.4704
       238.0004        200.0004
  23727443.5664   -7433573.34349  -5532218.14446  23727443.7624   23727449.1524
       219.0004        167.0004
  23651606.1054   -7808232.48149  -5894202.63545  23651606.2844   23651613.9904
       217.0004        161.0004
  20291993.2664  -25696693.44349 -20014291.11948  20291992.7164   20291997.6114
       239.0004        215.0004
  24607546.2574   -1569363.08149  -1213758.80645  24607544.8114   24607555.0164
       205.0004        140.0004
  20831931.2704  -25968887.14949 -20027520.06347  20831931.2244   20831933.2014
       239.0004        210.0004
 06  5 10  1 19 30.0000000  0  8G13G 1G16G25G24G20G27G23
  22647953.0184  -13813687.12249 -10590736.64846  22647953.5084   22647957.5994
       228.0004        174.0004
  23627047.2654   -8085468.77849  -6285054.71145  23627048.0354   23627054.5884
       219.0004        155.0004
  21378440.1154  -18219180.63049 -13988897.96447  21378439.5944   21378444.7874
       238.0004        200.0004
  23743058.1264   -7351518.57149  -5468279.39846  23743057.9134   23743063.6254
       220.0004        168.0004
  23655227.3634   -7789202.45949  -5879374.06545  23655228.0164   23655235.6514
       218.0004        161.0004
  20296056.8724  -25675338.91549 -19997651.24548  20296056.5524   20296061.3644
       239.0004        215.0004
  24593771.6294   -1641747.71349  -1270162.21945  24593770.3674   24593780.1064
       205.0004        141.0004
  20825895.9994  -26000602.60149 -20052233.39547  20825895.7724   20825898.2184
       239.0004        210.0004
 06  5 10  1 20  0.0000000  0  8G13G 1G16G25G24G20G27G23
  22635524.5604  -13878998.81549 -10641628.85946  22635524.4134   22635529.3234
       227.0004        173.0004
  23638394.1784   -8025840.59849  -6238591.23745  23638393.5314   23638401.1844
       217.0004        155.0004
  21378988.3674  -18216299.55249 -13986652.96047  21378988.9344   21378992.8334
       239.0004        200.0004
  23758669.9024   -7269477.76949  -5404351.53746  23758670.2654   23758676.1524
       220.0004        169.0004
  23658932.5654   -7769732.15849  -5864202.43445  23658932.7624   23658940.3664
       218.0004        161.0004
  20300227.8894  -25653419.96049 -19980571.55348  20300227.5354   20300232.6494
       240.0004        215.0004
  24580031.8404   -1713949.80249  -1326423.42145  24580031.3284   24580039.9804
       204.0004        141.0004
  20819894.1874  -26032142.12349 -20076809.63247  20819894.0774   20819896.3564
       239.0004        210.0004
 06  5 10  1 20 30.0000000  0  8G13G 1G16G25G24G20G27G23
  22623104.7334  -13944265.06449 -10692485.64246  22623104.5214   22623109.2684
       227.0004        173.0004
  23649764.3914   -7966089.86649  -6192032.25945  23649763.1004   23649771.5764
       216.0004        154.0004
  21379649.0574  -18212827.77849 -13983947.67247  21379648.3274   21379653.1874
       238.0004        200.0004
  23774278.9734   -7187451.73449  -5340435.17446  23774278.5994   23774285.1014
       221.0004        170.0004
  23662721.1594   -7749823.00149  -5848688.83545  23662720.9394   23662728.4504
       216.0004        160.0004
  20304506.3814  -25630936.64949 -19963052.10648  20304506.2634   20304510.8824
       240.0004        215.0004
  24566326.7024   -1785968.94349  -1382542.06145  24566325.6574   24566335.5474
       203.0004        141.0004
  20813926.1654  -26063504.35949 -20101247.72847  20813926.0194   20813928.0954
       240.0004        210.0004
 06  5 10  1 21  0.0000000  0  8G13G 1G16G25G24G20G27G23
  22610693.7874  -14009484.87449 -10743306.25046  22610693.5934   22610698.7724
       227.0004        174.0004
  23661157.9424   -7906215.69949  -6145377.12645  23661157.3724   23661165.0154
       214.0004        153.0004
  21380422.0834  -18208765.02249 -13980781.87247  21380421.9124   21380426.5964
       238.0004        200.0004
  23789884.9574   -7105441.11849  -5276530.84046  23789885.1954   23789891.3854
       220.0004        170.0004
  23666592.7774   -7729476.09049  -5832834.13445  23666593.1784   23666599.6754
       217.0004        159.0004
  20308892.3844  -25607888.54049 -19945092.55848  20308892.1374   20308896.8704
       240.0004        215.0004
  24552656.2854   -1857804.39349  -1438517.54945  24552654.2814   24552665.2404
       205.0004        140.0004
  20807992.1604  -26094687.76449 -20125546.47547  20807992.0474   20807994.3554
       240.0004        210.0004
 06  5 10  1 21 30.0000000  0  8G13G 1G16G25G24G20G27G23
  22598291.6904  -14074657.89049 -10794090.40246  22598292.3784   22598297.1154
       227.0004        174.0004
  23672575.0624   -7846217.99749  -6098625.71645  23672575.1474   23672581.1744
       213.0004        154.0004
  21381307.6344  -18204111.32449 -13977155.60847  21381307.2594   21381312.5994
       237.0004        200.0004
  23805487.7974   -7023447.26249  -5212639.56546  23805487.1444   23805493.4624
       221.0004        170.0004
  23670547.8174   -7708693.20149  -5816639.70145  23670546.8714   23670555.7044
       218.0004        160.0004
  20313385.7044  -25584276.03749 -19926693.21248  20313385.2164   20313390.1784
       239.0004        215.0004
  24539021.4374   -1929455.89349  -1494349.73845  24539021.0394   24539031.2364
       208.0004        142.0004
  20802092.3134  -26125691.83649 -20149705.48747  20802092.4614   20802094.3284
       241.0004        210.0004
 06  5 10  1 22  0.0000000  0  8G13G 1G16G25G24G20G27G23
  22585898.5594  -14139784.46049 -10844838.35946  22585899.4674   22585903.8174
       229.0004        174.0004
  23684015.6654   -7786096.74349  -6051778.02545  23684014.9284   23684022.3204
       214.0004        154.0004
  21382305.4194  -18198867.34649 -13973069.37847  21382305.4184   21382310.2564
       238.0004        200.0004
  23821087.1764   -6941471.87949  -5148762.68446  23821087.5044   23821093.0714
       219.0004        169.0004
  23674585.3054   -7687476.27549  -5800107.07145  23674585.6154   23674593.3074
       218.0004        160.0004
  20317986.1384  -25560100.52649 -19907855.16648  20317985.7714   20317990.6724
       240.0004        215.0004
  24525421.5794   -2000923.79449  -1550038.84945  24525421.6144   24525430.1884
       209.0004        143.0004
  20796226.6514  -26156516.08349 -20173724.37447  20796226.5724   20796228.7694
       240.0004        210.0004
 06  5 10  1 22 30.0000000  0  8G13G 1G16G25G24G20G27G23
  22573514.5254  -14204863.67149 -10895549.40746  22573514.9814   22573519.6554
       228.0004        174.0004
  23695479.8684   -7725851.69149  -6004833.89245  23695480.9404   23695487.4654
       213.0004        155.0004
  21383415.7064  -18193033.01649 -13968523.14647  21383415.6394   21383420.9514
       238.0004        200.0004
  23836682.8404   -6859516.11149  -5084901.08646  23836683.0084   23836688.8354
       221.0004        167.0004
  23678704.9794   -7665827.26449  -5783237.73745  23678705.6634   23678712.5344
       218.0004        160.0004
  20322693.6624  -25535362.03049 -19888578.43348  20322692.9324   20322698.4764
       238.0004        215.0004
  24511856.6114   -2072207.61149  -1605584.53345  24511856.1554   24511865.1784
       208.0004        143.0004
  20790395.3584  -26187159.44649 -20197602.31647  20790395.0094   20790397.5434
       239.0004        210.0004
 06  5 10  1 23  0.0000000  0  8G13G 1G16G25G24G20G27G23
  22561139.4254  -14269894.99849 -10946223.15346  22561139.6684   22561144.2964
       228.0004        174.0004
  23706967.9944   -7665482.27949  -5957792.83845  23706968.3274   23706975.8414
       212.0004        155.0004
  21384638.2304  -18186608.45449 -13963516.98347  21384638.1634   21384642.5064
       238.0004        200.0004
  23852274.7064   -6777580.76749  -5021055.40846  23852275.3934   23852279.9114
       218.0004        165.0004
  23682906.8514   -7643747.40049  -5766032.68945  23682907.5844   23682914.9564
       219.0004        161.0004
  20327508.2714  -25510060.57949 -19868863.03648  20327507.8394   20327513.1844
       239.0004        214.0004
  24498326.7154   -2143307.02649  -1660986.52645  24498326.1924   24498335.3134
       208.0004        144.0004
  20784598.7014  -26217620.83749 -20221338.46247  20784598.4924   20784600.7694
       240.0004        210.0004
 06  5 10  1 23 30.0000000  0  8G13G 1G16G25G24G20G27G23
  22548773.5024  -14334878.27549 -10996859.45546  22548773.9194   22548778.2474
       227.0004        175.0004
  23718479.5734   -7604988.44349  -5910654.83145  23718479.1894   23718487.7104
       211.0004        155.0004
  21385973.0714  -18179593.94749 -13958051.11947  21385973.1094   21385977.3914
       238.0004        199.0004
  23867862.2244   -6695667.33849  -4957226.79245  23867861.5734   23867868.2864
       216.0004        162.0004
  23687190.2524   -7621239.01149  -5748493.71945  23687190.3894   23687197.8984
       216.0004        161.0004
  20332429.8904  -25484197.37649 -19848709.90948  20332429.7724   20332434.5214
       239.0004        215.0004
  24484832.0524   -2214222.19649  -1716244.95445  24484831.2444   24484840.8604
       210.0004        145.0004
  20778836.8964  -26247899.49049 -20244932.21247  20778836.8414   20778839.0394
       240.0004        210.0004
 06  5 10  1 24  0.0000000  0  8G13G 1G16G25G24G20G27G23
  22536416.9344  -14399812.08349 -11047457.19746  22536417.0134   22536422.0424
       228.0004        175.0004
  23730015.2444   -7544368.75949  -5863418.77045  23730016.0124   23730022.8734
       213.0004        158.0004
  21387420.2484  -18171988.80049 -13952125.01947  21387420.3874   21387424.8964
       238.0004        200.0004
  23883445.5694   -6613775.94349  -4893415.37345  23883446.6744   23883451.5534
       215.0004        158.0004
  23691554.7724   -7598302.75649  -5730621.32845  23691555.0984   23691562.8884
       218.0004        161.0004
  20337458.6544  -25457771.41449 -19828118.26648  20337458.4314   20337463.3384
       240.0004        215.0004
  24471372.6764   -2284952.03449  -1771358.99445  24471372.9914   24471381.0824
       209.0004        146.0004
  20773110.1124  -26277993.82549 -20268382.34747  20773110.0254   20773112.4434
       240.0004        210.0004
 06  5 10  1 24 30.0000000  0  8G13G 1G16G25G24G20G27G23
  22524069.8634  -14464696.21749 -11098016.24746  22524070.5404   22524075.0854
       228.0004        175.0004
  23741574.8574   -7483623.37449  -5816084.76045  23741574.4504   23741582.6644
       217.0004        159.0004
  21388979.8614  -18163793.33749 -13945738.93247  21388979.9074   21388984.6554
       239.0004        201.0004
  23899024.6064   -6531908.13449  -4829622.31045  23899024.7894   23899030.7754
       214.0004        155.0004
  23696000.5414   -7574940.42949  -5712416.94445  23695999.7614   23696007.7984
       217.0004        161.0004
  20342594.2704  -25430783.72849 -19807088.91148  20342594.1454   20342598.9184
       240.0004        215.0004
  24457948.1994   -2355496.60349  -1826328.65245  24457947.1464   24457957.2524
       208.0004        145.0004
  20767418.6004  -26307903.05349 -20291688.23347  20767418.5854   20767420.6544
       240.0004        210.0004
 06  5 10  1 25  0.0000000  0  8G13G 1G16G25G24G20G27G23
  22511732.4784  -14529529.87649 -11148535.96746  22511732.2824   22511736.8894
       229.0004        175.0004
  23753158.4304   -7422751.54249  -5768652.18945  23753158.1314   23753164.8914
       216.0004        158.0004
  21390651.8744  -18155007.14049 -13938892.52547  21390651.8804   21390655.8874
       239.0004        200.0004
  23914598.9914   -6450064.51449  -4765848.10745  23914599.6074   23914605.8004
       210.0004        150.0004
  23700526.9304   -7551153.39049  -5693881.60945  23700525.9674   23700533.9084
       215.0004        160.0004
  20347836.7374  -25403234.64349 -19785622.09748  20347836.3764   20347841.1194
       239.0004        214.0004
  24444559.0364   -2425855.41749  -1881153.58645  24444558.1754   24444567.5804
       208.0004        145.0004
  20761762.5904  -26337625.88649 -20314848.87947  20761762.6714   20761764.7504
       241.0004        211.0004
 06  5 10  1 25 30.0000000  0  8G13G 1G16G25G24G20G27G23
  22499404.6924  -14594312.53949 -11199015.94546  22499405.5064   22499408.6414
       228.0004        175.0004
  23764766.0374   -7361753.12649  -5721120.99045  23764765.7654   23764773.0134
       215.0004        156.0004
  21392436.0054  -18145631.28749 -13931586.65147  21392436.0354   21392440.6204
       239.0004        200.0004
  23930168.5604   -6368246.50149  -4702093.84045  23930168.6394   23930174.6514
       208.0004        145.0004
  23705133.9274   -7526943.78249  -5675017.02545  23705134.3474   23705142.2644
       215.0004        159.0004
  20353185.8704  -25375124.43349 -19763718.05348  20353185.5434   20353190.5764
       239.0004        214.0004
  24431205.3954   -2496028.56049  -1935833.83945  24431205.2694   24431213.7324
       209.0004        147.0004
  20756142.1944  -26367161.56449 -20337863.69247  20756141.9524   20756144.0824
       241.0004        211.0004
 06  5 10  1 26  0.0000000  0  8G13G 1G16G25G24G20G27G23
  22487086.6104  -14659043.80749 -11249455.86346  22487086.8844   22487091.3874
       228.0004        176.0004
  23776397.8274   -7300627.61449  -5673490.74745  23776397.2334   23776405.4104
       211.0004        155.0004
  21394332.3614  -18135665.84149 -13923821.36347  21394331.9824   21394336.2864
       238.0004        200.0004
  23945733.1864   -6286455.06049  -4638360.28145  23945733.0844   23945739.8444
       205.0004        138.0004
  23709821.0414   -7502313.39149  -5655824.53345  23709820.7634   23709828.2594
       215.0004        158.0004
  20358641.6954  -25346453.78749 -19741377.30148  20358641.3764   20358646.4054
       239.0004        214.0004
  24417887.1954   -2566015.87249  -1990369.27145  24417886.6294   24417896.2164
       210.0004        147.0004
  20750557.5274  -26396509.02249 -20360731.83347  20750557.3584   20750559.4374
       241.0004        211.0004
 06  5 10  1 26 30.0000000  0  8G13G 1G16G25G24G20G27G23
  22474778.4274  -14723722.83949 -11299855.09746  22474779.0244   22474784.2704
       227.0004        176.0004
  23788053.7994   -7239374.55949  -5625761.15545  23788053.6434   23788061.4244
       209.0004        153.0004
  21396340.8734  -18125110.72249 -13915596.58847  21396340.5024   21396345.0804
       238.0004        199.0004
  23961292.5154   -6204691.16649  -4574648.24245  23961293.1824   23961295.6284
       203.0004        133.0004
  23714587.7724   -7477263.82749  -5636305.43745  23714588.2424   23714594.3834
       217.0004        158.0004
  20364204.0874  -25317223.33549 -19718600.33748  20364203.9354   20364208.8194
       240.0004        214.0004
  24404604.4584   -2635817.02749  -2044759.64045  24404604.4144   24404612.9994
       209.0004        148.0004
  20745008.8214  -26425667.53249 -20383452.74547  20745008.5594   20745010.5564
       240.0004        211.0004
 06  5 10  1 27  0.0000000  0  8G13G 1G16G25G24G20G27G23
  22462480.1444  -14788349.79049 -11350213.73046  22462480.0394   22462485.8564
       229.0004        176.0004
  23799734.0494   -7177994.28449  -5577932.44145  23799734.5474   23799741.6884
       211.0004        154.0004
  21398461.5104  -18113966.76149 -13906912.97547  21398461.9234   21398466.1764
       239.0004        200.0004
  23976846.3644   -6122956.40749  -4510958.86144  23976845.5454   23976850.9774
       200.0004        127.0004
  23719434.0964   -7451797.69749  -5616461.73545  23719434.3874   23719440.7644
       218.0004        159.0004
  20369872.8334  -25287433.92349 -19695387.81948  20369872.5014   20369877.5144
       241.0004        214.0004
  24391356.9534   -2705432.58349  -2099005.37445  24391356.4054   24391366.0974
       209.0004        147.0004
  20739496.3034  -26454635.92049 -20406025.50747  20739496.2164   20739498.3834
       241.0004        211.0004
 06  5 10  1 27 30.0000000  0  8G13G 1G16G25G24G20G27G23
  22450192.2844  -14852922.93549 -11400530.44746  22450192.3254   22450197.2564
       228.0004        177.0004
  23811438.8934   -7116485.47549  -5530003.56345  23811438.7144   23811446.1884
       214.0004        157.0004
  21400694.3024  -18102233.52449 -13897770.18547  21400694.0284   21400698.0984
       239.0004        200.0004
  23992394.5234   -6041250.81048  -4447292.24444  23992393.2624   23992400.1124
       192.0004        122.0004
  23724359.2134   -7425915.68349  -5596293.95345  23724358.7784   23724366.3154
       218.0004        159.0004
  20375648.0164  -25257085.24349 -19671739.51248  20375647.9424   20375652.4304
       240.0004        214.0004
  24378145.2254   -2774861.11849  -2153105.37745  24378145.0914   24378153.3054
       211.0004        148.0004
  20734020.2834  -26483412.82449 -20428449.06547  20734019.9074   20734022.2074
       240.0004        211.0004
 06  5 10  1 28  0.0000000  0  8G13G 1G16G25G24G20G27G23
  22437914.6084  -14917442.92849 -11450805.74046  22437914.8354   22437919.0794
       230.0004        178.0004
  23823168.1104   -7054848.70849  -5481974.97345  23823168.3644   23823174.9944
       214.0004        161.0004
  21403039.0214  -18089912.09149 -13888169.05947  21403039.1844   21403043.3274
       239.0004        200.0004
  24007936.7194   -5959576.28248  -4383649.78344  24007936.7214   24007942.9014
       191.0004        115.0004
  23729362.9564   -7399620.57649  -5575804.29645  23729362.3444   23729370.4664
       218.0004        159.0004
  20381529.4094  -25226178.80449 -19647656.58148  20381529.1514   20381534.0284
       240.0004        214.0004
  24364968.9134   -2844103.32149  -2207060.19345  24364969.1834   24364976.8614
       210.0004        147.0004
  20728580.7044  -26511997.72549 -20450723.00847  20728580.5024   20728582.8014
       240.0004        211.0004
 06  5 10  1 28 30.0000000  0  8G13G 1G16G25G24G20G27G23
  22425647.3584  -14981908.24349 -11501038.42646  22425647.8074   22425651.9614
       230.0004        179.0004
  23834921.7724   -6993082.81249  -5433845.76046  23834921.8174   23834928.9754
       216.0004        163.0004
  21405495.6944  -18077002.16749 -13878109.35647  21405495.6844   21405499.9464
       240.0004        200.0004
  24023473.1424   -5877933.11248  -4320031.72944  24023473.0764   24023479.7184
       188.0004        111.0004
  23734445.0984   -7372913.15449  -5554993.33445  23734445.5954   23734452.6874
       218.0004        160.0004
  20387516.8604  -25194714.49749 -19623138.95048  20387516.6964   20387521.5954
       240.0004        214.0004
  24351828.1814   -2913158.43749  -2260869.22245  24351827.6014   24351835.6374
       208.0004        146.0004
  20723178.0084  -26540389.14149 -20472846.18047  20723177.8824   20723179.9514
       240.0004        211.0004
 06  5 10  1 29  0.0000000  0  8G13G 1G16G25G24G20G27G23
  22413390.5424  -15046318.52949 -11551228.23646  22413391.4824   22413394.6004
       229.0004        179.0004
  23846700.1054   -6931187.79649  -5385615.93346  23846700.4834   23846707.1174
       218.0004        165.0004
  21408064.2994  -18063504.34549 -13867591.56547  21408064.3954   21408068.3404
       238.0004        199.0004
  24039002.9094   -5796322.56548  -4256439.17544                  24038996.4794
       180.0004        105.0004
  23739605.5084   -7345795.60149  -5533862.79945  23739605.5934   23739612.7074
       219.0004        159.0004
  20393610.3484  -25162693.37849 -19598187.43548  20393610.0984   20393615.1374
       240.0004        215.0004
  24338722.9994   -2982026.66149  -2314532.60845  24338722.1434   24338729.7554
       207.0004        146.0004
  20717812.2974  -26568586.35749 -20494818.02947  20717812.1974   20717814.2554
       240.0004        211.0004
 06  5 10  1 29 30.0000000  0  8G13G 1G16G25G24G20G27G23
  22401144.3334  -15110672.63749 -11601374.27946  22401144.0914   22401148.8554
       229.0004        179.0004
  23858503.1104   -6869162.89349  -5337284.89746  23858503.9414   23858510.1934
       219.0004        166.0004
  21410744.6294  -18049418.59649 -13856615.64547  21410744.2104   21410748.9934
       238.0004        199.0004
                  -5714745.28558  -4192872.54544
       171.0004         99.0004
  23744843.6534   -7318269.42049  -5512413.84445  23744843.1774   23744851.0164
       218.0004        158.0004
  20399809.6644  -25130115.89449 -19572802.38748  20399809.1464   20399814.3044
       240.0004        214.0004
  24325653.2594   -3050707.39049  -2368049.87545  24325652.2714   24325661.4604
       209.0004        147.0004
  20712483.7824  -26596587.80149 -20516637.32547  20712483.5364   20712485.5034
       241.0004        211.0004
 06  5 10  1 30  0.0000000  0  8G13G 1G16G25G24G20G27G23
  22388909.0034  -15174969.51649 -11651475.71146  22388908.9314   22388914.3494
       229.0004        179.0004
  23870331.0134   -6807007.13649  -5288851.89746  23870330.7844   23870337.5684
       218.0004        164.0004
  21413536.9094  -18034744.82949 -13845181.53547  21413536.6874   21413541.7404
       239.0004        199.0004
                  -5633201.75648  -4129332.20643
       175.0004         94.0004
  23750159.2214   -7290336.24349  -5490647.74545  23750159.1874   23750165.7824
       217.0004        157.0004
  20406114.7634  -25096981.99749 -19546983.77248  20406114.2614   20406119.5364
       239.0004        214.0004
  24312619.3124   -3119199.99049  -2421420.56345  24312618.7944   24312626.6044
       211.0004        148.0004
  20707192.7424  -26624392.06549 -20538302.97847  20707192.6194   20707194.7014
       241.0004        211.0004
 06  5 10  1 30 30.0000000  0  8G13G 1G16G25G24G20G27G23
  22376684.4554  -15239209.78449 -11701533.03146  22376684.9834   22376688.9204
       230.0004        179.0004
  23882183.5884   -6744721.33449  -5240317.55245  23882183.0794   23882191.1844
       215.0004        161.0004
  21416440.7594  -18019484.81249 -13833290.60047  21416440.7474   21416444.9774
       239.0004        199.0004
                  -5551693.91048  -2531223.69743
       180.0004         74.0004
  23755551.4534   -7261999.02849  -5468566.83545  23755551.3444   23755559.8564
       218.0004        157.0004
  20412525.4824  -25063293.41349 -19520732.92848  20412524.9934   20412530.3024
       240.0004        214.0004
  24299621.0634   -3187505.85449  -2474645.73745  24299619.1644   24299628.3824
       209.0004        149.0004
  20701939.3154  -26651999.06349 -20559814.91047  20701939.2964   20701941.2164
       241.0004        211.0004
 06  5 10  1 31  0.0000000  0  8G13G 1G16G25G24G20G27G23
  22364471.0384  -15303391.93849 -11751545.07546  22364471.3794   22364475.4524
       229.0004        179.0004
  23894061.1724   -6682304.55849  -5191681.14345  23894060.9764   23894068.6604
       212.0004        156.0004
  21419456.1884  -18003638.39349 -13820942.73747  21419456.2994   21419460.4364
       238.0004        199.0004
                  -5470222.13057  -2467774.66943
       160.0004         74.0004
  23761020.6124   -7233258.94749  -5446171.99145  23761021.0574   23761026.7114
       219.0004        157.0004
  20419041.7224  -25029050.41349 -19494050.08048  20419041.5824   20419046.5404
       240.0004        214.0004
  24286657.9304   -3255624.14849  -2527724.73945  24286657.4274   24286665.3724
       209.0004        147.0004
  20696723.7264  -26679407.08449 -20581171.79847  20696723.7464   20696725.5154
       240.0004        211.0004
 06  5 10  1 31 30.0000000  0  8G13G 1G16G25G24G20G27G23
  22352268.6634  -15367515.30349 -11801511.31046  22352268.7464   22352273.6964
       229.0004        179.0004
  23905963.7194   -6619756.32349  -5142942.29845  23905963.1864   23905970.7144
       207.0004        150.0004
  21422583.2274  -17987205.78549 -13808138.09747  21422583.0444   21422586.9794
       238.0004        199.0004
                  -5388787.32358  -2404355.03443
       170.0004         74.0004
  23766566.0224   -7204117.70549  -5423464.56145  23766566.0794   23766573.0314
       218.0004        156.0004
  20425663.3354  -24994253.51549 -19466935.62048  20425663.0384   20425667.9364
       240.0004        214.0004
  24273731.2394   -3323554.58449  -2580657.35945  24273730.5564   24273739.0024
       209.0004        147.0004
  20691546.1674  -26706615.30449 -20602372.99047  20691545.9414   20691547.8634
       241.0004        211.0004
 06  5 10  1 32  0.0000000  0  8G13G 1G16G25G24G20G27G23
  22340077.5234  -15431580.18849 -11851431.97246  22340077.7464   22340082.3324
       230.0004        180.0004
  23917891.1554   -6557077.15949  -5094101.44845  23917890.1294   23917898.4254
       206.0004        144.0004
  21425821.4584  -17970188.62949 -13794877.96347  21425821.7624   21425826.0584
       239.0004        199.0004
                  -5307391.32458  -2543880.97643
       167.0004         74.0004
  23772187.1564   -7174578.33749  -5400446.90845  23772187.4874   23772195.0334
       217.0004        156.0004
  20432390.0564  -24958904.35049 -19439390.82348  20432389.6014   20432394.6024
       240.0004        214.0004
  24260840.0324   -3391297.77349  -2633444.07145  24260839.3004   24260846.6434
       210.0004        147.0004
  20686406.6754  -26733623.35849 -20623418.21947  20686406.3594   20686408.6864
       241.0004        211.0004
 06  5 10  1 32 30.0000000  0  7G13G 1G16G24G20G27G23
  22327897.7584  -15495585.79549 -11901306.43946  22327897.6584   22327902.0784
       230.0004        180.0004
  23929843.5904   -6494266.85749  -5045158.37645  23929843.4244   23929854.0634
       204.0004        137.0004
  21429170.9354  -17952587.29249 -13781162.61747  21429170.8344   21429174.9514
       238.0004        199.0004
  23777883.7314   -7144643.02949  -5377120.71945  23777883.1844   23777890.7894
       216.0004        156.0004
  20439221.5914  -24923004.07449 -19411416.59148  20439221.2424   20439226.2814
       240.0004        214.0004
  24247984.1904   -3458853.73049  -2686084.87045  24247983.2704   24247992.2804
       209.0004        148.0004
  20681305.5424  -26760430.08449 -20644306.57047  20681305.5404   20681307.6864
       241.0004        212.0004
 06  5 10  1 33  0.0000000  0  7G13G 1G16G24G20G27G23
  22315728.5904  -15559534.66549 -11951136.70646  22315728.7524   22315733.4744
       229.0004        180.0004
  23941820.5784   -6431328.09249  -4996115.25144  23941819.2334   23941826.5334
       196.0004        129.0004
  21432630.7864  -17934405.51549 -13766994.98847  21432630.5294   21432635.5174
       238.0004        199.0004
  23783654.5744   -7114316.42549  -5353489.63445  23783653.8894   23783662.9054
       216.0004        156.0004
  20446157.3244  -24886556.34649 -19383015.77148  20446157.0304   20446162.1504
       240.0004        214.0004
  24235163.7244   -3526225.57849  -2738582.23145  24235163.1564   24235170.7184
       209.0004        150.0004
  20676242.3944  -26787037.40449 -20665039.53847  20676242.3154   20676244.4384
       241.0004        212.0004
 06  5 10  1 33 30.0000000  0  7G13G 1G16G24G20G27G23
  22303571.4144  -15623420.01549 -12000917.48146  22303571.9284   22303576.7114
       229.0004        180.0004
  23953823.1204   -6368254.58248  -4946967.10344  23953824.8724   23953832.2084
       191.0004        121.0004
  21436202.0334  -17915638.03049 -13752370.96447  21436201.8064   21436206.5184
       238.0004        199.0004
  23789500.9564   -7083594.44549  -5329550.45945  23789501.3114   23789508.5884
       215.0004        156.0004
  20453198.2584  -24849556.24649 -19354184.53848  20453198.1364   20453202.8934
       241.0004        214.0004
  24222379.2834   -3593407.34549  -2790931.45245  24222378.5664   24222386.6454
       208.0004        151.0004
  20671218.3474  -26813438.89149 -20685612.11447  20671218.2434   20671220.4804
       241.0004        212.0004
 06  5 10  1 34  0.0000000  0  7G13G 1G16G24G20G27G23
  22291426.3684  -15687242.34949 -12050649.14046  22291426.7064   22291431.6354
       230.0004        180.0004
  23965851.0204   -6305047.02548  -4897714.51344  23965853.1454   23965855.7494
       186.0004        113.0004
  21439884.5394  -17896286.28949 -13737291.68147  21439884.9074   21439888.9044
       238.0004        199.0004
  23795421.6714   -7052480.31449  -5305305.72245  23795422.3324   23795428.8884
       214.0004        156.0004
  20460343.9924  -24812005.58649 -19324924.28648  20460343.5094   20460348.4524
       240.0004        214.0004
  24209630.8384   -3660399.75349  -2843133.13845  24209630.5524   24209638.7164
       208.0004        149.0004
  20666233.5864  -26839633.79949 -20706023.71447  20666233.0854   20666235.8184
       242.0004        212.0004
 06  5 10  1 34 30.0000000  0  7G13G 1G16G24G20G27G23
  22279293.5504  -15751001.18049 -12100331.32346  22279293.9864   22279298.0754
       231.0004        181.0004
  23977904.4234   -6241705.43148  -4848357.51844                  23977909.0894
       179.0004        105.0004
  21443678.0294  -17876351.52649 -13721758.09547  21443677.7314   21443682.5624
       237.0004        199.0004
  23801416.7934   -7020976.52449  -5280757.35245  23801417.2224   23801424.0144
       216.0004        157.0004
  20467594.1474  -24773905.61649 -19295236.01148  20467593.9004   20467598.9244
       240.0004        214.0004
  24196918.5924   -3727203.30049  -2895187.68745  24196918.1824   24196926.3454
       208.0004        149.0004
  20661288.1764  -26865621.63149 -20726273.97147  20661288.0684   20661290.1244
       241.0004        212.0004
 06  5 10  1 35  0.0000000  0  7G13G 1G16G24G20G27G23
  22267172.8184  -15814696.76849 -12149964.21246  22267173.4074   22267177.5614
       231.0004        181.0004
                  -6178230.51358  -4798896.56644
       179.0004        101.0004
  21447582.0584  -17855835.33549 -13705771.44147  21447582.2284   21447586.5184
       237.0004        198.0004
  23807485.2394   -6989086.21449  -5255907.80645  23807484.9914   23807493.3554
       215.0004        156.0004
  20474948.5014  -24735258.32349 -19265121.25148  20474948.1384   20474953.2184
       240.0004        214.0004
  24184241.8684   -3793818.67249  -2947095.59545  24184241.0984   24184249.8634
       208.0004        150.0004
  20656382.2764  -26891402.49049 -20746362.94247  20656382.1444   20656384.0544
       241.0004        212.0004
 06  5 10  1 35 30.0000000  0  7G13G 1G16G24G20G27G23
  22255064.2284  -15878327.65349 -12199546.69846  22255064.3104   22255069.5264
       231.0004        182.0004
                  -6114621.36758  -4749330.99843
       177.0004         90.0004
  21451596.8164  -17834737.79749 -13689331.79547  21451596.7794   21451601.0064
       237.0004        198.0004
  23813626.8014   -6956810.60049  -5230758.01345  23813626.7194   23813634.5694
       215.0004        157.0004
  20482406.9374  -24696063.99849 -19234580.23448  20482406.6454   20482411.6604
       240.0004        214.0004
  24171601.0434   -3860245.44349  -2998856.53545  24171599.9304   24171609.4504
       209.0004        152.0004
  20651516.0994  -26916974.33949 -20766289.05247  20651515.9434   20651517.8854
       241.0004        212.0004
 06  5 10  1 36  0.0000000  0  7G13G 1G16G24G20G27G23
  22242968.1124  -15941893.50549 -12249078.50646  22242968.2544   22242972.4924
       232.0004        182.0004
                  -6050878.93358  -2571309.69443
       177.0004         74.0004
  21455721.9044  -17813059.96849 -13672439.97047  21455721.8334   21455726.5744
       237.0004        198.0004
  23819841.6484   -6924152.06749  -5205309.83645  23819841.6274   23819849.7844
       216.0004        157.0004
  20489969.2724  -24656323.65049 -19203613.74248  20489968.9404   20489974.0314
       240.0004        213.0004
  24158996.1314   -3926483.76149  -3050470.66045  24158995.8754   24159004.1764
       208.0004        153.0004
  20646689.9134  -26942336.21449 -20786051.54847  20646689.7944   20646691.6604
       241.0004        212.0004
 06  5 10  1 36 30.0000000  0  6G13G16G24G20G27G23
  22230884.0804  -16005395.00349 -12298560.16946  22230884.4294   22230889.1354
       231.0004        182.0004
  21459957.0884  -17790803.97149 -13655097.62647  21459956.8514   21459961.3904
       238.0004        199.0004
  23826128.5764   -6891113.92249  -5179565.86045  23826129.9834   23826137.4004
       217.0004        157.0004
  20497634.9784  -24616039.80549 -19172223.73948  20497634.6334   20497639.5814
       240.0004        213.0004
  24146426.7254   -3992535.11749  -3101939.08645  24146426.8974   24146434.6544
       211.0004        153.0004
  20641903.4764  -26967488.79349 -20805650.95647  20641903.4284   20641905.3154
       240.0004        212.0004
 06  5 10  1 37  0.0000000  0  6G13G16G24G20G27G23
  22218812.9064  -16068829.49849 -12347989.63146  22218812.9564   22218817.5034
       232.0004        183.0004
  21464302.4314  -17767968.94749 -13637304.09747  21464302.2834   21464307.1694
       238.0004        199.0004
  23832487.7894   -6857696.72949  -5153526.52945  23832488.7914   23832495.9374
       218.0004        158.0004
  20505404.2594  -24575211.83649 -19140409.74748  20505403.9644   20505408.9744
       240.0004        213.0004
  24133893.5194   -4058397.85749  -3153260.55745  24133894.1334   24133900.8334
       213.0004        153.0004
  20637157.4754  -26992429.17349 -20825085.01647  20637157.3234   20637159.6894
       241.0004        212.0004
 06  5 10  1 37 30.0000000  0  6G13G16G24G20G27G23
  22206754.4854  -16132196.96449 -12397366.85246  22206754.7044   22206759.6444
       231.0004        183.0004
  21468757.7564  -17744555.99649 -13619060.22947  21468757.6184   21468762.1734
       239.0004        199.0004
  23838918.6664   -6823902.90549  -5127193.72645  23838918.9204   23838925.5024
       213.0004        156.0004
  20513276.7904  -24533841.25749 -19108172.94048  20513276.5744   20513281.7364
       240.0004        213.0004
  24121396.1954   -4124072.56149  -3204435.52145  24121395.7854   24121403.8674
       211.0004        153.0004
  20632452.0034  -27017156.59349 -20844353.13047  20632452.0814   20632453.7904
       241.0004        212.0004
 06  5 10  1 38  0.0000000  0  6G13G16G24G20G27G23
  22194708.9164  -16195495.97049 -12446690.72446  22194708.7734   22194713.6224
       231.0004        183.0004
  21473323.0604  -17720565.47549 -13600366.31947  21473322.7984   21473327.1024
       238.0004        198.0004
  23845420.7434   -6789734.05449  -5100568.67945  23845421.3584   23845428.2604
       215.0004        154.0004
  20521252.5444  -24491928.44449 -19075513.61648  20521252.4034   20521257.2744
       241.0004        213.0004
  24108934.4214   -4189558.36849  -3255463.31245  24108933.9824   24108941.3404
       210.0004        152.0004
  20627787.3704  -27041669.41249 -20863454.02347  20627787.2204   20627789.1504
       241.0004        212.0004
 06  5 10  1 38 30.0000000  0  6G13G16G24G20G27G23
  22182676.7204  -16258725.21149 -12495960.26046  22182677.5624   22182681.6964
       232.0004        183.0004
  21477998.0034  -17695998.15449 -13581222.95847  21477997.8224   21478002.6374
       237.0004        198.0004
  23851994.1324   -6755191.99749  -5073652.82645  23851994.5184   23852002.3714
       213.0004        153.0004
  20529331.3504  -24449474.27549 -19042432.46648  20529331.3004   20529336.0724
       241.0004        213.0004
  24096508.5934   -4254855.28649  -3306343.87445  24096507.1354   24096515.2494
       213.0004        151.0004
  20623163.8094  -27065966.40249 -20882386.73947  20623163.8514   20623166.0254
       241.0004        212.0004
 06  5 10  1 39  0.0000000  0  6G13G16G24G20G27G23
  22170658.0394  -16321884.42649 -12545175.21446  22170658.6124   22170662.5614
       233.0004        184.0004
  21482782.5114  -17670854.93849 -13561630.83647  21482782.1494   21482787.4934
       237.0004        198.0004
  23858637.6754   -6720279.33349  -5046448.21145  23858637.7694   23858645.8684
       213.0004        153.0004
  20537512.9254  -24406480.10949 -19008930.52948  20537512.6664   20537517.8054
       240.0004        213.0004
  24084118.9134   -4319963.36849  -3357077.32645  24084119.0514   24084126.4064
       212.0004        154.0004
  20618581.4964  -27090046.65449 -20901150.57448  20618581.1034   20618583.7294
       241.0004        213.0004
 06  5 10  1 39 30.0000000  0  6G13G16G24G20G27G23
  22158652.7654  -16384972.58849 -12594334.79446  22158652.9144   22158657.4034
       231.0004        184.0004
  21487676.5374  -17645136.79649 -13541590.71547  21487676.8014   21487680.8364
       239.0004        199.0004
  23865351.4804   -6684998.06449  -5018956.35045  23865351.2614   23865359.3864
       214.0004        154.0004
  20545796.9424  -24362947.15549 -18975008.76048  20545796.8614   20545801.7354
       241.0004        213.0004
  24071765.0684   -4384882.88449  -3407663.85345  24071765.3544   24071772.0814
       216.0004        155.0004
  20614040.6604  -27113908.65949 -20919744.34647  20614040.3574   20614042.6144
       240.0004        212.0004
 06  5 10  1 40  0.0000000  0  6G13G16G24G20G27G23
  22146660.7184  -16447990.23149 -12643439.43146  22146660.9764   22146665.7214
       233.0004        183.0004
  21492679.6394  -17618845.67949 -13521104.12947  21492679.1684   21492684.2384
       237.0004        198.0004
  23872134.6894   -6649351.50849  -4991179.84545  23872134.3354   23872142.1714
       215.0004        154.0004
  20554183.2044  -24318877.52549 -18940668.79548  20554183.0754   20554187.8074
       241.0004        213.0004
  24059447.0444   -4449614.76749  -3458104.18345  24059446.6724   24059453.8854
       213.0004        155.0004
  20609541.2624  -27137552.71849 -20938168.28847  20609541.1024   20609543.0604
       241.0004        212.0004
 06  5 10  1 40 30.0000000  0  6G13G16G24G20G27G23
  22134682.7824  -16510935.20449 -12692487.44646  22134682.7084   22134687.3124
       232.0004        184.0004
  21497791.5714  -17591981.53849 -13500171.02047  21497791.4694   21497795.9754
       237.0004        197.0004
  23878987.3584   -6613340.62149  -4963119.43945  23878987.3514   23878995.5754
       217.0004        155.0004
  20562671.4334  -24274271.34749 -18905910.73548  20562671.0694   20562676.2044
       241.0004        213.0004
  24047164.7004   -4514157.99849  -3508397.50245  24047163.8454   24047171.8284
       209.0004        153.0004
  20605083.9234  -27160976.48849 -20956420.57147  20605084.1174   20605085.6244
       242.0004        212.0004
 06  5 10  1 41  0.0000000  0  6G13G16G24G20G27G23
  22122718.8544  -16573806.37549 -12741477.94346  22122719.6704   22122723.5214
       233.0004        185.0004
  21503012.6454  -17564544.93149 -13478791.85047  21503013.1044   21503017.4304
       238.0004        198.0004
  23885908.9814   -6576967.14249  -4934776.50245  23885908.3004   23885916.7844
       214.0004        155.0004
  20571261.7014  -24229129.28549 -18870735.10848  20571261.3224   20571266.3664
       241.0004        213.0004
  24034918.1924   -4578512.12549  -3558543.46745  24034917.9534   24034925.7034
       211.0004        154.0004
  20600668.8394  -27184178.38549 -20974499.97448  20600668.7144   20600670.7264
       241.0004        213.0004
 06  5 10  1 41 30.0000000  0  6G13G16G24G20G27G23
  22110768.8444  -16636604.40549 -12790411.45846  22110769.0734   22110772.7604
       233.0004        185.0004
  21508342.1284  -17536538.31349 -13456968.49447  21508341.9754   21508346.4284
       238.0004        198.0004
  23892898.8984   -6540235.13849  -4906154.19545  23892900.0004   23892906.9644
       215.0004        155.0004
  20579953.3994  -24183454.22549 -18835144.15547  20579952.9354   20579957.9674
       240.0004        212.0004
  24022707.7924   -4642678.66849  -3608543.27645  24022707.8254   24022715.0504
       212.0004        155.0004
  20596295.8534  -27207158.74849 -20992406.75348  20596295.6714   20596297.8044
       241.0004        213.0004
 06  5 10  1 42  0.0000000  0  6G13G16G24G20G27G23
  22098832.8744  -16699327.90549 -12839286.89446  22098833.3464   22098837.3844
       232.0004        185.0004
  21513780.0504  -17507962.20549 -13434701.39947  21513780.4504   21513784.3404
       239.0004        198.0004
  23899956.7734   -6503145.98749  -4877253.59245  23899956.9344   23899964.9384
       216.0004        155.0004
  20588746.2944  -24137246.87649 -18799138.44247  20588745.9084   20588751.1884
       241.0004        212.0004
  24010532.9964   -4706657.28449  -3658396.64545  24010532.1154   24010539.4404
       210.0004        155.0004
  20591965.2714  -27229916.14349 -21010139.79048  20591965.2294   20591967.0404
       242.0004        213.0004
 06  5 10  1 42 30.0000000  0  6G13G16G24G20G27G23
  22086911.3374  -16761975.81249 -12888103.42946  22086911.3194   22086916.5594
       232.0004        185.0004
  21519326.2174  -17478817.59749 -13411991.31347  21519325.8014   21519330.3164
       237.0004        198.0004
  23907082.1484   -6465701.97349  -4848076.47545  23907082.2514   23907089.6984
       217.0004        155.0004
  20597640.4034  -24090508.27349 -18762718.76548  20597640.2104   20597645.3304
       241.0004        213.0004
  23998393.7234   -4770448.23549  -3708103.77345  23998393.2784   23998401.3784
       208.0004        154.0004
  20587677.3664  -27252449.11249 -21027697.94148  20587677.0884   20587679.3074
       241.0004        213.0004
 06  5 10  1 43  0.0000000  0  6G13G16G24G20G27G23
  22075004.2894  -16824546.89049 -12936860.09646  22075004.4924   22075008.9504
       231.0004        185.0004
  21524980.2574  -17449104.82249 -13388838.49647  21524979.9464   21524984.9344
       238.0004        198.0004
  23914274.9524   -6427904.40049  -4818623.85645  23914275.0524   23914281.9264
       213.0004        155.0004
  20606635.4534  -24043239.09849 -18725885.65848  20606635.2734   20606640.0654
       241.0004        213.0004
  23986290.3274   -4834050.92149  -3757664.19645  23986289.9374   23986297.6494
       213.0004        154.0004
  20583432.5264  -27274755.68249 -21045079.68648  20583432.4164   20583434.5894
       241.0004        214.0004
 06  5 10  1 43 30.0000000  0  6G13G16G24G20G27G23
  22063112.0574  -16887040.54349 -12985556.43346  22063112.5954   22063116.7034
       232.0004        185.0004
  21530742.0684  -17418825.57849 -13365244.27947  21530742.0174   21530746.8654
       237.0004        197.0004
  23921534.3124   -6389756.29949  -4788898.08845  23921534.7964   23921542.4494
       214.0004        155.0004
  20615731.0624  -23995441.56949 -18688640.84847  20615730.9764   20615735.9454
       241.0004        212.0004
  23974223.0034   -4897465.45449  -3807078.02045  23974222.6914   23974229.8314
       211.0004        156.0004
  20579230.9344  -27296835.46049 -21062284.70948  20579231.0054   20579232.8054
       242.0004        214.0004
 06  5 10  1 44  0.0000000  0  6G13G16G24G20G27G23
  22051234.9944  -16949454.96249 -13034191.02746  22051235.3274   22051239.4534
       232.0004        185.0004
  21536611.7224  -17387980.09449 -13341208.84647  21536611.4744   21536615.8574
       236.0004        197.0004
  23928859.9824   -6351258.92049  -4758900.15245  23928859.9854   23928868.4134
       215.0004        155.0004
  20624927.2274  -23947115.38849 -18650984.10247  20624926.9904   20624931.9554
       241.0004        212.0004
  23962191.3284   -4960691.41149  -3856344.88645  23962191.3304   23962198.7994
       213.0004        157.0004
  20575072.9034  -27318686.15849 -21079311.22648  20575072.7344   20575074.5634
       241.0004        213.0004
 06  5 10  1 44 30.0000000  0  6G13G16G24G20G27G23
  22039372.8164  -17011790.97549 -13082764.53446  22039373.6794   22039377.8994
       233.0004        186.0004
  21542588.7194  -17356570.67049 -13316733.96647  21542589.2464   21542593.5784
       237.0004        197.0004
  23936251.4544   -6312416.01549  -4728632.98145  23936251.6684   23936258.9434
       214.0004        155.0004
  20634223.5184  -23898263.20749 -18612917.48247  20634223.1954   20634228.2604
       240.0004        212.0004
  23950195.5214   -5023730.08749  -3905465.82345  23950194.8054   23950202.3594
       214.0004        155.0004
  20570958.3594  -27340308.02949 -21096159.43848  20570958.3224   20570960.1234
       241.0004        213.0004
 06  5 10  1 45  0.0000000  0  6G13G16G24G20G27G23
  22027525.9784  -17074046.99849 -13131275.70246  22027526.8114   22027530.8624
       232.0004        186.0004
  21548672.9144  -17324598.52649 -13291820.59947  21548673.1144   21548677.5014
       237.0004        197.0004
  23943708.3474   -6273229.78349  -4698098.28345  23943709.4554   23943715.8794
       215.0004        155.0004
  20643619.5674  -23848886.75849 -18574442.33847  20643619.2304   20643624.4564
       241.0004        212.0004
  23938235.2764   -5086581.80249  -3954441.07745  23938235.2454   23938241.9094
       212.0004        154.0004
  20566887.5464  -27361699.99149 -21112828.49948  20566887.4404   20566889.0994
       241.0004        213.0004
 06  5 10  1 45 30.0000000  0  6G13G16G24G20G27G23
  22015694.4444  -17136221.83249 -13179723.60446  22015694.8424   22015699.2294
       232.0004        186.0004
  21554863.9794  -17292064.59049 -13266469.47947  21554864.3684   21554868.1094
       237.0004        198.0004
  23951230.4224   -6233701.85149  -4667297.33545  23951230.7684   23951239.2854
       215.0004        155.0004
  20653115.1464  -23798986.83949 -18535559.29347  20653114.5864   20653119.9944
       240.0004        211.0004
  23926310.7374   -5149245.78649  -4003270.05845  23926310.9404   23926317.2004
       215.0004        155.0004
  20562860.9704  -27382860.07949 -21129316.86548  20562860.8984   20562862.8394
       242.0004        213.0004
 06  5 10  1 46  0.0000000  0  6G13G16G24G20G27G23
  22003878.1514  -17198315.93649 -13228108.62146  22003878.0124   22003882.6294
       232.0004        186.0004
  21561161.5404  -17258970.74449 -13240682.06247  21561161.5984   21561166.3464
       237.0004        198.0004
  23958816.7064   -6193836.13849  -4636233.19445  23958817.0464   23958824.8854
       215.0004        154.0004
  20662709.8244  -23748566.27849 -18496270.55847  20662709.5644   20662714.8764
       241.0004        211.0004
  23914421.5804   -5211723.55049  -4051953.92345  23914420.5414   23914428.5664
       213.0004        156.0004
  20558878.3804  -27403788.62649 -21145624.83048  20558878.3654   20558880.4844
       242.0004        214.0004
 06  5 10  1 46 30.0000000  0  6G13G16G24G20G27G23
  21992077.9044  -17260326.15249 -13276428.25346  21992078.2714   21992083.0734
       232.0004        186.0004
  21567565.7994  -17225316.29649 -13214457.81347  21567565.4954   21567570.1894
       236.0004        198.0004
  23966467.2654   -6153632.51049  -4604905.73845  23966467.7804   23966476.7804
       217.0004        155.0004
  20672403.8264  -23697623.97449 -18456575.26847  20672403.6534   20672408.6384
       241.0004        211.0004
  23902567.9564   -5274012.90249  -4100490.99345  23902567.0474   23902574.2834
       210.0004        156.0004
  20554940.5694  -27424482.18349 -21161749.67748  20554940.5914   20554942.1974
       242.0004        214.0004
 06  5 10  1 47  0.0000000  0  6G13G16G24G20G27G23
  21980293.8094  -17322251.84349 -13324682.02646  21980294.4794   21980298.9174
       233.0004        186.0004
  21574076.3264  -17191102.95549 -13187798.06347  21574076.4184   21574080.7554
       237.0004        197.0004
  23974181.6604   -6113093.76849  -4573317.14845  23974182.3994   23974189.4364
       216.0004        155.0004
  20682196.7984  -23646161.78149 -18416474.87747  20682196.7034   20682201.4824
       241.0004        211.0004
  23890750.0954   -5336114.65449  -4148881.85645  23890749.3184   23890756.9544
       213.0004        157.0004
  20551047.6284  -27444939.82749 -21177690.68848  20551047.6964   20551049.2504
       242.0004        214.0004
 06  5 10  1 47 30.0000000  0  6G13G16G24G20G27G23
  21968525.8894  -17384092.69849 -13372869.68846  21968526.3364   21968530.6634
       232.0004        187.0004
  21580692.8914  -17156332.65049 -13160704.31447  21580692.4774   21580697.5624
       236.0004        197.0004
  23981959.1914   -6072222.72049  -4541469.63445  23981960.3644   23981966.8974
       215.0004        155.0004
  20692088.3424  -23594181.66449 -18375970.90947  20692088.1154   20692093.2274
       241.0004        211.0004
  23878968.0574   -5398029.76649  -4197127.31045  23878967.8354   23878975.5284
       213.0004        157.0004
  20547199.7134  -27465160.81949 -21193447.29748  20547199.6504   20547201.7424
       242.0004        214.0004
 06  5 10  1 48  0.0000000  0  6G13G16G24G20G27G23
  21956774.2794  -17445847.42849 -13420990.24846  21956774.7414   21956779.7194
       233.0004        187.0004
  21587415.2764  -17121006.19649 -13133177.20747  21587414.9944   21587419.6284
       235.0004        196.0004
  23989799.7284   -6031021.44549  -4509364.78645  23989798.8884   23989806.6854
       214.0004        154.0004
  20702078.2114  -23541684.89749 -18335064.35347  20702078.0104   20702082.5164
       241.0004        211.0004
  23867221.4554   -5459757.58449  -4245226.82645  23867221.1874   23867228.8644
       214.0004        158.0004
  20543397.0464  -27485144.01549 -21209018.61348  20543396.6624   20543399.0084
       242.0004        214.0004
 06  5 10  1 48 30.0000000  0  6G13G16G24G20G27G23
  21945039.3464  -17507515.47749 -13469043.25847  21945040.1154   21945044.2754
       234.0004        188.0004
  21594243.1724  -17085125.15449 -13105217.94347  21594243.0674   21594247.3014
       235.0004        195.0004
  23997702.2334   -5989492.50749  -4477004.60445  23997701.3274   23997709.7134
       211.0004        152.0004
  20712165.9534  -23488673.32349 -18293756.64247  20712165.6664   20712170.7934
       240.0004        211.0004
  23855510.5024   -5521298.72449  -4293180.89445  23855510.5444   23855517.4794
       212.0004        158.0004
  20539639.8414  -27504888.09549 -21224403.60248  20539639.5434   20539641.8064
       241.0004        214.0004
 06  5 10  1 49  0.0000000  0  6G13G16G24G20G27G23
  21933321.2254  -17569095.35349 -13517027.56447  21933321.7074   21933325.8864
       235.0004        188.0004
  21601176.3854  -17048690.54949 -13076827.34447  21601176.1574   21601180.8984
       235.0004        195.0004
  24005666.6434   -5947638.18949  -4444390.88345  24005666.7234   24005674.5124
       213.0004        153.0004
  20722351.3954  -23435148.15049 -18252048.73547  20722351.1454   20722356.0424
       241.0004        211.0004
  23843834.9414   -5582653.15849  -4340989.45745  23843834.8274   23843841.4574
       212.0004        157.0004
  20535928.3964  -27524391.64949 -21239601.17648  20535928.1434   20535930.3784
       241.0004        214.0004
 06  5 10  1 49 30.0000000  0  6G13G16G24G20G27G23
  21921619.9134  -17630586.38849 -13564942.63847  21921620.3284   21921624.5434
       234.0004        188.0004
  21608214.5964  -17011704.25749 -13048006.84847  21608214.6244   21608219.3314
       236.0004        195.0004
  24013692.7094   -5905461.27449  -4411525.80045  24013693.4564   24013700.7484
       213.0004        154.0004
  20732634.2904  -23381111.43149 -18209942.21647  20732634.2664   20732639.1674
       241.0004        211.0004
  23832195.1104   -5643821.08549  -4388652.70145  23832195.5344   23832201.7744
       214.0004        157.0004
  20532262.8084  -27543653.98749 -21254610.78248  20532262.5504   20532264.7704
       241.0004        214.0004
 06  5 10  1 50  0.0000000  0  6G13G16G24G20G27G23
  21909935.5174  -17691988.51349 -13612788.43247  21909936.3374   21909940.5574
       235.0004        188.0004
  21615357.5144  -16974168.18549 -13018757.96347  21615357.6594   21615362.7034
       236.0004        196.0004
  24021779.6664   -5862964.50949  -4378411.46145  24021780.2384   24021788.2154
       214.0004        155.0004
  20743014.1884  -23326565.05349 -18167438.55647  20743013.8304   20743018.8614
       241.0004        211.0004
  23820590.8244   -5704803.61549  -4436171.46545  23820590.9284   23820598.2364
       214.0004        159.0004
  20528643.3174  -27562674.39449 -21269431.86948  20528643.2464   20528645.4704
       241.0004        214.0004
 06  5 10  1 50 30.0000000  0  6G13G16G24G20G27G23
  21898268.3914  -17753299.93749 -13660563.54147  21898268.5044   21898273.2554
       234.0004        189.0004
  21622604.8814  -16936083.38349 -12989081.48847  21622604.9624   21622608.7994
       237.0004        197.0004
  24029927.1914   -5820150.10249  -4345049.61345  24029927.0984   24029936.1254
       212.0004        155.0004
  20753490.7664  -23271510.21349 -18124538.69347  20753490.4684   20753495.6414
       241.0004        211.0004
  23809021.5354   -5765600.48849  -4483545.55945  23809020.9184   23809028.8544
       212.0004        159.0004
  20525070.2044  -27581451.28749 -21284063.20248  20525070.1404   20525072.1674
       242.0004        214.0004
 06  5 10  1 51  0.0000000  0  6G13G16G24G20G27G23
  21886618.6824  -17814519.38349 -13708266.98747  21886618.9594   21886623.5094
       235.0004        189.0004
  21629956.4404  -16897450.70949 -12958978.09747  21629956.4734   21629960.5394
       236.0004        196.0004
  24038134.4734   -5777020.11249  -4311441.84745  24038133.4374   24038142.8134
       212.0004        154.0004
  20764063.8514  -23215948.24249 -18081243.67147  20764063.6684   20764068.6474
       241.0004        211.0004
  23797487.4754   -5826211.40649  -4530774.77845  23797487.2424   23797494.7344
       214.0004        159.0004
  20521543.7404  -27599983.08749 -21298503.55648  20521543.7114   20521545.5984
       241.0004        214.0004
 06  5 10  1 51 30.0000000  0  6G13G16G24G20G27G23
  21874986.8124  -17875645.07249 -13755897.37547  21874987.6114   21874991.6724
       235.0004        190.0004
  21637412.1064  -16858271.12149 -12928448.54547  21637412.0114   21637416.6464
       236.0004        196.0004
  24046401.6354   -5733576.14449  -4277589.42545  24046402.3724   24046409.2524
       213.0004        154.0004
  20774733.2654  -23159880.04249 -18037554.18347  20774733.0124   20774737.9374
       241.0004        210.0004
  23785988.8324   -5886636.12849  -4577858.91745  23785989.3024   23785996.6894
       216.0004        160.0004
  20518064.2434  -27618268.02449 -21312751.55148  20518064.0804   20518065.9204
       242.0004        214.0004
 06  5 10  1 52  0.0000000  0  6G13G16G24G20G27G23
  21863372.7644  -17936677.71049 -13803455.24747  21863372.7824   21863377.7934
       236.0004        190.0004
  21644971.2434  -16818547.54649 -12897495.10647  21644970.6494   21644975.7834
       236.0004        196.0004
  24054727.9564   -5689822.29949  -4243495.54145  24054728.4784   24054735.8034
       214.0004        154.0004
  20785498.4024  -23103308.60149 -17993472.54847  20785498.1394   20785503.2404
       242.0004        210.0004
  23774525.4274   -5946876.31249  -4624799.24545  23774525.7784   23774532.4654
       217.0004        160.0004
  20514631.6894  -27636306.24449 -21326807.29648  20514631.5164   20514633.3324
       243.0004        214.0004
 06  5 10  1 52 30.0000000  0  6G13G16G24G20G27G23
  21851776.8854  -17997614.43849 -13850938.39247  21851777.3494   21851781.3784
       235.0004        191.0004
  21652633.9474  -16778279.56649 -12866117.47047  21652633.5544   21652638.5824
       235.0004        195.0004
  24063113.0574   -5645759.33049  -4209160.79245  24063113.9734   24063120.8124
       212.0004        154.0004
  20796359.2594  -23046234.26849 -17948999.05147  20796358.8404   20796364.2414
       241.0004        210.0004
  23763097.5404   -6006930.33749  -4671594.50645  23763096.8804   23763104.3604
       215.0004        160.0004
  20511246.6194  -27654095.07549 -21340668.71648  20511246.5004   20511248.2184
       242.0004        214.0004
 06  5 10  1 53  0.0000000  0  6G13G16G24G20G27G23
  21840199.2144  -18058455.55449 -13898347.02747  21840199.6044   21840203.7374
       235.0004        191.0004
  21660399.6244  -16737470.46249 -12834318.17647  21660399.2284   21660403.9194
       235.0004        195.0004
  24071555.9044   -5601390.83049  -4174587.95945  24071555.6194   24071563.2284
       210.0004        153.0004
  20807315.3154  -22988659.80449 -17904135.84547  20807314.9364   20807320.2444
       241.0004        210.0004
  23751704.7414   -6066799.70049  -4718245.86345  23751704.2274   23751711.4764
       214.0004        160.0004
  20507909.0034  -27671634.26549 -21354335.61548  20507908.9404   20507910.7294
       242.0004        214.0004
 06  5 10  1 53 30.0000000  0  6G13G16G24G20G27G23
  21828640.0974  -18119198.75449 -13945679.36547  21828640.1174   21828644.3144
       235.0004        191.0004
  21668268.2804  -16696120.24949 -12802097.23047  21668268.0604   21668272.2384
       236.0004        195.0004
  24080056.5584   -5556717.95049  -4139777.94045  24080056.5344   24080065.5374
       210.0004        152.0004
  20818366.5174  -22930585.37149 -17858883.06247  20818366.5454   20818371.5494
       242.0004        210.0004
  23740347.2884   -6126483.28049  -4764752.47445  23740347.3994   23740354.2354
       215.0004        160.0004
  20504619.4524  -27688921.02349 -21367805.80948  20504619.3474   20504621.3954
       242.0004        214.0004
 06  5 10  1 54  0.0000000  0  6G13G16G24G20G27G23
  21817099.7144  -18179843.67749 -13992935.12047  21817099.8764   21817103.6824
       235.0004        191.0004
  21676239.5834  -16654230.93949 -12769456.19647  21676239.6024   21676243.9454
       236.0004        195.0004
  24088614.8514   -5511744.06649  -4104733.35745  24088614.5294   24088624.0574
       212.0004        152.0004
  20829512.3984  -22872013.86449 -17813242.93447  20829512.1094   20829517.3184
       242.0004        210.0004
  23729025.0004   -6185982.39849  -4811115.35245  23729024.7184   23729031.7424
       219.0004        160.0004
  20501377.9364  -27705955.40849 -21381079.35248  20501377.8114   20501379.5254
       242.0004        214.0004
 06  5 10  1 54 30.0000000  0  6G13G16G24G20G27G23
  21805578.0484  -18240390.11849 -14040114.13547  21805578.3424   21805582.3514
       234.0004        191.0004
  21684312.9824  -16611805.19449 -12736397.16647  21684312.9534   21684317.5084
       236.0004        195.0004
  24097229.7194   -5466472.83749  -4069457.09445  24097229.9654   24097237.7004
       211.0004        152.0004
  20840752.3684  -22812947.82049 -17767217.45847  20840752.2874   20840757.1414
       241.0004        210.0004
  23717737.6944   -6245298.19749  -4857335.39545  23717736.9024   23717744.5554
       213.0004        161.0004
  20498184.4474  -27722737.01849 -21394155.92948  20498184.1524   20498185.9314
       241.0004        214.0004
 06  5 10  1 55  0.0000000  0  6G13G16G24G20G27G23
  21794075.5154  -18300835.98149 -14087214.78147  21794075.9054   21794080.6434
       235.0004        191.0004
  21692488.3554  -16568843.61449 -12702920.59947  21692488.6834   21692493.0454
       235.0004        195.0004
  24105900.9774   -5420905.71649  -4033950.26445  24105901.9414   24105908.7094
       215.0004        152.0004
  20852086.3214  -22753387.77049 -17720807.04447  20852085.9414   20852090.9864
       241.0004        210.0004
  23706484.7134   -6304429.89149  -4903411.94545  23706484.2824   23706492.1374
       214.0004        160.0004
  20495039.5854  -27739263.50349 -21407033.70148  20495039.3594   20495041.4734
       242.0004        214.0004
 06  5 10  1 55 30.0000000  0  6G13G16G24G20G27G23
  21782592.4824  -18361179.90449 -14134235.99347  21782592.5654   21782596.8544
       235.0004        192.0004
  21700765.3954  -16525347.54249 -12669027.56047  21700765.5934   21700770.1404
       235.0004        196.0004
  24114628.3134   -5375044.65949  -3998214.38845  24114627.8514   24114635.9644
       213.0004        152.0004
  20863513.8844  -22693335.29849 -17674012.92647  20863513.6404   20863518.7074
       241.0004        209.0004
  23695267.2664   -6363377.16549  -4949344.82845  23695267.7874   23695274.5774
       215.0004        161.0004
  20491943.4854  -27755533.58049 -21419711.68348  20491943.4034   20491945.3974
       242.0004        214.0004
 06  5 10  1 56  0.0000000  0  6G13G16G24G20G27G23
  21771128.7664  -18421421.73349 -14181177.64247  21771128.8314   21771133.4204
       235.0004        192.0004
  21709143.5904  -16481319.96849 -12634720.36147  21709143.2334   21709148.1944
       235.0004        196.0004
  24123410.4414   -5328893.00449  -3962252.06545  24123410.5704   24123418.7484
       212.0004        153.0004
  20875034.6444  -22632793.27849 -17626837.33747  20875034.1854   20875039.4864
       241.0004        209.0004
  23684084.9864   -6422141.52249  -4995135.16745  23684085.1094   23684092.1694
       216.0004        161.0004
  20488896.3074  -27771546.65649 -21432189.39948  20488896.1624   20488898.0284
       242.0004        214.0004
 06  5 10  1 56 30.0000000  0  6G13G16G24G20G27G23
  21759684.9834  -18481559.07749 -14228037.88847  21759685.3934   21759689.0854
       235.0004        192.0004
  21717622.8844  -16436760.63049 -12599998.80847  21717622.6234   21717627.3354
       234.0004        196.0004
  24132247.6204   -5282452.08549  -3926064.36245  24132247.7034   24132257.0374
       212.0004        153.0004
  20886648.4674  -22571762.04249 -17579280.54847  20886648.1444   20886653.3894
       241.0004        209.0004
  23672937.5154   -6480721.84549  -5040782.09245  23672937.8364   23672944.3024
       216.0004        161.0004
  20485898.5234  -27787300.23649 -21444464.91348  20485898.4184   20485900.2074
       242.0004        214.0004
 06  5 10  1 57  0.0000000  0  6G13G16G24G20G27G23
  21748261.3204  -18541590.76949 -14274815.80947  21748261.7124   21748265.6804
       235.0004        191.0004
  21726203.0444  -16391671.53649 -12564864.45747  21726203.0134   21726207.6934
       235.0004        195.0004
  24141139.6904   -5235724.62249  -3889653.39345  24141139.4274   24141148.3584
       210.0004        153.0004
  20898355.0924  -22510243.49849 -17531344.03747  20898354.8304   20898359.6214
       241.0004        209.0004
  23661824.9674   -6539118.62849  -5086286.00745  23661824.9494   23661831.4294
       214.0004        161.0004
  20482950.3934  -27802792.98049 -21456537.17848  20482950.1394   20482952.2874
       242.0004        214.0004
 06  5 10  1 57 30.0000000  0  6G13G16G24G20G27G23
  21736857.6644  -18601516.99149 -14321511.54847  21736857.8164   21736862.5434
       235.0004        191.0004
  21734883.4684  -16346055.48149 -12529319.48547  21734883.3534   21734887.5584
       235.0004        194.0004
  24150085.4784   -5188714.34049  -3853022.04145  24150085.0244   24150094.1614
       211.0004        153.0004
  20910153.7664  -22448240.84049 -17483030.29147  20910153.4624   20910158.5704
       241.0004        208.0004
  23650747.1144   -6597333.21349  -5131647.94145  23650746.3594   23650753.8974
       216.0004        162.0004
  20480051.7274  -27818025.45649 -21468406.63748  20480051.5354   20480053.6124
       242.0004        215.0004
 06  5 10  1 58  0.0000000  0  6G13G16G24G20G27G23
  21725474.2654  -18661336.74749 -14368124.32747  21725474.6374   21725478.8394
       237.0004        192.0004
  21743663.9524  -16299914.03049 -12493365.10347  21743663.8854   21743668.1274
       235.0004        193.0004
  24159084.5954   -5141423.76749  -3816172.30345  24159085.0034   24159093.1034
       214.0004        153.0004
  20922044.1994  -22385755.94249 -17434340.76747  20922043.8004   20922049.0284
       241.0004        208.0004
  23639703.7764   -6655366.04049  -5176868.25845  23639703.8644   23639710.4814
       218.0004        162.0004
  20477202.9584  -27832995.95349 -21480071.95548  20477202.8774   20477204.8684
       242.0004        215.0004
 06  5 10  1 58 30.0000000  0  6G13G16G24G20G27G23
  21714111.6474  -18721047.62149 -14414652.26047  21714111.8734   21714116.3594
       235.0004        192.0004
  21752544.0514  -16253248.17249 -12457002.09447  21752543.5574   21752547.8004
       235.0004        193.0004
  24168136.8264   -5093854.69849  -3779105.52345  24168136.6674   24168145.3794
       213.0004        154.0004
  20934026.2644  -22322789.77449 -17385276.23147  20934026.1454   20934031.2974
       241.0004        208.0004
  23628695.3684   -6713216.39049  -5221946.40345  23628694.7054   23628701.8564
       215.0004        162.0004
  20474404.3894  -27847702.52649 -21491531.62048  20474404.2554   20474406.3414
       242.0004        215.0004
 06  5 10  1 59  0.0000000  0  6G13G16G24G20G27G23
  21702769.9104  -18780648.58549 -14461094.55547  21702770.3054   21702774.8254
       235.0004        192.0004
  21761523.7934  -16206059.44049 -12420231.65647  21761523.9004   21761528.2684
       235.0004        193.0004
  24177241.3944   -5046009.41149  -3741823.50745  24177241.1844   24177250.0794
       214.0004        153.0004
  20946099.6934  -22259343.82349 -17335837.84647  20946099.7174   20946104.6484
       241.0004        208.0004
  23617721.3084   -6770884.41849  -5266882.46045  23617720.8624   23617727.9394
       216.0004        161.0004
  20471656.3904  -27862143.49149 -21502784.33248  20471656.3574   20471658.4394
       242.0004        215.0004
 06  5 10  1 59 30.0000000  0  6G13G16G24G20G27G23
  21691449.3544  -18840138.79749 -14507450.54947  21691450.1124   21691454.1694
       236.0004        193.0004
  21770602.6284  -16158349.92649 -12383055.40847  21770602.6054   21770606.7694
       235.0004        193.0004
  24186398.1984   -4997890.84549  -3704328.55145  24186397.7154   24186405.9594
       213.0004        153.0004
  20958263.9314  -22195420.49749 -17286027.47847  20958263.7664   20958268.7254
       241.0004        208.0004
  23606781.8694   -6828370.53749  -5311676.77245  23606781.4954   23606789.4444
       215.0004        162.0004
  20468958.9754  -27876318.35249 -21513829.68148  20468958.8854   20468960.6974
       241.0004        215.0004
 06  5 10  2  0  0.0000000  0  6G13G16G24G20G27G23
  21680149.9494  -18899517.59849 -14553719.73147  21680150.7244   21680154.3124
       236.0004        193.0004
  21779780.0584  -16110122.08449 -12345475.26547  21779780.2124   21779784.5064
       235.0004        193.0004
  24195606.2994   -4949502.03149  -3666623.01845  24195605.9014   24195614.3734
       213.0004        152.0004
  20970518.5544  -22131022.33149 -17235847.09147  20970517.9334   20970523.5504
       240.0004        208.0004
  23595876.7714   -6885676.04049  -5356330.34646  23595877.4444   23595883.4974
       216.0004        163.0004
  20466312.4264  -27890225.94849 -21524666.76548  20466312.4074   20466314.2494
       242.0004        215.0004
 06  5 10  2  0 30.0000000  0  6G13G16G24G20G27G23
  21668872.2334  -18958782.84749 -14599900.43447  21668872.8024   21668876.8614
       237.0004        193.0004
  21789056.0064  -16061376.75249 -12307491.89747  21789056.1804   21789060.5924
       234.0004        194.0004
  24204865.5744   -4900844.52049  -3628708.11345  24204865.0214   24204873.1084
       211.0004        152.0004
  20982863.1664  -22066150.30849 -17185297.48247  20982862.8764   20982868.1894
       241.0004        208.0004
  23585006.4664   -6942800.17649  -5400842.59846  23585006.4004   23585013.3954
       216.0004        164.0004
  20463717.0704  -27903864.45349 -21535294.17648  20463716.7444   20463719.0694
       241.0004        214.0004
 06  5 10  2  1  0.0000000  0  6G13G16G24G20G27G23
  21657615.9334  -19017934.78049 -14645992.83647  21657615.9844   21657620.6044
       236.0004        193.0004
  21798429.8184  -16012117.12449 -12269107.78147  21798429.9414   21798434.2214
       235.0004        194.0004
  24214175.0434   -4851922.47049  -3590587.08145  24214174.9264   24214184.2854
       213.0004        151.0004
  20995297.4554  -22000807.83749 -17134381.28047  20995297.4884   20995302.4344
       241.0004        207.0004
  23574170.2504   -6999744.49749  -5445214.71546  23574169.9224   23574176.6374
       217.0004        164.0004
  20461172.8894  -27917233.89849 -21545711.92148  20461172.7054   20461174.9924
       241.0004        215.0004
 06  5 10  2  1 30.0000000  0  6G13G16G24G20G27G23
  21646381.6314  -19076970.99249 -14691995.07647  21646382.0424   21646386.2954
       237.0004        194.0004
  21807901.4084  -15962343.44049 -12230323.10447  21807901.4944   21807905.5354
       233.0004        193.0004
  24223534.6354   -4802737.36249  -3552261.08245  24223534.8664   24223543.3334
       210.0004        151.0004
  21007821.1694  -21934995.72749 -17083099.13447  21007820.8984   21007825.9294
       241.0004        207.0004
  23563368.2224   -7056508.52749  -5489446.35946  23563368.4594   23563374.8894
       218.0004        164.0004
  20458680.4314  -27930331.89049 -21555918.14248  20458680.3804   20458682.3684
       242.0004        215.0004
 06  5 10  2  2  0.0000000  0  6G13G16G24G20G27G23
  21635169.7974  -19135889.95449 -14737905.93747  21635170.1934   21635174.2854
       238.0004        194.0004
  21817470.4784  -15912057.65149 -12191139.37647  21817470.5694   21817475.0674
       233.0004        193.0004
  24232943.9584   -4753291.55549  -3513731.90345  24232944.2724   24232951.7414
       213.0004        153.0004
  21020433.8824  -21868715.63149 -17031452.31847  21020433.6774   21020438.8524
       240.0004        207.0004
  23552600.7744   -7113091.94049  -5533537.26146  23552601.1144   23552608.2254
       218.0004        165.0004
  20456239.9764  -27943156.93549 -21565911.67348  20456239.8004   20456241.6344
       242.0004        215.0004
 06  5 10  2  2 30.0000000  0  6G13G16G24G20G27G23
  21623980.2374  -19194691.73649 -14783725.49347  21623980.5904   21623984.8754
       237.0004        194.0004
  21827136.3724  -15861262.99549 -12151559.13347  21827136.3284   21827141.1724
       233.0004        192.0004
  24242402.1914   -4703588.86949  -3475002.56845  24242402.2744   24242410.6854
       213.0004        152.0004
  21033135.0754  -21801970.70749 -16979443.29447  21033135.1934   21033140.1884
       242.0004        207.0004
  23541867.3564   -7169496.57249  -5577488.83846  23541866.8354   23541874.0944
       217.0004        165.0004
  20453851.3814  -27955709.05249 -21575692.54048  20453851.2634   20453853.1934
       242.0004        215.0004
 06  5 10  2  3  0.0000000  0  6G13G16G24G20G27G23
  21612813.5044  -19253373.23349 -14829451.31947  21612813.7104   21612818.1484
       237.0004        194.0004
  21836899.1574  -15809959.22349 -12111582.17047  21836899.3694   21836903.3904
       234.0004        192.0004
  24251908.8404   -4653629.86749  -3436073.54145  24251908.4534   24251917.4914
       209.0004        151.0004
  21045924.7244  -21734761.10449 -16927072.17947  21045924.1004   21045929.6874
       240.0004        207.0004
  23531168.0734   -7225721.01049  -5621300.02446  23531168.9214   23531174.6904
       218.0004        164.0004
  20451515.3424  -27967985.02849 -21585258.22648  20451515.1614   20451517.1774
       242.0004        215.0004
 06  5 10  2  3 30.0000000  0  6G13G16G24G20G27G23
  21601669.5244  -19311934.65949 -14875083.58947  21601669.7354   21601673.7764
       236.0004        195.0004
  21846758.1644  -15758149.77349 -12071211.16647  21846758.1044   21846762.5594
       234.0004        192.0004
  24261463.8274   -4603419.02349  -3396948.26645  24261463.7684   24261472.2874
       211.0004        149.0004
  21058801.9044  -21667090.53649 -16874341.87947  21058801.3854   21058806.6504
       240.0004        206.0004
  23520503.0794   -7281767.00549  -5664972.16746  23520503.4144   23520510.0264
       219.0004        165.0004
  20449231.7844  -27979985.10549 -21594608.93148  20449231.6714   20449233.8324
       242.0004        215.0004
 06  5 10  2  4  0.0000000  0  6G13G16G24G20G27G23
  21590548.6274  -19370375.21649 -14920621.67147  21590549.3544   21590553.1784
       238.0004        195.0004
  21856713.0714  -15705836.77549 -12030447.80047  21856713.4324   21856717.3464
       234.0004        192.0004
  24271066.0494   -4552959.27749  -3357629.01245  24271065.9414   24271074.3974
       211.0004        147.0004
  21071766.3604  -21598961.52349 -16821254.35347  21071766.0304   21071771.4394
       241.0004        206.0004
  23509871.8374   -7337635.15749  -5708505.72446  23509871.6354   23509878.0464
       218.0004        165.0004
  20447000.9584  -27991708.29449 -21603743.88348  20447000.7964   20447002.6084
       243.0004        215.0004
 06  5 10  2  4 30.0000000  0  6G13G16G24G20G27G23
  21579451.2784  -19428692.36849 -14966063.58847  21579451.6964   21579455.9804
       238.0004        195.0004
  21866763.5294  -15653021.19549 -11989292.80247  21866763.5854   21866768.1394
       234.0004        192.0004
  24280715.2774   -4502251.81549  -3318116.76745  24280714.1014   24280724.2314
       208.0004        146.0004
  21084817.9454  -21530374.73449 -16767810.11747  21084817.5854   21084823.0544
       240.0004        206.0004
  23499274.2684   -7393324.82549  -5751900.20146  23499274.3014   23499280.6884
       217.0004        165.0004
  20444823.1924  -28003152.18049 -21612661.19048  20444822.8944   20444824.9454
       242.0004        215.0004
 06  5 10  2  5  0.0000000  0  6G13G16G24G20G27G23
  21568377.6034  -19486884.88149 -15011408.38947  21568378.1434   21568382.3324
       238.0004        196.0004
  21876909.2694  -15599704.85949 -11947747.60747  21876909.0114   21876914.2334
       233.0004        192.0004
  24290411.1994   -4451299.57949  -3278413.78945  24290411.2784   24290419.2364
       212.0004        148.0004
  21097956.3334  -21461332.07549 -16714010.66047  21097956.2594   21097961.5524
       240.0004        206.0004
  23488710.7134   -7448836.40849  -5795155.91246  23488710.7544   23488717.9594
       219.0004        165.0004
  20442698.8814  -28014315.35249 -21621359.75848  20442698.5944   20442700.7964
       242.0004        215.0004
 06  5 10  2  5 30.0000000  0  6G13G16G24G20G27G23
  21557327.7854  -19544952.15349 -15056655.59547  21557328.3624   21557332.4724
       239.0004        197.0004
  21887149.7784  -15545890.24149 -11905814.14747  21887149.7724   21887154.3824
       234.0004        192.0004
  24300153.4024   -4400105.19949  -3238522.12745  24300153.6044   24300162.0784
       214.0004        150.0004
  21111180.9454  -21391836.42149 -16659858.21847  21111180.7944   21111186.0664
       240.0004        206.0004
  23478181.2734   -7504170.34349  -5838273.20146  23478180.7844   23478186.5684
       217.0004        165.0004
  20440628.1374  -28025197.19849 -21629839.11948  20440627.9584   20440629.7964
       242.0004        215.0004
 06  5 10  2  6  0.0000000  0  6G13G16G24G20G27G23
  21546302.0474  -19602892.80949 -15101804.14447  21546302.3254   21546306.8374
       239.0004        197.0004
  21897484.7864  -15491579.79049 -11863494.32747  21897484.7274   21897489.1184
       233.0004        191.0004
  24309940.8854   -4348671.88449  -3198444.27845  24309941.5284   24309949.4124
       213.0004        152.0004
  21124491.3414  -21321889.99049 -16605354.52747  21124491.0994   21124496.2754
       240.0004        206.0004
  23467684.9704   -7559327.52449  -5881252.76046  23467684.1504   23467690.9784
       217.0004        165.0004
  20438611.0224  -28035796.87649 -21638098.60448  20438610.7144   20438612.6214
       242.0004        215.0004
 06  5 10  2  6 30.0000000  0  6G13G16G24G20G27G23
  21535300.7844  -19660704.86249 -15146852.48047  21535301.1414   21535305.6144
       238.0004        197.0004
  21907913.8954  -15436774.53449 -11820788.94847  21907913.9374   21907918.1344
       234.0004        191.0004
  24319773.4744   -4297001.54649  -3158181.73345  24319774.0614   24319782.0924
       213.0004        151.0004
  21137887.2284  -21251494.00049 -16550500.53447  21137886.8454   21137892.4214
       240.0004        205.0004
  23457222.4504   -7614307.62549  -5924094.32246  23457222.1134   23457228.7264
       219.0004        165.0004
  20436648.0684  -28046112.16949 -21646136.48948  20436647.8834   20436649.8784
       242.0004        215.0004
 06  5 10  2  7  0.0000000  0  6G13G16G24G20G27G23
  21524324.0564  -19718387.59549 -15191800.05247  21524324.5704   21524328.7014
       238.0004        197.0004
  21918436.7064  -15381476.93249 -11777699.91047  21918436.5624   21918441.1334
       234.0004        191.0004
  24329650.7224   -4245097.46249  -3117737.05145  24329651.5334   24329658.2254
       213.0004        149.0004
  21151368.0854  -21180651.55649 -16495298.65347  21151367.8234   21151373.1424
       240.0004        205.0004
  23446793.5184   -7669111.84949  -5966798.84746  23446792.8734   23446799.5124
       218.0004        166.0004
  20434739.3114  -28056142.78749 -21653952.55448  20434739.3144   20434741.2734
       242.0004        216.0004
 06  5 10  2  7 30.0000000  0  6G13G16G24G20G27G23
  21513372.2214  -19775939.77049 -15236645.88347  21513372.4924   21513376.4504
       239.0004        197.0004
  21929052.8054  -15325689.11249 -11734228.88247  21929052.5434   21929057.2244
       233.0004        191.0004
  24339571.7194   -4192962.14049  -3077112.19845  24339571.1564   24339578.6294
       209.0004        147.0004
  21164933.5624  -21109364.95149 -16439750.67047  21164933.3124   21164938.0624
       241.0004        205.0004
  23436398.0194   -7723740.16349  -6009366.30846  23436398.4994   23436405.2394
       219.0004        167.0004
  20432885.0604  -28065887.12349 -21661545.54448  20432884.8284   20432886.9794
       242.0004        216.0004
 06  5 10  2  8  0.0000000  0  6G13G16G24G20G27G23
  21502445.6224  -19833359.36349 -15281388.40547  21502445.9564   21502450.6934
       239.0004        197.0004
  21939761.9024  -15269412.10649 -11690376.68447  21939761.6094   21939766.2834
       234.0004        191.0004
  24349536.2584   -4140597.67749  -3036308.80445  24349535.5974   24349543.8084
       211.0004        145.0004
  21178583.3774  -21037635.12049 -16383857.31347  21178583.0424   21178587.9244
       240.0004        204.0004
  23426036.1224   -7778192.34849  -6051796.52446  23426036.0534   23426042.2354
       219.0004        168.0004
  20431085.6764  -28075342.94749 -21668913.72148  20431085.5944   20431087.2864
       242.0004        215.0004
 06  5 10  2  8 30.0000000  0  6G13G16G24G20G27G23
  21491544.3354  -19890645.55249 -15326026.97947  21491544.9634   21491549.1514
       240.0004        198.0004
  21950563.6174  -15212648.74849 -11646145.49247  21950563.7614   21950568.6944
       234.0004        192.0004
  24359543.8414   -4088007.42349  -2995329.43445  24359544.6184   24359551.5514
       213.0004        146.0004
  21192316.9324  -20965465.01649 -16327620.88547  21192317.0144   21192321.7444
       241.0004        204.0004
  23415707.5074   -7832469.58049  -6094090.41246  23415706.7644   23415713.9314
       218.0004        167.0004
  20429341.2714  -28084510.03249 -21676056.90048  20429340.9224   20429343.0284
       241.0004        215.0004
 06  5 10  2  9  0.0000000  0  6G13G16G24G20G27G23
  21480668.7534  -19947797.36749 -15370560.84647  21480669.1824   21480673.3314
       240.0004        198.0004
  21961457.5344  -15155401.33849 -11601537.13047  21961457.3794   21961462.4214
       233.0004        192.0004
  24369594.0404   -4035193.94149  -2954176.13545  24369594.1114   24369603.2254
       210.0004        147.0004
  21206133.8654  -20892856.94749 -16271043.18047  21206133.6994   21206138.5704
       241.0004        204.0004
  23405411.9204   -7886572.54149  -6136248.49946  23405411.2314   23405418.2894
       219.0004        167.0004
  20427651.9254  -28093387.18349 -21682974.16248  20427651.5914   20427654.0174
       241.0004        215.0004
 06  5 10  2  9 30.0000000  0  6G13G16G24G20G27G23
  21469818.8514  -20004813.73249 -15414989.17147  21469819.3034   21469823.6124
       240.0004        199.0004
  21972443.0484  -15097672.40049 -11556553.55447  21972442.9744   21972447.4074
       232.0004        191.0004
  24379685.8914   -3982160.52049  -2912851.45245  24379686.6844   24379694.2694
       212.0004        149.0004
  21220033.6184  -20819813.73249 -16214126.40247  21220033.2474   21220038.2164
       241.0004        204.0004
  23395149.5794   -7940501.96049  -6178271.36346  23395149.0354   23395155.2564
       220.0004        168.0004
  20426017.9384  -28101973.60349 -21689664.88248  20426017.8424   20426020.0634
       242.0004        215.0004
 06  5 10  2 10  0.0000000  0  6G13G16G24G20G27G23
  21458995.1704  -20061692.89749 -15459310.58247  21458995.5074   21458999.7184
       241.0004        199.0004
  21983519.7904  -15039463.38649 -11511195.88647  21983519.5864   21983524.5914
       232.0004        190.0004
  24389819.4954   -3928909.30249  -2871357.02545  24389819.3094   24389827.1914
       211.0004        148.0004
  21234015.7764  -20746336.85749 -16156871.71447  21234015.3274   21234020.5634
       241.0004        203.0004
  23384920.1724   -7994257.22049  -6220158.52146  23384919.5174   23384926.2484
       220.0004        168.0004
  20424439.7184  -28110267.47349 -21696127.64948  20424439.7354   20424441.5114
       242.0004        215.0004
 06  5 10  2 10 30.0000000  0  6G13G16G24G20G27G23
  21448197.9734  -20118432.55449 -15503523.29147  21448198.3314   21448202.5094
       240.0004        199.0004
  21994687.6714  -14980775.48949 -11465465.07347  21994687.4554   21994692.1474
       232.0004        190.0004
  24399993.7774   -3875442.11949  -2829694.34845  24399993.3664   24400001.8204
       208.0004        147.0004
  21248080.1234  -20672428.05049 -16099280.44947  21248079.4614   21248085.2404
       240.0004        203.0004
  23374723.8464   -8047838.51249  -6261910.13046  23374724.0254   23374729.9114
       219.0004        168.0004
  20422917.6324  -28118266.37349 -21702360.56048  20422917.4784   20422919.5984
       242.0004        215.0004
 06  5 10  2 11  0.0000000  0  6G13G16G24G20G27G23
  21437427.5004  -20175031.72449 -15547626.52947  21437428.0474   21437431.8354
       240.0004        199.0004
  22005946.1854  -14921611.54849 -11419363.29847  22005946.1604   22005950.6534
       233.0004        190.0004
  24410208.8464   -3821762.41149  -2787866.07845  24410209.7834   24410216.6674
       211.0004        147.0004
  21262226.0674  -20598089.97949 -16041354.70147  21262225.7374   21262231.1694
       241.0004        203.0004
  23364560.4474   -8101246.87249  -6303526.97746  23364559.8324   23364566.9464
       218.0004        168.0004
  20421451.6224  -28125970.09949 -21708363.46348  20421451.2834   20421453.5194
       241.0004        215.0004
 06  5 10  2 11 30.0000000  0  6G13G16G24G20G27G23
  21426683.7974  -20231490.01949 -15591619.99847  21426684.0854   21426688.4584
       241.0004        199.0004
  22017294.8014  -14861974.60449 -11372892.96547  22017295.0744   22017299.3014
       234.0004        190.0004
  24420463.7224   -3767873.57149  -2745874.84645  24420463.4354   24420471.5184
       208.0004        146.0004
  21276453.2424  -20523325.62149 -15983096.77647  21276452.8084   21276458.0684
       240.0004        203.0004
  23354429.5974   -8154483.56349  -6345010.07046  23354429.5154   23354435.8654
       218.0004        167.0004
  20420041.9154  -28133377.89549 -21714135.78048  20420041.7794   20420043.8734
       242.0004        215.0004
 06  5 10  2 12  0.0000000  0  6G13G16G24G20G27G23
  21415967.2394  -20287805.71049 -15635502.34147  21415967.6744   21415971.7604
       241.0004        200.0004
  22028733.0484  -14801866.51449 -11326055.49947  22028732.7564   22028737.1024
       233.0004        190.0004
  24430757.9004   -3713778.04149  -2703722.55245  24430757.6484   24430766.0524
       211.0004        146.0004
  21290761.1214  -20448137.03049 -15924508.28147  21290760.7634   21290766.2264
       241.0004        203.0004
  23344331.6814   -8207548.33849  -6386359.19446  23344331.9954   23344338.1454
       219.0004        167.0004
  20418688.8584  -28140488.27949 -21719676.33948  20418688.9064   20418690.6844
       242.0004        215.0004
 06  5 10  2 12 30.0000000  0  6G13G16G24G20G27G23
  21405278.2824  -20343976.74949 -15679271.97347  21405278.6044   21405282.9964
       241.0004        200.0004
  22040260.6134  -14741288.38849 -11278851.77347  22040260.7054   22040264.5924
       234.0004        189.0004
  24441091.1074   -3659477.89549  -2661410.80045  24441091.2854   24441098.5854
       211.0004        147.0004
  21305149.4264  -20372526.04249 -15865590.65247  21305149.3624   21305154.3274
       241.0004        203.0004
  23334266.4464   -8260441.21649  -6427574.39146  23334266.0444   23334273.3994
       221.0004        167.0004
  20417392.8094  -28147299.40149 -21724983.71648  20417392.8434   20417394.3854
       242.0004        215.0004
 06  5 10  2 13  0.0000000  0  6G13G16G24G20G27G23
  21394617.0684  -20400001.83849 -15722927.88347  21394617.5644   21394622.0614
       240.0004        201.0004
  22051877.2854  -14680242.55649 -11231283.60547  22051877.5434   22051881.5414
       232.0004        189.0004
  24451462.3804   -3604975.67449  -2618941.57145  24451461.2264   24451470.6784
       211.0004        147.0004
  21319617.8474  -20296494.51449 -15806345.32647  21319617.6164   21319622.5944
       240.0004        202.0004
  23324233.9264   -8313162.54849  -6468655.89746  23324233.9394   23324240.3324
       220.0004        168.0004
  20416153.9164  -28153809.85549 -21730056.80248  20416153.9814   20416155.7154
       242.0004        215.0004
 06  5 10  2 13 30.0000000  0  6G13G16G24G20G27G23
  21383983.8214  -20455879.82049 -15766469.15947  21383984.3764   21383988.6764
       241.0004        201.0004
  22063582.4024  -14618731.64449 -11183353.02847  22063582.5804   22063586.8984
       233.0004        189.0004
  24461871.4374   -3550274.62849  -2576317.43245  24461870.9194   24461879.9014
       210.0004        147.0004
  21334165.5844  -20220045.44349 -15746774.63947  21334165.4654   21334170.2614
       240.0004        202.0004
  23314234.0234   -8365713.37649  -6509604.55246  23314234.6014   23314240.2284
       221.0004        168.0004
  20414972.3784  -28160018.87649 -21734894.99348  20414972.2594   20414974.1924
       242.0004        215.0004
 06  5 10  2 14  0.0000000  0  6G13G16G24G20G27G23
  21373379.0364  -20511608.45949 -15809894.06447  21373379.5474   21373383.6594
       241.0004        201.0004
  22075375.7454  -14556756.88949 -11135061.02147  22075376.1154   22075380.7714
       232.0004        189.0004
  24472317.9814   -3495376.67149  -2533539.87245  24472318.3574   24472325.9234
       209.0004        145.0004
  21348792.5924  -20143180.36349 -15686879.79047  21348792.7584   21348797.5364
       241.0004        202.0004
  23304266.5834   -8418093.21949  -6550419.97946  23304266.7424   23304272.0354
       222.0004        169.0004
  20413848.5664  -28165924.56549 -21739496.82548  20413848.5774   20413850.1464
       242.0004        215.0004
 06  5 10  2 14 30.0000000  0  6G13G16G24G20G27G23
  21362802.5954  -20567188.05849 -15853202.82847  21362802.8994   21362806.8264
       241.0004        201.0004
  22087256.6964  -14494322.31049 -11086410.70747  22087256.6804   22087260.4974
       231.0004        188.0004
  24482801.4044   -3440286.22149  -2490612.34145  24482800.2404   24482810.4614
       205.0004        144.0004
  21363498.0724  -20065903.16149 -15626663.81347  21363498.1484   21363502.9094
       241.0004        202.0004
  23294331.1794   -8470304.09849  -6591103.73646  23294330.7504   23294336.6264
       221.0004        169.0004
  20412782.4404  -28171527.18549 -21743862.49748  20412782.2154   20412784.0724
       242.0004        215.0004
 06  5 10  2 15  0.0000000  0  6G13G16G24G20G27G23
  21352255.0014  -20622615.69149 -15896393.17847  21352255.2114   21352259.6634
       240.0004        201.0004
  22099224.9434  -14431428.96249 -11037402.93446  22099225.0254   22099229.0764
       232.0004        187.0004
  24493320.9054   -3385004.44649  -2447535.72045  24493320.5874   24493329.5434
       207.0004        144.0004
  21378281.6464  -19988215.06549 -15566127.66547  21378281.3944   21378286.4974
       240.0004        202.0004
  23284427.9024   -8522345.16549  -6631655.17146  23284427.6164   23284434.1864
       222.0004        170.0004
  20411774.4414  -28176824.10949 -21747989.96848  20411774.0734   20411776.2574
       241.0004        215.0004
 06  5 10  2 15 30.0000000  0  6G13G16G24G20G27G23
  21341736.4044  -20677891.31249 -15939465.07247  21341736.8134   21341740.7854
       241.0004        201.0004
  22111279.8814  -14368080.00249 -10988040.10746  22111279.3504   22111283.7434
       231.0004        186.0004
  24503876.5064   -3329535.73549  -2404313.46445  24503877.5994   24503885.9244
       211.0004        146.0004
  21393142.7554  -19910119.61849 -15505274.08447  21393142.4064   21393147.3144
       240.0004        202.0004
  23274556.8184   -8574218.48349  -6672075.89346  23274557.3094   23274562.5004
       222.0004        171.0004
  20410824.5854  -28181815.48249 -21751879.34448  20410824.3904   20410826.2074
       241.0004        215.0004
 06  5 10  2 16  0.0000000  0  6G13G16G24G20G27G23
  21331247.1414  -20733012.73449 -15982416.81947  21331247.1654   21331251.8664
       239.0004        201.0004
  22123421.1094  -14304277.02249 -10938323.49946  22123420.8844   22123425.9944
       233.0004        187.0004
  24514467.5744   -3273881.82549  -2360946.84045  24514468.0074   24514475.4244
       209.0004        148.0004
  21408080.9114  -19831618.56349 -15444104.45947  21408080.6744   21408085.7824
       240.0004        200.0004
  23264717.8414   -8625923.65149  -6712365.58946  23264717.4614   23264723.9524
       223.0004        172.0004
  20409933.2664  -28186499.35449 -21755529.11548  20409933.2574   20409935.1734
       242.0004        215.0004
 06  5 10  2 16 30.0000000  0  6G13G16G24G20G27G23
  21320787.2424  -20787978.99549 -16025247.66847  21320788.0664   21320792.2214
       241.0004        201.0004
  22135648.3964  -14240022.77049 -10888255.26846  22135648.1904   22135652.9094
       233.0004        187.0004
  24525092.7804   -3218045.90349  -2317438.40645  24525093.1914   24525101.6514
       212.0004        148.0004
  21423095.8254  -19752714.55949 -15382620.84247  21423095.4504   21423100.4904
       240.0004        200.0004
  23254910.5034   -8677461.01149  -6752524.53146  23254909.6014   23254917.0684
       221.0004        172.0004
  20409100.6814  -28190874.81149 -21758938.55448  20409100.4044   20409102.4224
       241.0004        215.0004
 06  5 10  2 17  0.0000000  0  6G13G16G24G20G27G23
  21310357.4824  -20842788.41249 -16067956.28547  21310358.1364   21310361.8964
       241.0004        201.0004
  22147961.1484  -14175319.22349 -10837836.93447  22147961.4754   22147965.5134
       233.0004        188.0004
  24535752.2904   -3162030.57949  -2273790.18345  24535752.2224   24535760.3944
       209.0004        145.0004
  21438187.0994  -19673409.74649 -15320824.90447  21438186.8224   21438191.8564
       239.0004        200.0004
  23245134.8794   -8728831.37749  -6792553.35146  23245134.3584   23245140.9354
       222.0004        172.0004
  20408326.9414  -28194940.46349 -21762106.58548  20408326.6394   20408328.9604
       242.0004        215.0004
 06  5 10  2 17 30.0000000  0  6G13G16G24G20G27G23
  21299957.8724  -20897438.96549 -16110541.12047  21299958.1864   21299962.5574
       241.0004        202.0004
  22160358.9494  -14110168.52849 -10787070.17247  22160358.8234   22160363.3304
       231.0004        188.0004
  24546445.5174   -3105838.00349  -2230003.80645  24546445.9694   24546455.3204
       206.0004        142.0004
  21453354.1374  -19593706.23949 -15258718.29747  21453353.9524   21453359.0434
       240.0004        200.0004
  23235391.1774   -8780034.94649  -6832452.18746  23235390.2044   23235397.5984
       222.0004        172.0004
  20407612.5654  -28198694.57349 -21765031.85148  20407612.5644   20407614.4074
       243.0004        215.0004
 06  5 10  2 18  0.0000000  0  6G13G16G24G20G27G23
  21289588.8454  -20951928.43749 -16153000.43647  21289589.2344   21289593.4154
       240.0004        202.0004
  22172841.4464  -14044572.00149 -10735955.99947  22172841.2514   22172846.1794
       231.0004        188.0004
  24557171.7704   -3049470.25949  -2186080.98845  24557171.0744   24557180.9594
       203.0004        140.0004
  21468596.8784  -19513605.73449 -15196302.33347  21468596.7204   21468601.5494
       240.0004        199.0004
  23225679.0304   -8831071.16949  -6872220.63046  23225678.2484   23225685.7104
       220.0004        172.0004
  20406957.9034  -28202135.37649 -21767712.98348  20406957.8774   20406959.4944
       242.0004        216.0004
 06  5 10  2 18 30.0000000  0  6G13G16G24G20G27G23
  21279250.6894  -21006255.79149 -16195333.41947  21279251.2514   21279255.5404
       241.0004        202.0004
  22185408.3714  -13978532.45349 -10684496.62646  22185408.1624   22185412.6944
       231.0004        187.0004
  24567930.7324   -2992930.72349  -2142024.28945  24567930.3564   24567939.3074
       206.0004        141.0004
  21483914.5604  -19433111.12349 -15133579.28047  21483914.3764   21483919.2784
       240.0004        199.0004
  23215998.6254   -8881941.06949  -6911859.45746  23215998.8484   23216005.6334
       222.0004        172.0004
  20406362.9614  -28205261.74449 -21770149.10148  20406362.9394   20406364.8494
       243.0004        216.0004
 06  5 10  2 19  0.0000000  0  6G13G16G24G20G27G23
  21268943.5524  -21060419.64449 -16237539.00947  21268944.0264   21268948.4314
       241.0004        203.0004
  22198059.0044  -13912052.34949 -10632693.96446  22198058.6844   22198063.6844
       230.0004        187.0004
  24578721.9584   -2936222.15249  -2097835.87145  24578722.8544   24578731.5104
       209.0004        143.0004
  21499306.7624  -19352224.80249 -15070551.00447  21499306.2004   21499311.5264
       238.0004        199.0004
  23206349.8204   -8932645.40449  -6951369.27846  23206349.2794   23206356.0904
       221.0004        172.0004
  20405828.0754  -28208072.86449 -21772339.58148  20405827.9594   20405829.7324
       243.0004        216.0004
 06  5 10  2 19 30.0000000  0  6G13G16G24G20G27G23
  21258667.9294  -21114418.47049 -16279615.99947  21258668.3404   21258672.5174
       241.0004        203.0004
  22210793.1184  -13845134.05349 -10580549.85846  22210792.9684   22210797.9364
       231.0004        187.0004
  24589545.0834   -2879347.55849  -2053518.08645  24589546.2914   24589553.5464
       213.0004        146.0004
  21514772.6894  -19270949.91649 -15007219.95347  21514772.3134   21514777.6404
       236.0004        198.0004
  23196732.3254   -8983185.22049  -6990750.90346  23196733.0464   23196738.3994
       224.0004        173.0004
  20405353.3374  -28210567.63449 -21774283.55548  20405353.1784   20405355.2284
       243.0004        216.0004
 06  5 10  2 20  0.0000000  0  6G13G16G24G20G27G23
  21248423.5904  -21168252.90549 -16321564.89247  21248423.5324   21248428.0754
       242.0004        203.0004
  22223609.9174  -13777781.09949 -10528067.06346  22223610.0254   22223614.2574
       231.0004        187.0004
  24600399.0854   -2822311.08549  -2009074.17545  24600398.9584   24600408.2044
       211.0004        147.0004
  21530311.9474  -19189289.76649 -14943588.69347  21530311.0364   21530316.9204
       236.0004        197.0004
  23187146.1174   -9033561.79849  -7030005.34846  23187145.5634   23187152.5704
       222.0004        173.0004
  20404938.7434  -28212746.23449 -21775981.16248  20404938.6254   20404940.3494
       243.0004        216.0004
 06  5 10  2 20 30.0000000  0  6G13G16G24G20G27G23
  21238211.0394  -21221919.82149 -16363383.25547  21238211.4024   21238215.7104
       242.0004        203.0004
  22236509.3224  -13709995.08849 -10475246.82046  22236509.7054   22236514.3224
       232.0004        186.0004
  24611283.2084   -2765114.68349  -1964505.64045  24611282.8334   24611291.0164
       206.0004        145.0004
  21545924.2364  -19107246.15149 -14879658.61947  21545924.0474   21545929.6154
       238.0004        197.0004
  23177590.7584   -9083774.77649  -7069132.31046  23177589.5594   23177596.9484
       223.0004        173.0004
  20404584.7614  -28214606.52049 -21777430.72248  20404584.7804   20404586.4644
       242.0004        216.0004
 06  5 10  2 21  0.0000000  0  6G13G16G24G20G27G23
  21228030.6224  -21275418.25549 -16405070.32547  21228031.1704   21228035.4824
       242.0004        203.0004
  22249490.4964  -13641778.69549 -10422091.18846  22249490.1484   22249495.3644
       231.0004        185.0004
  24622197.1984   -2707760.99549  -1919814.55345  24622197.3174   24622205.9574
       207.0004        142.0004
  21561609.1704  -19024821.82649 -14815431.89547  21561609.1594   21561614.3594
       238.0004        197.0004
  23168066.5104   -9133825.08349  -7108132.50546  23168066.0824   23168072.2064
       221.0004        172.0004
  20404291.4914  -28216147.69449 -21778631.63048  20404291.1634   20404293.1464
       242.0004        216.0004
 06  5 10  2 21 30.0000000  0  6G13G16G24G20G27G23
  21217882.8624  -21328745.16449 -16446623.74247  21217883.4954   21217887.4854
       242.0004        204.0004
  22262553.2184  -13573133.30049 -10368601.27446  22262552.7054   22262557.1994
       230.0004        184.0004
  24633140.7024   -2650251.77349  -1875002.27345  24633139.8024   24633149.7794
       205.0004        141.0004
  21577366.2534  -18942018.22149 -14750909.62147  21577366.4604   21577370.9004
       237.0004        197.0004
  23158573.3684   -9183712.01049  -7147005.39346  23158573.2434   23158579.6244
       223.0004        173.0004
  20404059.3974  -28217366.91449 -21779581.67248  20404059.0344   20404061.1384
       241.0004        215.0004
 06  5 10  2 22  0.0000000  0  6G13G16G24G20G27G23
  21207768.0234  -21381899.46249 -16488042.65547  21207768.4374   21207772.6494
       242.0004        204.0004
  22275697.1174  -13504061.28349 -10314778.92246  22275697.4364   22275701.4914
       230.0004        183.0004
  24644113.5294   -2592590.03249  -1830071.11645  24644114.0054   24644123.0824
       206.0004        140.0004
  21593195.0264  -18858837.91349 -14686093.81547  21593194.5424   21593199.8044
       238.0004        197.0004
  23149111.2294   -9233436.19149  -7185751.45846  23149110.7744   23149116.9684
       222.0004        173.0004
  20403888.7204  -28218263.47149 -21780280.28848  20403888.5724   20403890.7704
       241.0004        215.0004
 06  5 10  2 22 30.0000000  0  6G13G16G24G20G27G23
  21197685.9914  -21434880.54949 -16529326.59547  21197686.3274   21197690.7864
       242.0004        204.0004
  22288921.6634  -13434566.05949 -10260626.81046  22288921.5814   22288926.2534
       229.0004        184.0004
  24655114.5674   -2534779.68049  -1785024.16945  24655115.8784   24655122.8434
       208.0004        141.0004
  21609094.6794  -18775284.44849 -14620987.24547  21609094.6354   21609099.5094
       237.0004        196.0004
  23139679.5274   -9282999.49649  -7224372.16146  23139679.6334   23139685.4964
       222.0004        174.0004
  20403779.4714  -28218837.34549 -21780727.45748  20403779.2984   20403781.5034
       242.0004        215.0004
 06  5 10  2 23  0.0000000  0  6G13G16G24G20G27G23
  21187637.3814  -21487686.38949 -16570473.97747  21187637.8844   21187641.8274
       241.0004        204.0004
  22302226.2654  -13364649.58949 -10206146.44946  22302226.2504   22302231.0034
       229.0004        183.0004
  24666143.8194   -2476822.87449  -1739863.06345  24666144.7934   24666152.2274
       208.0004        141.0004
  21625065.0794  -18691359.97249 -14555591.56647  21625065.0294   21625070.0754
       237.0004        196.0004
  23130278.4664   -9332401.90049  -7262867.50046  23130279.0414   23130285.3174
       223.0004        175.0004
  20403732.0354  -28219086.63049 -21780921.71048  20403731.7804   20403734.0004
       241.0004        215.0004
 06  5 10  2 23 30.0000000  0  6G13G16G24G20G27G23
  21177622.4864  -21540315.18749 -16611483.40947  21177622.9574   21177626.6884
       242.0004        204.0004
  22315610.7144  -13294313.67349 -10151339.25946  22315610.6044   22315614.8734
       230.0004        183.0004
  24677200.1204   -2418721.84849  -1694589.61145  24677200.0004   24677208.7294
       208.0004        143.0004
  21641105.5764  -18607066.76049 -14489908.56547  21641105.0654   21641110.7984
       237.0004        195.0004
  23120908.0494   -9381643.31349  -7301237.39646  23120908.0984   23120914.8134
       221.0004        174.0004
  20403746.6654  -28219009.85649 -21780861.88948  20403746.7104   20403748.5954
       242.0004        215.0004
 06  5 10  2 24  0.0000000  0  6G13G16G24G20G27G23
  21167641.5114  -21592765.63649 -16652353.86747  21167641.7874   21167645.8294
       241.0004        204.0004
  22329074.5914  -13223561.04349 -10096207.36046  22329074.8234   22329079.4454
       230.0004        184.0004
  24688283.1084   -2360479.90449  -1649206.33945  24688283.6874   24688292.6464
       206.0004        143.0004
  21657215.7214  -18522407.47849 -14423940.32347  21657215.4924   21657220.8804
       237.0004        196.0004
  23111567.8974   -9430724.87449  -7339482.70946  23111567.3154   23111574.1604
       221.0004        174.0004
  20403823.5374  -28218606.10249 -21780547.27848  20403823.4874   20403825.7114
       242.0004        216.0004
 06  5 10  2 24 30.0000000  0  6G13G16G24G20G27G23
  21157694.6284  -21645036.39049 -16693084.30447  21157694.9734   21157699.0894
       241.0004        204.0004
  22342617.1474  -13152394.78949 -10040753.14546  22342617.2584   22342621.6584
       229.0004        184.0004
  24699392.1424   -2302100.18249  -1603715.73645  24699392.3174   24699401.2804
       206.0004        144.0004
  21673395.0304  -18437385.19049 -14357689.21547  21673394.7514   21673399.6664
       237.0004        195.0004
  23102258.2844   -9479647.50549  -7377604.19346  23102258.4894   23102264.9604
       224.0004        174.0004
  20403962.7504  -28217874.52149 -21779977.21648  20403962.6514   20403964.7404
       242.0004        216.0004
 06  5 10  2 25  0.0000000  0  6G13G16G24G20G27G23
  21147782.4284  -21697125.20249 -16733672.97247  21147782.6654   21147786.7744
       241.0004        204.0004
  22356237.9784  -13080816.66449  -9984978.00146  22356237.7894   22356243.3904
       228.0004        184.0004
  24710527.4694   -2243584.75049  -1558119.37545  24710528.3474   24710535.8484
       209.0004        143.0004
  21689642.9534  -18352001.63349 -14291156.60147  21689642.3934   21689647.8544
       236.0004        195.0004
  23092979.1124   -9528410.83449  -7415601.55346  23092979.7334   23092985.1784
       224.0004        176.0004
  20404164.7004  -28216813.45149 -21779150.41748  20404164.5614   20404166.4024
       242.0004        216.0004
 06  5 10  2 25 30.0000000  0  6G13G16G24G20G27G23
  21137904.9734  -21749031.05849 -16774119.07547  21137905.2234   21137909.8794
       241.0004        204.0004
  22369936.6564  -13008829.49349  -9928884.11846  22369936.9254   22369942.1024
       230.0004        185.0004
  24721688.0694   -2184936.80149  -1512419.73945  24721687.9424   24721697.6094
       210.0004        143.0004
  21705958.9324  -18266259.96449 -14224344.93347  21705958.5684   21705964.1864
       236.0004        194.0004
  23083729.9414   -9577016.03749  -7453475.68346  23083729.7264   23083735.7764
       224.0004        176.0004
  20404429.4144  -28215422.11749 -21778066.25848  20404429.1284   20404431.4624
       242.0004        215.0004
 06  5 10  2 26  0.0000000  0  6G13G16G24G20G27G23
  21128062.5214  -21800753.10949 -16814421.95047  21128062.9764   21128067.2684
       241.0004        204.0004
  22383712.7784  -12936435.91949  -9872473.55846  22383713.1084   22383717.5974
       229.0004        185.0004
  24732873.1804   -2126159.60049  -1466619.40245  24732874.2474   24732881.8754
       207.0004        144.0004
  21722342.5454  -18180163.15749 -14157256.53247  21722342.2554   21722347.9784
       236.0004        194.0004
  23074510.4454   -9625464.23249  -7491227.48246  23074509.8194   23074516.6794
       223.0004        175.0004
  20404757.1094  -28213699.89649 -21776724.27448  20404757.0114   20404759.0344
       242.0004        215.0004
 06  5 10  2 26 30.0000000  0  6G13G16G24G20G27G23
  21118255.6024  -21852288.99749 -16854579.77147  21118256.2554   21118259.9724
       243.0004        204.0004
  22397565.7274  -12863638.24449  -9815748.11046  22397565.5284   22397570.3164
       230.0004        184.0004
  24744082.2764   -2067255.61149  -1420720.26845  24744081.3894   24744091.1394
       206.0004        143.0004
  21738793.3434  -18093713.75349 -14089893.39047  21738793.0974   21738798.8254
       236.0004        194.0004
  23065320.8824   -9673755.40649  -7528856.92646  23065320.6714   23065326.5444
       223.0004        175.0004
  20405148.2044  -28211644.89849 -21775122.97548  20405148.1804   20405150.4744
       242.0004        216.0004
 06  5 10  2 27  0.0000000  0  6G13G16G24G20G27G23
  21108484.7224  -21903636.06349 -16894590.45947  21108485.3304   21108489.2654
       243.0004        205.0004
  22411495.3184  -12790437.85649  -9758708.85646  22411495.0554   22411499.8034
       230.0004        184.0004
  24755314.9644   -2008226.45649  -1374723.60145  24755315.1824   24755323.6024
       204.0004        143.0004
  21755310.9834  -18006913.30749 -14022256.71447  21755310.6424   21755316.3384
       236.0004        194.0004
  23056161.3444   -9721889.27349  -7566363.79346  23056161.1424   23056168.1944
       225.0004        175.0004
  20405602.9864  -28209254.87749 -21773260.62648  20405602.8154   20405605.1074
       242.0004        216.0004
 06  5 10  2 27 30.0000000  0  6G13G16G24G20G27G23
  21098749.7844  -21954793.59049 -16934453.45147  21098749.9894   21098754.2454
       242.0004        205.0004
  22425500.9644  -12716837.80249  -9701358.17746  22425500.9394   22425504.9424
       229.0004        182.0004
  24766570.9354   -1949075.80449  -1328632.25845  24766571.9094   24766579.4614
       206.0004        140.0004
  21771894.8804  -17919764.74849 -13954348.76147  21771894.4714   21771900.4894
       236.0004        194.0004
  23047031.6154   -9769867.01449  -7603749.00846  23047031.5024   23047037.5514
       225.0004        176.0004
  20406121.5434  -28206529.69849 -21771137.11948  20406121.4864   20406123.4074
       242.0004        215.0004
 06  5 10  2 28  0.0000000  0  6G13G16G24G20G27G23
  21089051.0894  -22005760.21949 -16974167.69347  21089051.1944   21089055.5034
       242.0004        205.0004
  22439581.9724  -12642841.07249  -9643698.38546  22439581.8914   22439586.4034
       228.0004        181.0004
  24777849.6114   -1889806.97749  -1282448.85345  24777849.2024   24777858.9254
       208.0004        141.0004
  21788544.3454  -17832271.22149 -13886172.00747  21788544.1654   21788549.4914
       235.0004        193.0004
  23037931.2544   -9817689.65649  -7641013.36246  23037930.9124   23037936.4974
       225.0004        176.0004
  20406704.1324  -28203468.55149 -21768751.80748  20406704.0734   20406705.8954
       242.0004        215.0004
 06  5 10  2 28 30.0000000  0  6G13G16G24G20G27G23
  21079389.1984  -22056533.46649 -17013731.25547  21079389.5424   21079393.5744
       242.0004        205.0004
  22453738.1884  -12568449.48849  -9585730.93046  22453737.9114   22453743.9064
       229.0004        181.0004
  24789150.1514   -1830421.51549  -1236174.54445  24789150.8384   24789160.2814
       204.0004        142.0004
  21805259.0864  -17744434.76949 -13817728.03647  21805258.9734   21805264.1534
       235.0004        193.0004
  23028860.5554   -9865356.80649  -7678156.54646  23028859.8824   23028866.2594
       224.0004        175.0004
  20407350.9644  -28200069.61349 -21766103.28348  20407350.6654   20407352.6524
       242.0004        215.0004
 06  5 10  2 29  0.0000000  0  6G13G16G24G20G27G23
  21069764.2144  -22107112.96049 -17053143.83047  21069764.6754   21069768.3004
       242.0004        205.0004
  22467968.9884  -12493666.32149  -9527458.33446  22467968.7894   22467973.5264
       228.0004        181.0004
  24800472.5584   -1770923.34549  -1189812.42545  24800473.0104   24800482.9744
       206.0004        141.0004
  21822038.4664  -17656258.70049 -13749019.43347  21822038.2374   21822043.6524
       236.0004        193.0004
  23019819.0384   -9912870.00049  -7715179.77546  23019819.1914   23019825.3354
       224.0004        175.0004
  20408062.0384  -28196332.70949 -21763191.40848  20408061.8634   20408064.0944
       241.0004        215.0004
 06  5 10  2 29 30.0000000  0  6G13G16G24G20G27G23
  21060176.4844  -22157496.65749 -17092403.83447  21060176.8634   21060180.6814
       242.0004        206.0004
  22482273.6794  -12418493.92149  -9468882.44446  22482273.4764   22482278.4224
       228.0004        181.0004
  24811815.7084   -1711314.98349  -1143364.44645  24811816.1374   24811825.0654
       202.0004        140.0004
  21838881.9194  -17567746.06149 -13680048.57547  21838881.9274   21838886.9394
       236.0004        192.0004
  23010806.7394   -9960229.63949  -7752083.35546  23010806.2604   23010813.0574
       224.0004        176.0004
  20408837.7644  -28192256.18649 -21760014.89348  20408837.7564   20408839.6774
       242.0004        216.0004
 06  5 10  2 30  0.0000000  0  6G13G16G24G20G27G23
  21050626.4324  -22207682.29649 -17131509.52147  21050626.8844   21050631.1264
       243.0004        206.0004
  22496652.3074  -12342934.13249  -9410004.70346  22496652.6614   22496656.6634
       228.0004        181.0004
  24823179.3544   -1651598.79349  -1096832.48945  24823178.6614   24823188.9154
       207.0004        138.0004
  21855789.1944  -17478898.29649 -13610816.57447  21855788.6324   21855794.0974
       235.0004        192.0004
  23001823.7184  -10007435.87349  -7788867.38546  23001823.5794   23001828.8634
       223.0004        176.0004
  20409678.4494  -28187838.48149 -21756572.53048  20409678.4344   20409680.3074
       242.0004        216.0004
 06  5 10  2 30 30.0000000  0  5G13G16G20G27G23
  21041115.1754  -22257664.44049 -17170456.63247  21041115.6994   21041119.4944
       243.0004        206.0004
  22511104.8174  -12266985.71049  -9350824.12246  22511104.3374   22511109.5564
       226.0004        180.0004
  21872760.3114  -17389714.30749 -13541322.57647  21872760.5434   21872765.4054
       235.0004        191.0004
  22992870.2114  -10054485.40049  -7825529.31246  22992869.7084   22992875.3574
       225.0004        176.0004
  20410584.9964  -28183074.46549 -21752860.31148  20410585.1564   20410586.8794
       243.0004        216.0004
 06  5 10  2 31  0.0000000  0  5G13G16G20G27G23
  21031644.0004  -22307436.05249 -17209239.70147  21031644.4164   21031648.5574
       243.0004        207.0004
  22525631.7014  -12190646.05549  -9291338.68446  22525631.2304   22525637.0504
       227.0004        179.0004
  21889796.0424  -17300191.74549 -13471564.75347  21889796.0104   21889800.8184
       236.0004        191.0004
  22983947.6414  -10101373.74949  -7862065.65246  22983948.2444   22983953.1514
       225.0004        176.0004
  20411558.6834  -28177958.18949 -21748873.60248  20411558.5824   20411560.5914
       242.0004        216.0004
 06  5 10  2 31 30.0000000  0  6G 3G13G16G20G27G23
                   -598102.36649   -459012.32943
       207.0004         74.0004
  21022210.0284  -22357011.92249 -17247870.24047  21022210.3974   21022214.3784
       242.0004        207.0004
  22540229.5884  -12113933.62049  -9231562.76246  22540229.0844   22540234.9294
       227.0004        180.0004
  21906892.5524  -17210349.36749 -13401557.72647  21906892.0644   21906897.9354
       234.0004        191.0004
  22975052.5744  -10148117.46049  -7898489.27246  22975052.0224   22975057.9604
       225.0004        177.0004
  20412596.4764  -28172504.62549 -21744624.07548  20412596.1944   20412598.0504
       243.0004        215.0004
 06  5 10  2 32  0.0000000  0  6G 3G13G16G20G27G23
                   -657781.11149   -505513.55843
       207.0004         74.0004
  21012814.3094  -22406386.61049 -17286344.01847  21012814.6914   21012818.9764
       243.0004        207.0004
  22554898.5844  -12036847.38649  -9171495.58846  22554898.5594   22554903.5004
       226.0004        180.0004
  21924050.0074  -17120186.25049 -13331300.78747  21924049.8764   21924055.1464
       235.0004        191.0004
  22966185.6034  -10194713.42849  -7934797.77846  22966185.1214   22966191.1834
       226.0004        178.0004
  20413699.3614  -28166708.70749 -21740107.77948  20413699.0404   20413701.1384
       242.0004        215.0004
 06  5 10  2 32 30.0000000  0  6G 3G13G16G20G27G23
                   -717190.07249   -551804.62543
       208.0004         74.0004
  21003457.3944  -22455557.49749 -17324658.98447  21003457.8094   21003461.8854
       243.0004        208.0004
  22569638.3734  -11959389.16949  -9111138.53646  22569638.6344   22569643.0124
       227.0004        180.0004
  21941268.1944  -17029704.25849 -13260795.34747  21941267.4374   21941273.0464
       234.0004        190.0004
  22957346.9854  -10241161.12549  -7970990.75046  22957346.5504   22957352.1234
       227.0004        179.0004
  20414867.7214  -28160568.55649 -21735323.24448  20414867.8414   20414869.4014
       242.0004        215.0004
 06  5 10  2 33  0.0000000  0  6G 3G13G16G20G27G23
                   -776325.28349   -462009.61043
       212.0004         74.0004
  20994139.7674  -22504521.95049 -17362813.09947  20994140.2294   20994143.9604
       243.0004        208.0004
  22584448.8474  -11881560.14549  -9050492.55646  22584449.4914   22584453.5554
       228.0004        181.0004
  21958546.6644  -16938905.04649 -13190042.73947  21958546.1854   21958551.2474
       233.0004        189.0004
  22948536.6344  -10287460.05549  -8007067.80746  22948536.5794   22948542.7574
       227.0004        179.0004
  20416102.1214  -28154082.06449 -21730268.83948  20416102.1174   20416103.7524
       243.0004        215.0004
 06  5 10  2 33 30.0000000  0  6G 3G13G16G20G27G23
                   -835183.15349   -507873.02943
       212.0004         74.0004
  20984861.9014  -22553277.37249 -17400804.32747  20984862.2224   20984866.4384
       243.0004        208.0004
  22599329.5424  -11803362.16249  -8989559.07246  22599329.0904   22599334.1564
       227.0004        180.0004
  21975885.1004  -16847790.52549 -13119044.43247  21975884.9514   21975889.9504
       234.0004        189.0004
  22939754.4104  -10333610.76349  -8043029.35246  22939753.9794   22939759.8224
       226.0004        179.0004
  20417402.6864  -28147247.55849 -21724943.24548  20417402.4664   20417404.6444
       242.0004        215.0004
 06  5 10  2 34  0.0000000  0  6G 3G13G16G20G27G23
                   -893760.36949   -553517.56544                  23468169.6244
       213.0004        126.0004
  20975624.1784  -22601821.92549 -17438631.24347  20975624.5074   20975628.7664
       243.0004        208.0004
  22614279.9214  -11724797.76249  -8928340.07746  22614280.6094   22614285.2904
       226.0004        178.0004
  21993283.1394  -16756363.24649 -13047802.41547  21993282.0884   21993287.9074
       233.0004        188.0004
  22931000.3334  -10379613.05149  -8078875.25646  22931000.0394   22931006.7494
       225.0004        179.0004
  20418769.7574  -28140063.57749 -21719345.34348  20418769.4904   20418771.5354
       241.0004        215.0004
 06  5 10  2 34 30.0000000  0  6G 3G13G16G20G27G23
  23457070.1084    -952053.02149   -598940.34345  23457070.0584   23457076.5484
       210.0004        145.0004
  20966427.0544  -22650153.02849 -17476291.83347  20966427.4444   20966431.3944
       242.0004        208.0004
  22629299.6654  -11645868.65849  -8866836.88446  22629300.1514   22629304.5294
       227.0004        178.0004
  22010740.3054  -16664624.85149 -12976317.97947  22010739.9924   22010745.6034
       233.0004        188.0004
  22922274.4354  -10425466.92549  -8114605.50846  22922274.1304   22922280.6924
       225.0004        178.0004
  20420203.6764  -28132528.05149 -21713473.50248  20420203.3374   20420205.4204
       241.0004        215.0004
 06  5 10  2 35  0.0000000  0  6G 3G13G16G20G27G23
  23446031.9154   -1010059.34349   -644140.01245  23446032.1204   23446038.5764
       211.0004        150.0004
  20957270.6494  -22698270.43149 -17513785.90047  20957270.9434   20957275.0854
       243.0004        209.0004
  22644388.0474  -11566578.47849  -8805052.34946  22644388.5864   22644392.7124
       226.0004        177.0004
  22028255.9864  -16572579.60549 -12904594.44147  22028255.4864   22028260.8524
       233.0004        188.0004
  22913576.5354  -10471174.34049  -8150221.63846  22913575.8624   22913582.4854
       226.0004        178.0004
  20421704.4684  -28124641.26649 -21707327.95348  20421704.2784   20421706.2984
       241.0004        215.0004
 06  5 10  2 35 30.0000000  0  6G 3G13G16G20G27G23
  23435048.5634   -1067776.72549   -689114.55545  23435048.3844   23435055.8394
       212.0004        152.0004
  20948155.1504  -22746172.66149 -17551112.30247  20948155.3944   20948159.7024
       243.0004        209.0004
  22659544.6424  -11486929.81349  -8742988.45846  22659544.6544   22659548.3494
       226.0004        176.0004
  22045829.6334  -16480229.81349 -12832633.57547  22045829.3504   22045834.7524
       233.0004        188.0004
  22904906.5834  -10516735.58849  -8185723.87746  22904906.9134   22904912.8664
       227.0004        178.0004
  20423272.2154  -28116402.34949 -21700908.02048  20423271.9834   20423274.2254
       241.0004        215.0004
 06  5 10  2 36  0.0000000  0  6G 3G13G16G20G27G23
  23424120.8794   -1125202.13349   -733861.56645  23424121.0684   23424127.6754
       215.0004        154.0004
  20939081.0394  -22793857.37449 -17588269.21747  20939081.2464   20939085.6184
       242.0004        209.0004
  22674769.0514  -11406925.51549  -8680647.47446  22674769.3444   22674773.2564
       227.0004        177.0004
  22063460.4924  -16387579.15049 -12760438.27646  22063460.2944   22063465.9474
       233.0004        187.0004
  22896264.3544  -10562151.31749  -8221112.72546  22896264.2564   22896270.2714
       227.0004        179.0004
  20424907.2794  -28107810.08549 -21694212.75148  20424907.4114   20424909.0184
       242.0004        215.0004
 06  5 10  2 36 30.0000000  0  6G 3G13G16G20G27G23
  23413249.5024   -1182332.58849   -778378.75045  23413248.6154   23413255.9894
       214.0004        154.0004
  20930048.4684  -22841323.54249 -17625255.83047  20930048.7394   20930052.9254
       242.0004        209.0004
  22690060.7204  -11326568.01149  -8618031.25046  22690061.0084   22690064.9034
       228.0004        177.0004
  22081147.9964  -16294630.00549 -12688010.39446  22081147.8994   22081153.1974
       232.0004        187.0004
  22887649.5174  -10607422.37349  -8256388.81646  22887648.8204   22887655.3724
       227.0004        179.0004
  20426609.7814  -28098863.59449 -21687241.45148  20426609.8124   20426611.6014
       242.0004        215.0004
 06  5 10  2 37  0.0000000  0  6G 3G13G16G20G27G23
  23402434.5374   -1239164.90149   -822663.60845  23402434.5324   23402440.7264
       215.0004        156.0004
  20921057.9154  -22888568.84249 -17662070.34047  20921058.1434   20921062.3634
       243.0004        209.0004
  22705419.1614  -11245859.70049  -8555141.68046  22705419.1054   22705423.4204
       226.0004        177.0004
  22098892.0104  -16201384.72349 -12615351.75846  22098892.3154   22098897.6194
       233.0004        187.0004
  22879062.0464  -10652549.22149  -8291552.55446  22879061.8954   22879067.8184
       227.0004        179.0004
  20428379.9264  -28089561.38249 -21679992.97448  20428379.7874   20428381.9714
       242.0004        215.0004
 06  5 10  2 37 30.0000000  0  6G 3G13G16G20G27G23
  23391677.1454   -1295695.23449   -866713.17145  23391677.2294   23391683.7604
       217.0004        158.0004
  20912110.0214  -22935590.38849 -17698710.49347  20912110.2974   20912114.3394
       242.0004        209.0004
  22720843.8504  -11164802.12449  -8491979.95746  22720843.6674   22720848.1324
       227.0004        177.0004
  22116692.2734  -16107844.89149 -12542463.60447  22116691.9534   22116697.6574
       233.0004        188.0004
  22870502.2174  -10697531.46449  -8326603.61446  22870501.8014   22870507.6124
       228.0004        179.0004
  20430218.1544  -28079901.61849 -21672465.87848  20430218.2344   20430219.8814
       242.0004        216.0004
 06  5 10  2 38  0.0000000  0  6G 3G13G16G20G27G23
  23380977.7264   -1351921.72449   -910525.95645  23380977.4864   23380984.4724
       216.0004        159.0004
  20903204.6654  -22982388.02849 -17735176.17147  20903204.9924   20903209.3344
       242.0004        209.0004
  22736334.4754  -11083398.93849  -8428548.92446  22736334.4834   22736338.4724
       226.0004        176.0004
  22134547.6154  -16014014.65049 -12469349.16046  22134547.8014   22134552.5024
       233.0004        187.0004
  22861969.5544  -10742370.53649  -8361543.12446  22861969.0184   22861975.2004
       227.0004        179.0004
  20432124.4254  -28069884.34449 -21664660.21248  20432124.4654   20432126.3524
       243.0004        216.0004
 06  5 10  2 38 30.0000000  0  6G 3G13G16G20G27G23
  23370336.6614   -1407841.05549   -954099.41045  23370336.6234   23370343.3074
       218.0004        161.0004
  20894342.3614  -23028959.62049 -17771465.71647  20894343.0074   20894347.0044
       243.0004        209.0004
  22751890.2794  -11001652.29549  -8364850.25946  22751889.1254   22751894.5494
       225.0004        176.0004
  22152457.7454  -15919896.29349 -12396010.19746  22152456.9834   22152463.0434
       232.0004        186.0004
  22853464.0854  -10787066.61949  -8396371.21746  22853463.6964   22853470.2114
       226.0004        179.0004
  20434099.0214  -28059508.00549 -21656574.75348  20434098.9284   20434100.9354
       243.0004        216.0004
 06  5 10  2 39  0.0000000  0  6G 3G13G16G20G27G23
  23359754.5154   -1463449.88249   -997430.92346  23359754.9684   23359760.8554
       220.0004        164.0004
  20885523.6674  -23075302.37949 -17807576.94447  20885524.0134   20885527.9344
       243.0004        209.0004
  22767511.0114  -10919564.41049  -8300885.69346  22767510.2614   22767515.6204
       226.0004        175.0004
  22170422.1854  -15825492.04849 -12322448.47246  22170421.8964   22170427.3434
       231.0004        185.0004
  22844985.7264  -10831620.18249  -8431088.24546  22844985.7754   22844991.1944
       227.0004        179.0004
  20436142.1284  -28048771.26549 -21648208.46148  20436142.0134   20436144.1064
       242.0004        216.0004
 06  5 10  2 39 30.0000000  0  6G 3G13G16G20G27G23
  23349232.0124   -1518746.03649  -1040518.77546  23349231.8934   23349239.0754
       220.0004        165.0004
  20876748.5394  -23121415.74349 -17843509.42247  20876748.9374   20876752.8584
       243.0004        209.0004
  22783196.1304  -10837138.39349  -8236657.64146  22783195.6724   22783200.8564
       225.0004        175.0004
  22188440.5174  -15730805.48049 -12248666.75546  22188440.0234   22188445.8864
       232.0004        185.0004
  22836534.2654  -10876032.41549  -8465695.15446  22836534.0264   22836540.4714
       227.0004        180.0004
  20438253.8984  -28037673.74049 -21639561.03548  20438253.8414   20438255.6884
       243.0004        215.0004
 06  5 10  2 40  0.0000000  0  7G 3G13G16G20G 8G27G23
  23338769.2524   -1573727.84749  -1083361.69246  23338768.9264   23338775.4124
       220.0004        167.0004
  20868017.2054  -23167299.01749 -17879262.61247  20868017.7224   20868021.7194
       243.0004        209.0004
  22798944.7364  -10754378.35149  -8172169.31346  22798944.0994   22798949.4174
       225.0004        175.0004
  22206511.7224  -15635840.61749 -12174668.19046  22206511.7824   22206517.1154
       231.0004        184.0004
  24943268.4214   -3815377.48149  -2960424.65545  24943268.3254   24943277.2504
       206.0004        142.0004
  22828109.4594  -10920304.89049  -8500193.15246  22828108.8994   22828115.8944
       228.0004        180.0004
  20440434.2464  -28026215.66149 -21630632.66748  20440434.0824   20440436.0154
       242.0004        215.0004
 06  5 10  2 40 30.0000000  0  7G 3G13G16G20G 8G27G23
  23328365.1864   -1628400.36249  -1125963.60346  23328365.1094   23328372.0834
       221.0004        168.0004
  20859328.5424  -23212958.14849 -17914841.15047  20859328.9874   20859333.2464
       243.0004        209.0004
  22814754.9394  -10671294.60849  -8107428.75246  22814754.0444   22814760.5284
       225.0004        175.0004
  22224633.7834  -15540608.16649 -12100461.12046  22224633.4864   22224639.3964
       231.0004        184.0004
  24928739.0764   -3891730.66249  -3019920.50945  24928739.1234   24928746.3734
       205.0004        142.0004
  22819709.6414  -10964446.41249  -8534589.12446  22819709.5544   22819715.4354
       228.0004        181.0004
  20442681.9514  -28014403.87449 -21621428.67548  20442681.8664   20442683.6084
       242.0004        214.0004
 06  5 10  2 41  0.0000000  0  7G 3G13G16G20G 8G27G23
  23318023.3964   -1682746.95549  -1168311.54746  23318023.4684   23318029.4644
       222.0004        169.0004
  20850685.5514  -23258377.86749 -17950233.12347  20850686.0904   20850689.9834
       244.0004        210.0004
  22830628.8714  -10587876.14949  -8042427.36846  22830628.4754   22830634.4624
       225.0004        175.0004
  22242809.1094  -15445096.75749 -12026036.68046  22242809.2144   22242814.2054
       233.0004        184.0004
  24914230.0214   -3967975.02549  -3079331.57845  24914230.0974   24914238.4844
       204.0004        141.0004
  22811337.3364  -11008443.75549  -8568872.73446  22811337.7594   22811343.2594
       229.0004        182.0004
  20444999.7684  -28002223.53249 -21611937.49348  20444999.5914   20445001.5454
       242.0004        214.0004
 06  5 10  2 41 30.0000000  0  7G 3G13G16G20G 8G27G23
  23307743.7774   -1736766.36949  -1210404.54746  23307743.4354   23307750.2204
       220.0004        169.0004
  20842088.1374  -23303557.79249 -17985438.25347  20842088.8524   20842092.4094
       243.0004        210.0004
  22846565.7614  -10504127.03149  -7977168.33546  22846565.7424   22846570.7164
       225.0004        173.0004
  22261036.5434  -15349311.52049 -11951398.85146  22261036.2954   22261041.5264
       231.0004        184.0004
  24899741.4164   -4044112.28049  -3138659.21145  24899741.9974   24899748.6294
       207.0004        141.0004
  22802991.8794  -11052299.28649  -8603045.84446  22802991.0284   22802997.3884
       228.0004        182.0004
  20447387.5984  -27989675.37149 -21602159.71048  20447387.5284   20447389.3464
       242.0004        214.0004
 06  5 10  2 42  0.0000000  0  7G 3G13G16G20G 8G27G23
  23297526.6354   -1790457.15749  -1252241.47246  23297526.2684   23297532.5134
       221.0004        169.0004
  20833536.3414  -23348498.11549 -18020456.67647  20833536.7634   20833540.6444
       244.0004        210.0004
  22862564.6964  -10420051.35949  -7911654.82146  22862565.0364   22862569.1274
       226.0004        173.0004
  22279315.2054  -15253256.13949 -11876550.52746  22279314.5224   22279321.2034
       231.0004        183.0004
  24885273.2074   -4120143.60249  -3197904.28545  24885272.8444   24885281.3194
       210.0004        143.0004
  22794673.0054  -11096014.84849  -8637109.88246  22794672.4174   22794679.2964
       228.0004        182.0004
  20449845.3634  -27976759.85149 -21592095.66948  20449844.9874   20449847.2494
       241.0004        214.0004
 06  5 10  2 42 30.0000000  0  7G 3G13G16G20G 8G27G23
  23287372.4014   -1843817.32449  -1293820.78146  23287372.4184   23287379.2434
       221.0004        169.0004
  20825030.2544  -23393197.66349 -18055287.48747  20825030.4214   20825034.6444
       243.0004        210.0004
  22878625.2584  -10335652.43749  -7845889.44246  22878625.3374   22878629.9614
       226.0004        172.0004
  22297644.6264  -15156934.41649 -11801494.67546  22297643.6824   22297649.9714
       230.0004        183.0004
  24870824.9714   -4196069.83049  -3257067.46645  24870824.6764   24870833.3884
       209.0004        143.0004
  22786380.4694  -11139592.21449  -8671066.24046  22786380.3074   22786386.6604
       229.0004        182.0004
  20452372.9514  -27963476.91749 -21581745.33948  20452372.8974   20452374.7794
       242.0004        214.0004
 06  5 10  2 43  0.0000000  0  7G 3G13G16G20G 8G27G23
  23277281.4734   -1896845.15249  -1335141.10346  23277282.2734   23277288.0814
       222.0004        169.0004
  20816570.1764  -23437655.39549 -18089929.86747  20816570.3384   20816574.6074
       243.0004        210.0004
  22894746.7514  -10250934.24049  -7779875.27446  22894747.2764   22894750.6054
       223.0004        171.0004
  22316023.9914  -15060350.09249 -11726234.18646  22316023.4784   22316029.3854
       230.0004        182.0004
  24856396.3884   -4271892.32749  -3316149.83345  24856396.7454   24856404.2734
       208.0004        143.0004
  22778114.0274  -11183032.74549  -8704915.97746  22778113.6204   22778119.8194
       229.0004        182.0004
  20454970.5514  -27949826.48949 -21571108.64248  20454970.6584   20454972.0204
       242.0004        214.0004
 06  5 10  2 43 30.0000000  0  7G 3G13G16G20G 8G27G23
  23267254.7234   -1949536.78249  -1376199.46746  23267255.3244   23267260.9474
       220.0004        169.0004
  20808156.5484  -23481868.98649 -18124382.01147  20808156.9634   20808160.7464
       244.0004        210.0004
  22910928.5144  -10165898.52149  -7713613.68946  22910929.5044   22910933.1274
       226.0004        170.0004
  22334452.7874  -14963505.74149 -11650771.08146  22334452.2304   22334457.9534
       230.0004        182.0004
  24841987.9804   -4347609.95349  -3375150.47945  24841987.5804   24841995.0674
       209.0004        143.0004
  22769873.5664  -11226336.34149  -8738659.01646  22769873.4954   22769879.6734
       229.0004        182.0004
  20457638.3934  -27935806.98449 -21560184.35348  20457638.4524   20457639.7814
       242.0004        213.0004
 06  5 10  2 44  0.0000000  0  7G 3G13G16G20G 8G27G23
  23257292.1474   -2001890.56449  -1416994.55846  23257292.6514   23257298.7714
       221.0004        170.0004
  20799789.6424  -23525837.77449 -18158643.39647  20799790.1154   20799793.9064
       245.0004        211.0004
  22927170.4104  -10080548.52249  -7647107.22546  22927170.7004   22927175.2514
       223.0004        169.0004
  22352930.5514  -14866404.62449 -11575107.89446  22352930.5084   22352935.9284
       230.0004        181.0004
  24827598.9444   -4423223.73649  -3434070.21345  24827598.2614   24827605.8034
       206.0004        141.0004
  22761658.8214  -11269504.87749  -8772296.80646  22761658.6724   22761664.7324
       227.0004        182.0004
  20460376.3884  -27921418.40949 -21548972.47548  20460375.9764   20460378.4944
       241.0004        213.0004
 06  5 10  2 44 30.0000000  0  7G 3G13G16G20G 8G27G23
  23247394.5524   -2053903.16349  -1457523.79146  23247393.6544   23247400.9464
       219.0004        168.0004
  20791469.7284  -23569559.40049 -18192712.19047  20791470.0054   20791473.7204
       244.0004        211.0004
  22943471.3174   -9994886.76749  -7580357.79546  22943470.6864   22943476.2654
       223.0004        169.0004
  22371456.6864  -14769049.00849 -11499246.40546  22371456.7234   22371462.0184
       229.0004        181.0004
  24813229.6964   -4498733.22949  -3492908.66345  24813228.7594   24813237.4314
       204.0004        141.0004
  22753469.7254  -11312538.07349  -8805829.13746  22753469.7814   22753475.9754
       228.0004        182.0004
  20463184.9294  -27906659.29549 -21537471.86548  20463184.7924   20463186.6454
       241.0004        213.0004
 06  5 10  2 45  0.0000000  0  7G 3G13G16G20G 8G27G23
  23237562.4204   -2105570.78149  -1497784.20846  23237562.4404   23237568.4144
       217.0004        165.0004
  20783197.3144  -23613031.11449 -18226586.24947  20783197.5624   20783201.5534
       244.0004        211.0004
  22959831.1904   -9908914.94649  -7513366.78746  22959831.2904   22959835.8884
       222.0004        168.0004
  22390030.8674  -14671441.25149 -11423188.44746  22390030.6344   22390036.6624
       229.0004        181.0004
  24798880.4564   -4574137.63249  -3551665.21645  24798880.6024   24798888.0044
       208.0004        143.0004
  22745306.5734  -11355435.86449  -8839255.95146  22745306.9424   22745312.5734
       229.0004        183.0004
  20466064.3274  -27891527.92549 -21525681.19248  20466064.3884   20466066.1354
       242.0004        214.0004
 06  5 10  2 45 30.0000000  0  7G 3G13G16G20G 8G27G23
  23227796.2594   -2156892.00449  -1537774.72146  23227796.5514   23227802.1424
       216.0004        164.0004
  20774972.5684  -23656252.46249 -18260265.21347  20774972.9364   20774976.7194
       243.0004        211.0004
  22976249.3474   -9822636.74149  -7446137.05146  22976249.0344   22976254.4404
       221.0004        169.0004
  22408652.3534  -14573584.83249 -11346936.72846  22408652.1534   22408657.7414
       229.0004        182.0004
  24784551.2814   -4649437.93649  -3610340.67445  24784550.9724   24784558.5074
       205.0004        144.0004
  22737168.9214  -11398200.16049  -8872578.74646  22737169.3754   22737174.7844
       230.0004        184.0004
  20469014.6054  -27876024.57449 -21513600.66348  20469014.6464   20469016.4834
       242.0004        214.0004
 06  5 10  2 46  0.0000000  0  7G 3G13G16G20G 8G27G23
  23218096.6654   -2207863.86949  -1577492.99346  23218096.1074   23218103.1264
       215.0004        163.0004
  20766795.8284  -23699221.26449 -18293747.39447  20766796.3064   20766800.0064
       244.0004        211.0004
  22992725.3964   -9736054.72649  -7378670.57746  22992725.2974   22992730.2434
       222.0004        170.0004
  22427320.4624  -14475482.94349 -11270493.71446  22427320.0194   22427326.1524
       229.0004        181.0004
  24770241.8794   -4724633.96749  -3668934.89845  24770240.9494   24770250.1034
       209.0004        144.0004
  22729056.5194  -11440831.38249  -8905797.84946  22729056.6024   22729062.1054
       228.0004        184.0004
  20472035.8524  -27860147.89749 -21501229.23548  20472035.9244   20472037.7874
       242.0004        215.0004
 06  5 10  2 46 30.0000000  0  7G 3G13G16G20G 8G27G23
  23208463.9184   -2258483.43849  -1616936.74845  23208463.7154   23208470.3094
       216.0004        161.0004
  20758667.5624  -23741935.67049 -18327031.34847  20758668.0034   20758671.6424
       245.0004        211.0004
  23009258.8584   -9649171.34649  -7310969.25846  23009258.8824   23009263.9554
       222.0004        169.0004
  22446034.8794  -14377137.99449 -11193861.30746  22446035.2234   22446040.1944
       230.0004        180.0004
  24755952.4414   -4799725.29549  -3727447.54345  24755951.9114   24755959.9404
       208.0004        144.0004
  22720969.0834  -11483329.90749  -8938913.54446  22720968.5014   22720974.7174
       229.0004        183.0004
  20475128.3584  -27843896.93049 -21488566.14548  20475128.2244   20475130.1534
       242.0004        215.0004
 06  5 10  2 47  0.0000000  0  7G 3G13G16G20G 8G27G23
  23198899.0554   -2308747.98649  -1656103.87245  23198899.4664   23198904.9214
       216.0004        161.0004
  20750588.0564  -23784393.88449 -18360115.66947  20750588.4174   20750592.3564
       244.0004        211.0004
  23025849.0454   -9561989.35549  -7243035.24246  23025848.9764   23025853.0824
       222.0004        168.0004
  22464795.1724  -14278552.79749 -11117041.67946  22464795.1564   22464800.5564
       229.0004        179.0004
  24741682.8064   -4874712.27649  -3785878.87745  24741681.8804   24741690.0204
       205.0004        143.0004
  22712907.0234  -11525696.48049  -8971926.42146  22712906.8724   22712912.7384
       230.0004        184.0004
  20478292.1144  -27827271.18449 -21475611.02948  20478292.0834   20478294.0124
       242.0004        215.0004
 06  5 10  2 47 30.0000000  0  7G 3G13G16G20G 8G27G23
  23189402.1354   -2358655.22549  -1694992.57845  23189400.9624   23189408.2914
       214.0004        159.0004
  20742557.5204  -23826594.62249 -18392999.35447  20742557.9064   20742561.7004
       243.0004        211.0004
  23042495.5984   -9474511.63749  -7174870.81646  23042495.6424   23042500.3294
       221.0004        169.0004
  22483600.4454  -14179730.54249 -11040037.35046  22483600.0884   22483605.7834
       228.0004        179.0004
  24727433.1414   -4949595.18649  -3844229.10945  24727433.0744   24727441.0654
       209.0004        143.0004
  22704869.9094  -11567931.87149  -9004837.09646  22704869.8564   22704875.9784
       229.0004        184.0004
  20481527.4554  -27810269.76049 -21462363.17148  20481527.6534   20481529.1764
       242.0004        215.0004
 06  5 10  2 48  0.0000000  0  7G 3G13G16G20G 8G27G23
  23179973.6154   -2408201.87149  -1733600.28945  23179972.9994   23179980.2604
       211.0004        157.0004
  20734576.3024  -23868535.62749 -18425680.65347  20734576.6214   20734580.8724
       244.0004        211.0004
  23059197.7604   -9386740.41649  -7106477.67146  23059196.8704   23059202.3954
       221.0004        170.0004
  22502450.4014  -14080673.89849 -10962850.38746  22502450.4384   22502455.7784
       229.0004        179.0004
  24713203.2794   -5024373.61249  -3902497.91345  24713203.6954   24713210.0544
       210.0004        144.0004
  22696857.5384  -11610036.55749  -9037645.89846  22696857.3034   22696863.2904
       229.0004        183.0004
  20484834.4204  -27792891.57549 -21448821.72348  20484834.5144   20484836.2744
       242.0004        215.0004
 06  5 10  2 48 30.0000000  0  7G 3G13G16G20G 8G27G23
  23170614.1704   -2457384.71349  -1771924.52345  23170614.8874   23170620.2204
       215.0004        155.0004
  20726645.0534  -23910214.66649 -18458157.82247  20726645.4324   20726649.3504
       244.0004        211.0004
  23075955.3654   -9298678.18349  -7037857.79146  23075954.9094   23075960.2024
       223.0004        172.0004
  22521344.4934  -13981385.16349 -10885482.55746  22521344.5284   22521349.5814
       229.0004        179.0004
  24698993.2464   -5099047.18049  -3960685.03345  24698992.4534   24699001.0714
       208.0004        146.0004
  22688870.0494  -11652010.84949  -9070353.09346  22688870.0224   22688876.0184
       228.0004        183.0004
  20488213.3064  -27775135.35449 -21434985.71148  20488213.0554   20488215.0344
       242.0004        215.0004
 06  5 10  2 49  0.0000000  0  7G 3G13G16G20G 8G27G23
  23161324.6484   -2506202.05449  -1809963.97145  23161324.3494   23161330.9594
       217.0004        156.0004
  20718763.7974  -23951630.59549 -18490429.97047  20718764.2784   20718767.9814
       244.0004        211.0004
  23092767.8464   -9210327.96849  -6969013.47846  23092768.3194   23092773.4084
       222.0004        171.0004
  22540281.8964  -13881867.99949 -10807936.72346  22540281.5484   22540287.6824
       228.0004        179.0004
  24684802.9624   -5173616.52049  -4018790.95445  24684803.1264   24684811.8904
       209.0004        148.0004
  22680907.0514  -11693855.97549  -9102959.65446  22680907.1754   22680913.1404
       230.0004        184.0004
  20491664.1114  -27757001.09749 -21420855.12548  20491664.1764   20491665.8174
       241.0004        214.0004
 06  5 10  2 49 30.0000000  0  7G 3G13G16G20G 8G27G23
  23152105.0764   -2554650.83549  -1847716.22445  23152104.0524   23152110.7304
       216.0004        156.0004
  20710933.0264  -23992781.41049 -18522495.53247  20710933.5794   20710937.5114
       244.0004        211.0004
  23109634.7454   -9121692.12849  -6899946.61146  23109634.9434   23109639.7664
       222.0004        169.0004
  22559262.3474  -13782125.21249 -10730215.08546  22559262.1584   22559267.9824
       228.0004        178.0004
  24670632.5544   -5248081.88949  -4076815.84145  24670632.3574   24670640.0424
       209.0004        148.0004
  22672968.7154  -11735572.18349  -9135465.75146  22672968.8504   22672974.3574
       229.0004        184.0004
  20495187.1974  -27738487.35749 -21406428.84148  20495187.1274   20495189.1184
       242.0004        214.0004
 06  5 10  2 50  0.0000000  0  7G 3G13G16G20G 8G27G23
  23142956.1364   -2602728.59849  -1885179.37945  23142955.6754   23142961.4794
       219.0004        156.0004
  20703152.9804  -24033665.70349 -18554353.40947  20703153.5154   20703157.4424
       244.0004        211.0004
  23126555.4494   -9032773.89149  -6830659.69346  23126555.5294   23126559.9484
       220.0004        169.0004
  22578285.1294  -13682159.71849 -10652319.90946  22578285.3984   22578290.2264
       228.0004        178.0004
  24656481.9354   -5322443.22149  -4134759.65245  24656481.0134   24656490.0574
       207.0004        146.0004
  22665054.7394  -11777160.51949  -9167872.20546  22665054.5694   22665060.4694
       229.0004        184.0004
  20498782.4924  -27719593.95249 -21391706.70948  20498782.2084   20498784.6024
       242.0004        214.0004
 06  5 10  2 50 30.0000000  0  7G 3G13G16G20G 8G27G23
  23133878.4254   -2650432.42049  -1922351.16045  23133877.9004   23133884.7494
       220.0004        159.0004
  20695424.1454  -24074281.30349 -18586001.92047  20695424.7764   20695428.5784
       245.0004        211.0004
  23143529.2324   -8943575.61149  -6761154.56346  23143528.7584   23143534.0214
       223.0004        170.0004
  22597349.7954  -13581974.29249 -10574253.37846  22597349.4704   22597355.2074
       227.0004        178.0004
  24642351.1574   -5396700.34449  -4192622.26945  24642350.8064   24642358.6114
       208.0004        144.0004
  22657165.0374  -11818621.56949  -9200179.47246  22657164.9614   22657170.6474
       230.0004        184.0004
  20502450.2344  -27700319.69349 -21376687.80848  20502450.0194   20502452.3674
       242.0004        215.0004
 06  5 10  2 51  0.0000000  0  7G 3G13G16G20G 8G27G23
  23124872.2454   -2697760.00449  -1959229.75845  23124871.6544   23124878.4694
       220.0004        161.0004
  20687746.6674  -24114626.87049 -18617440.01847  20687747.0914   20687751.0284
       243.0004        212.0004
  23160555.8674   -8854100.08149  -6691433.37446  23160556.0114   23160560.4704
       223.0004        171.0004
  22616455.7724  -13481571.64849 -10496017.57646  22616456.0234   22616461.1894
       228.0004        178.0004
  24628240.3624   -5470853.41549  -4250403.82145  24628240.0244   24628246.9034
       207.0004        143.0004
  22649299.4404  -11859955.92949  -9232388.03246  22649299.6964   22649305.3794
       227.0004        185.0004
  20506190.6074  -27680663.96649 -21361371.66348  20506190.5004   20506192.7234
       242.0004        215.0004
 06  5 10  2 51 30.0000000  0  7G 3G13G16G20G 8G27G23
  23115938.1894   -2744708.34049  -1995812.83645  23115938.0494   23115944.2554
       222.0004        162.0004
  20680120.9904  -24154699.91249 -18648665.75247  20680121.4504   20680125.4654
       243.0004        212.0004
  23177634.8014   -8764349.57149  -6621497.92246  23177634.7374   23177640.8084
       222.0004        170.0004
  22635602.6134  -13380954.56649 -10417614.67946  22635601.3994   22635608.0004
       227.0004        177.0004
  24614149.2784   -5544902.19749  -4308104.12445  24614149.0594   24614156.3874
       211.0004        143.0004
  22641457.7754  -11901164.08549  -9264498.22446  22641456.7364   22641462.8634
       228.0004        185.0004
  20510003.8164  -27660625.63449 -21345757.37248  20510003.7104   20510005.7364
       242.0004        215.0004
 06  5 10  2 52  0.0000000  0  7G 3G13G16G20G 8G27G23
  23107076.8304   -2791275.00349  -2032098.51346  23107076.2144   23107082.5924
       220.0004        164.0004
  20672547.3994  -24194499.04749 -18679678.05047  20672547.9134   20672551.8214
       244.0004        212.0004
  23194765.5624   -8674326.84249  -6551350.37546  23194765.7784   23194770.8474
       222.0004        169.0004
  22654789.5684  -13280126.15649 -10339047.12146  22654789.3464   22654794.8914
       226.0004        176.0004
  24600078.2204   -5618847.09849  -4365723.46145  24600078.0304   24600084.5184
       212.0004        147.0004
  22633639.8044  -11942247.03649  -9296510.87046  22633639.4974   22633645.8324
       229.0004        185.0004
  20513889.9134  -27640203.97949 -21329844.39348  20513889.6804   20513892.0234
       241.0004        214.0004
 06  5 10  2 52 30.0000000  0  8G 3G13G16G19G20G 8G27G23
  23098288.4844   -2837457.49349  -2068084.84346  23098288.3084   23098294.8674
       222.0004        167.0004
  20665026.3554  -24234022.58949 -18710475.59547  20665026.5104   20665030.8124
       243.0004        212.0004
  23211947.7514   -8584034.97849  -6480993.09746  23211947.8434   23211952.8824
       221.0004        167.0004
                   -719298.10849   -549405.25443
       211.0004         74.0004
  22674016.1804  -13179089.45549 -10260317.24446  22674015.5164   22674020.9814
       227.0004        174.0004
  24586027.0054   -5692688.23249  -4423261.93045  24586026.5184   24586033.7244
       211.0004        148.0004
  22625845.7234  -11983205.24749  -9328426.30346  22625845.5234   22625851.2654
       228.0004        186.0004
  20517849.0144  -27619398.69049 -21313632.48948  20517848.9794   20517851.1114
       242.0004        214.0004
 06  5 10  2 53  0.0000000  0  8G 3G13G16G19G20G 8G27G23
  23089574.0414   -2883252.74549  -2103769.41346  23089573.9114   23089580.6524
       219.0004        169.0004
  20657558.0794  -24273268.38249 -18741056.71947  20657558.5304   20657562.5314
       244.0004        212.0004
  23229180.5574   -8493476.14549  -6410427.77246  23229181.2924   23229185.2914
       222.0004        166.0004
                   -795833.71049   -609042.99643
       212.0004         74.0004
  22693281.9194  -13077847.03649 -10181427.07446  22693281.7084   22693287.1064
       227.0004        175.0004
  24571995.2574   -5766425.41049  -4480719.40345  24571994.9424   24572002.2564
       210.0004        150.0004
  22618075.2644  -12024039.14349  -9360244.86246  22618075.1724   22618081.1654
       230.0004        187.0004
  20521881.3544  -27598208.59849 -21297120.72248  20521880.8874   20521883.3864
       241.0004        214.0004
 06  5 10  2 53 30.0000000  0  8G 3G13G16G19G20G 8G27G23
  23080933.4194   -2928658.47649  -2139150.43746  23080932.8434   23080940.1034
       217.0004        169.0004
  20650143.0504  -24312234.79549 -18771420.13747  20650143.4034   20650147.4264
       244.0004        212.0004
  23246463.7474   -8402653.14949  -6339656.61246  23246464.3584   23246469.1554
       221.0004        165.0004
                   -872336.51549   -668655.54743                  24265208.5264
       212.0004         89.0004
  22712586.3624  -12976401.87549 -10102378.93646  22712586.0344   22712591.2514
       227.0004        174.0004
  24557983.1664   -5840058.78049  -4538095.97645  24557982.7324   24557989.6324
       207.0004        148.0004
  22610328.2924  -12064749.51649  -9391967.18746  22610327.9364   22610334.1574
       229.0004        186.0004
  20525986.9384  -27576633.24449 -21280308.76648  20525986.7854   20525988.7534
       242.0004        213.0004
 06  5 10  2 54  0.0000000  0  8G 3G13G16G19G20G 8G27G23
  23072367.6594   -2973671.89149  -2174225.78546  23072367.2634   23072374.4314
       217.0004        169.0004
  20642781.4604  -24350920.16249 -18801564.56247  20642781.6704   20642785.8134
       244.0004        212.0004
  23263796.5914   -8311568.73649  -6268681.75146  23263797.2784   23263800.6044
       220.0004        165.0004
  24250653.0694    -948803.49049   -728240.15445  24250652.5034   24250657.2434
       213.0004        150.0004
  22731928.9544  -12874756.79349 -10023175.00346  22731929.9924   22731934.4974
       227.0004        174.0004
  24543990.6524   -5913588.38549  -4595391.68945  24543989.7394   24543997.6014
       207.0004        145.0004
  22602604.7564  -12105336.93049  -9423593.69946  22602604.8924   22602610.1774
       229.0004        186.0004
  20530166.0304  -27554671.86749 -21263196.01348  20530165.9224   20530167.8264
       241.0004        213.0004
